[[{"header":{"parameterUnit":"m.s-1","parameterCategory":1,"la1":30.6,"la2":29.2853,"lo1":-89.7004,"lo2":-87.6739,"dy":0.0162,"dx":0.0183,"nx":112,"ny":82,"refTime":"2024-04-11T06:00:00:Z","depth":0,"parameterNumber":2,"parameterNumberName":"U-component_of_WINDS"},"data":[0.0,0.0,0.0,0.0,0.0,0.0,0.0,0.0,0.0,0.0,0.0,0.0,0.0,0.0,0.0,0.0,0.0,0.0,0.0,0.0,0.0,0.0,0.0,0.0,0.0,0.0,0.0,0.0,0.0,0.0,0.0,0.0,0.0,0.0,0.0,0.0,0.0,0.0,0.0,0.0,0.0,0.0,0.0,0.0,0.0,0.0,0.0,0.0,0.0,0.0,0.0,0.0,0.0,0.0,0.0,0.0,0.0,0.0,0.0,0.0,0.0,0.0,0.0,0.0,0.0,0.0,0.0,0.0,0.0,0.0,0.0,0.0,0.0,0.0,0.0,0.0,0.0,0.0,0.0,0.0,0.0,0.0,0.0,0.0,0.0,0.0,0.0,0.0,0.0,0.0,-5.5831,-5.592,-5.6087,-5.6191,-5.6191,-5.6191,-5.6191,-5.6191,0.0,0.0,0.0,0.0,0.0,0.0,0.0,0.0,0.0,0.0,0.0,0.0,0.0,0.0,0.0,0.0,0.0,0.0,0.0,0.0,0.0,0.0,0.0,0.0,0.0,0.0,0.0,0.0,0.0,0.0,0.0,0.0,0.0,0.0,0.0,0.0,0.0,0.0,0.0,0.0,0.0,0.0,0.0,0.0,0.0,0.0,0.0,0.0,0.0,0.0,0.0,0.0,0.0,0.0,0.0,0.0,0.0,0.0,0.0,0.0,0.0,0.0,0.0,0.0,0.0,0.0,0.0,0.0,0.0,0.0,0.0,0.0,0.0,0.0,0.0,0.0,0.0,0.0,0.0,0.0,0.0,0.0,0.0,0.0,0.0,0.0,0.0,0.0,0.0,0.0,0.0,0.0,0.0,0.0,0.0,0.0,0.0,0.0,0.0,0.0,0.0,0.0,0.0,0.0,-5.4784,-5.424,-5.4262,-5.4324,-5.4394,-5.4394,-5.4394,-5.4394,0.0,0.0,0.0,0.0,0.0,0.0,0.0,0.0,0.0,0.0,0.0,0.0,0.0,0.0,0.0,0.0,0.0,0.0,0.0,0.0,0.0,0.0,0.0,0.0,0.0,0.0,0.0,0.0,0.0,0.0,0.0,0.0,0.0,0.0,0.0,0.0,0.0,0.0,0.0,0.0,0.0,0.0,0.0,0.0,0.0,0.0,0.0,0.0,0.0,0.0,0.0,0.0,0.0,0.0,0.0,0.0,0.0,0.0,0.0,0.0,0.0,0.0,0.0,0.0,0.0,0.0,0.0,0.0,0.0,0.0,0.0,0.0,0.0,0.0,0.0,0.0,0.0,0.0,0.0,0.0,0.0,0.0,0.0,0.0,0.0,0.0,0.0,0.0,0.0,0.0,0.0,0.0,0.0,0.0,0.0,0.0,0.0,0.0,0.0,0.0,0.0,0.0,0.0,-5.4359,-5.4039,-5.3724,-5.3791,-5.3866,-5.3889,-5.3891,-5.392,-5.3936,-5.4664,0.0,0.0,0.0,0.0,0.0,0.0,0.0,0.0,0.0,0.0,0.0,0.0,0.0,0.0,0.0,0.0,0.0,0.0,0.0,0.0,0.0,0.0,0.0,0.0,0.0,0.0,0.0,0.0,0.0,0.0,0.0,0.0,0.0,0.0,0.0,0.0,0.0,0.0,0.0,0.0,0.0,0.0,0.0,0.0,0.0,0.0,0.0,0.0,0.0,0.0,0.0,0.0,0.0,0.0,0.0,0.0,0.0,0.0,0.0,0.0,0.0,0.0,0.0,0.0,0.0,0.0,0.0,0.0,0.0,0.0,0.0,0.0,0.0,0.0,0.0,0.0,0.0,0.0,0.0,0.0,0.0,0.0,0.0,0.0,0.0,0.0,0.0,0.0,0.0,0.0,0.0,0.0,0.0,0.0,0.0,0.0,0.0,0.0,0.0,0.0,0.0,0.0,-5.3233,-5.3197,-5.3034,-5.3103,-5.3178,-5.3198,-5.3198,-5.3212,-5.3288,-5.3221,0.0,0.0,0.0,0.0,0.0,0.0,0.0,0.0,0.0,0.0,0.0,0.0,0.0,0.0,0.0,0.0,0.0,0.0,0.0,0.0,0.0,0.0,0.0,0.0,0.0,0.0,0.0,0.0,0.0,0.0,0.0,0.0,0.0,0.0,0.0,0.0,0.0,0.0,0.0,0.0,0.0,0.0,0.0,0.0,0.0,0.0,0.0,0.0,0.0,0.0,0.0,0.0,0.0,0.0,0.0,0.0,0.0,0.0,0.0,0.0,0.0,0.0,0.0,0.0,0.0,0.0,0.0,0.0,0.0,0.0,0.0,0.0,0.0,0.0,0.0,0.0,0.0,0.0,0.0,0.0,0.0,0.0,0.0,0.0,0.0,0.0,0.0,0.0,0.0,0.0,0.0,0.0,0.0,0.0,0.0,0.0,0.0,0.0,0.0,0.0,0.0,0.0,-5.2295,-5.2046,-5.1346,-5.1286,-5.1316,-5.137,-5.1378,-5.1411,-5.149,-5.1421,0.0,0.0,0.0,0.0,0.0,0.0,0.0,0.0,0.0,0.0,0.0,0.0,0.0,0.0,0.0,0.0,0.0,0.0,0.0,0.0,0.0,0.0,0.0,0.0,0.0,0.0,0.0,0.0,0.0,0.0,0.0,0.0,0.0,0.0,0.0,0.0,0.0,0.0,0.0,0.0,0.0,0.0,0.0,0.0,0.0,0.0,0.0,0.0,0.0,0.0,0.0,0.0,0.0,0.0,0.0,0.0,0.0,0.0,0.0,0.0,0.0,0.0,0.0,0.0,0.0,0.0,0.0,0.0,0.0,0.0,0.0,0.0,0.0,0.0,0.0,0.0,0.0,0.0,0.0,0.0,0.0,0.0,0.0,0.0,0.0,0.0,0.0,0.0,0.0,0.0,0.0,0.0,0.0,0.0,0.0,0.0,0.0,0.0,0.0,0.0,0.0,0.0,-5.1388,-5.1277,-5.099,-5.0981,-5.0997,-5.1011,-5.1011,-5.1053,-5.1161,0.0,0.0,0.0,0.0,0.0,0.0,0.0,0.0,0.0,0.0,0.0,0.0,0.0,0.0,0.0,0.0,0.0,0.0,0.0,0.0,0.0,0.0,0.0,0.0,0.0,0.0,0.0,0.0,0.0,0.0,0.0,0.0,0.0,0.0,0.0,0.0,0.0,0.0,0.0,0.0,0.0,0.0,0.0,0.0,0.0,0.0,0.0,0.0,0.0,0.0,0.0,0.0,0.0,0.0,0.0,0.0,0.0,0.0,0.0,0.0,0.0,0.0,0.0,0.0,0.0,0.0,0.0,0.0,0.0,0.0,0.0,0.0,0.0,0.0,0.0,0.0,0.0,0.0,0.0,0.0,0.0,0.0,0.0,0.0,0.0,0.0,0.0,0.0,0.0,0.0,0.0,0.0,0.0,0.0,0.0,0.0,0.0,0.0,0.0,0.0,0.0,0.0,-5.0932,-5.0863,-5.0863,-5.0863,-5.0869,-5.0866,-5.0866,-5.0893,-5.0952,-5.1062,0.0,0.0,0.0,0.0,0.0,0.0,0.0,0.0,0.0,0.0,0.0,0.0,0.0,0.0,0.0,0.0,0.0,0.0,0.0,0.0,0.0,0.0,0.0,0.0,0.0,0.0,0.0,0.0,0.0,0.0,0.0,0.0,0.0,0.0,0.0,0.0,0.0,0.0,0.0,0.0,0.0,0.0,0.0,0.0,0.0,0.0,0.0,0.0,0.0,0.0,0.0,0.0,0.0,0.0,0.0,0.0,0.0,0.0,0.0,0.0,0.0,0.0,0.0,0.0,0.0,0.0,0.0,0.0,0.0,0.0,0.0,0.0,0.0,0.0,0.0,0.0,0.0,0.0,0.0,0.0,0.0,0.0,0.0,0.0,0.0,0.0,0.0,0.0,0.0,0.0,0.0,0.0,0.0,0.0,0.0,0.0,0.0,0.0,0.0,0.0,0.0,0.0,-5.0801,-5.0801,-5.0801,-5.0801,-5.0801,-5.0801,-5.0801,-5.0855,-5.0914,0.0,0.0,0.0,0.0,0.0,0.0,0.0,0.0,0.0,0.0,0.0,0.0,0.0,0.0,0.0,0.0,0.0,0.0,0.0,0.0,0.0,0.0,0.0,0.0,0.0,0.0,0.0,0.0,0.0,0.0,0.0,0.0,0.0,0.0,0.0,0.0,0.0,0.0,0.0,0.0,0.0,0.0,0.0,0.0,0.0,0.0,0.0,0.0,0.0,0.0,0.0,0.0,0.0,0.0,0.0,0.0,0.0,0.0,0.0,0.0,0.0,0.0,0.0,0.0,0.0,0.0,0.0,0.0,0.0,0.0,0.0,0.0,0.0,0.0,0.0,0.0,0.0,0.0,0.0,0.0,0.0,0.0,0.0,0.0,0.0,0.0,0.0,0.0,0.0,0.0,0.0,0.0,0.0,0.0,0.0,0.0,0.0,0.0,0.0,0.0,0.0,0.0,0.0,-5.0739,-5.072,-5.072,-5.072,-5.0775,-5.0801,-5.0801,-5.081,-5.0601,-5.0043,0.0,0.0,0.0,0.0,0.0,0.0,0.0,0.0,0.0,0.0,0.0,0.0,0.0,0.0,0.0,0.0,0.0,0.0,0.0,0.0,0.0,0.0,0.0,0.0,0.0,0.0,0.0,0.0,0.0,0.0,0.0,0.0,0.0,0.0,0.0,0.0,0.0,0.0,0.0,0.0,0.0,0.0,0.0,0.0,0.0,0.0,0.0,0.0,0.0,0.0,0.0,0.0,0.0,0.0,0.0,0.0,0.0,0.0,0.0,0.0,0.0,0.0,0.0,0.0,0.0,0.0,0.0,0.0,0.0,0.0,0.0,0.0,0.0,0.0,0.0,0.0,0.0,0.0,0.0,0.0,0.0,0.0,0.0,0.0,0.0,0.0,0.0,0.0,0.0,0.0,0.0,0.0,0.0,0.0,0.0,0.0,0.0,0.0,0.0,0.0,0.0,0.0,-5.0046,-5.0296,-5.0372,-5.0056,-5.0462,-5.0623,-5.0276,-5.0275,-4.9935,-4.9092,0.0,0.0,0.0,0.0,0.0,0.0,0.0,0.0,0.0,0.0,0.0,0.0,0.0,0.0,0.0,0.0,0.0,0.0,0.0,0.0,0.0,0.0,0.0,0.0,0.0,0.0,0.0,0.0,0.0,0.0,0.0,0.0,0.0,0.0,0.0,0.0,0.0,0.0,0.0,0.0,0.0,0.0,0.0,0.0,0.0,0.0,0.0,0.0,0.0,0.0,0.0,0.0,0.0,0.0,0.0,0.0,0.0,0.0,0.0,0.0,0.0,0.0,0.0,0.0,0.0,0.0,0.0,0.0,0.0,0.0,0.0,0.0,0.0,0.0,0.0,0.0,0.0,0.0,0.0,0.0,0.0,0.0,0.0,0.0,0.0,0.0,0.0,0.0,0.0,0.0,0.0,0.0,0.0,0.0,0.0,0.0,0.0,0.0,0.0,0.0,0.0,0.0,-4.8953,-4.9476,-4.9686,-4.903,-4.981,-5.0095,-4.9404,-4.9308,-4.8932,-4.8056,0.0,0.0,0.0,0.0,0.0,0.0,0.0,0.0,0.0,0.0,0.0,0.0,0.0,0.0,0.0,0.0,0.0,0.0,0.0,0.0,0.0,0.0,0.0,0.0,0.0,0.0,0.0,0.0,0.0,0.0,0.0,0.0,0.0,0.0,0.0,0.0,0.0,0.0,0.0,0.0,0.0,0.0,0.0,0.0,0.0,0.0,0.0,0.0,0.0,0.0,0.0,0.0,0.0,0.0,0.0,0.0,0.0,0.0,0.0,0.0,-5.5607,-5.6258,0.0,0.0,0.0,0.0,0.0,0.0,0.0,0.0,0.0,0.0,0.0,0.0,0.0,0.0,0.0,0.0,0.0,0.0,0.0,0.0,0.0,0.0,0.0,0.0,0.0,0.0,0.0,0.0,0.0,0.0,0.0,0.0,0.0,0.0,0.0,0.0,0.0,0.0,0.0,0.0,-4.777,-4.7808,-4.8118,-4.8631,-4.8294,-4.8236,-4.8725,-4.816,-4.7414,-4.6591,-4.7205,0.0,0.0,0.0,0.0,0.0,0.0,0.0,0.0,0.0,0.0,0.0,0.0,0.0,0.0,0.0,0.0,0.0,0.0,0.0,0.0,0.0,0.0,0.0,0.0,0.0,0.0,0.0,0.0,0.0,0.0,0.0,0.0,0.0,0.0,0.0,0.0,0.0,0.0,0.0,0.0,0.0,0.0,0.0,0.0,0.0,0.0,0.0,0.0,0.0,0.0,0.0,0.0,0.0,0.0,0.0,0.0,0.0,0.0,0.0,-5.455,-5.5025,0.0,0.0,0.0,0.0,0.0,0.0,0.0,0.0,0.0,0.0,0.0,0.0,0.0,0.0,0.0,0.0,0.0,0.0,0.0,0.0,0.0,0.0,0.0,0.0,0.0,0.0,0.0,0.0,0.0,0.0,0.0,0.0,0.0,0.0,0.0,0.0,0.0,0.0,0.0,0.0,-4.6639,-4.6865,-4.713,-4.7205,-4.7263,-4.7321,-4.7384,-4.6967,-4.6373,-4.5544,-4.5904,0.0,0.0,0.0,0.0,0.0,0.0,0.0,0.0,0.0,0.0,0.0,0.0,0.0,0.0,0.0,0.0,0.0,0.0,0.0,0.0,0.0,0.0,0.0,0.0,0.0,0.0,0.0,0.0,0.0,0.0,0.0,0.0,0.0,0.0,0.0,0.0,0.0,0.0,0.0,0.0,0.0,0.0,0.0,0.0,0.0,0.0,0.0,0.0,0.0,0.0,0.0,0.0,0.0,-5.323,-5.3185,-5.3185,-5.3185,-5.3112,-5.3028,-5.3755,-5.3936,-5.374,-5.4054,0.0,0.0,0.0,0.0,0.0,0.0,0.0,0.0,0.0,0.0,0.0,0.0,0.0,0.0,0.0,0.0,0.0,0.0,0.0,0.0,0.0,0.0,-4.8634,-4.867,-4.8039,-4.7777,-4.8965,0.0,0.0,0.0,0.0,0.0,0.0,0.0,0.0,0.0,0.0,0.0,-4.5509,-4.5977,-4.6202,-4.5696,-4.6293,-4.6516,-4.5999,-4.581,-4.5432,-4.4707,-4.465,-4.4676,0.0,0.0,0.0,0.0,0.0,0.0,0.0,0.0,0.0,0.0,0.0,0.0,0.0,0.0,0.0,0.0,0.0,0.0,0.0,0.0,0.0,0.0,0.0,0.0,0.0,0.0,0.0,0.0,0.0,0.0,0.0,0.0,-5.5445,-5.4656,0.0,0.0,0.0,0.0,0.0,0.0,0.0,0.0,0.0,0.0,0.0,0.0,0.0,-5.3256,-5.3227,-5.3206,-5.3206,-5.3227,-5.3206,-5.3185,-5.3185,-5.3185,-5.2821,-5.2162,-5.2287,0.0,-5.3348,-5.2995,0.0,0.0,0.0,0.0,0.0,0.0,0.0,0.0,0.0,0.0,0.0,0.0,0.0,0.0,0.0,0.0,0.0,0.0,0.0,0.0,0.0,0.0,-4.7642,-4.7731,-4.71,-4.6576,-4.6869,-4.6845,-4.677,-4.677,-4.6118,-4.5522,0.0,0.0,0.0,0.0,0.0,0.0,-4.4343,-4.4324,-4.4625,-4.5292,-4.4802,-4.4702,-4.5354,-4.4721,-4.4236,-4.4109,-4.4109,-4.4206,-4.4438,-4.4452,0.0,0.0,0.0,0.0,0.0,0.0,0.0,0.0,0.0,0.0,0.0,0.0,0.0,0.0,0.0,0.0,0.0,0.0,0.0,0.0,0.0,0.0,0.0,0.0,0.0,0.0,0.0,0.0,0.0,-5.5152,-5.4638,-5.383,-5.3739,-5.3592,0.0,0.0,0.0,0.0,0.0,0.0,0.0,0.0,0.0,-5.3233,-5.3233,-5.323,-5.3185,-5.3185,-5.3185,-5.3185,-5.3185,-5.3185,-5.3185,-5.3185,-5.2766,-5.1995,-5.1995,-5.1963,-5.1875,-5.1669,-5.1638,-5.1714,0.0,0.0,0.0,0.0,-5.1216,-5.0807,-5.0737,-5.0353,-4.9894,-4.9878,0.0,0.0,0.0,0.0,0.0,0.0,0.0,-4.7811,-4.7368,-4.698,-4.6739,-4.6793,-4.6181,-4.5589,-4.564,-4.5307,-4.5154,-4.5716,-4.5138,-4.4562,-4.4562,-4.4562,0.0,0.0,0.0,-4.4432,-4.4061,-4.4005,-4.4153,-4.4525,-4.4228,-4.4153,-4.4544,-4.4228,-4.4005,-4.4005,-4.4005,-4.4048,-4.4181,-4.4181,-4.4236,0.0,0.0,0.0,0.0,0.0,0.0,0.0,0.0,0.0,0.0,0.0,0.0,0.0,0.0,0.0,0.0,0.0,0.0,0.0,0.0,0.0,0.0,0.0,0.0,0.0,0.0,0.0,0.0,-5.4087,-5.3867,-5.328,-5.3185,-5.3185,0.0,0.0,0.0,0.0,0.0,0.0,-5.3185,-5.3185,-5.3185,-5.3185,-5.3185,-5.3185,-5.3185,-5.3185,-5.3185,-5.3185,-5.3185,-5.3185,-5.3185,-5.3185,-5.2656,-5.1683,-5.1683,-5.1114,-5.0178,-5.0398,-5.0532,-5.0555,-5.0315,-5.03,-5.0377,-5.0377,-5.0008,-4.9472,-4.9397,-4.8992,-4.8532,-4.8476,-4.8495,-4.8514,-4.8514,0.0,0.0,0.0,0.0,-4.7444,-4.6651,-4.6282,-4.608,-4.5893,-4.5229,-4.4657,-4.469,-4.4229,-4.4022,-4.4779,-4.4387,-4.3961,-4.3961,-4.3961,0.0,-4.3961,-4.3958,-4.3958,-4.3961,-4.3958,-4.3958,-4.3961,-4.3961,-4.3961,-4.3961,-4.3961,-4.3961,-4.3961,-4.3961,-4.3868,-4.3645,-4.3645,-4.3534,-4.333,0.0,0.0,0.0,0.0,0.0,0.0,0.0,0.0,0.0,0.0,0.0,0.0,0.0,0.0,0.0,0.0,0.0,0.0,0.0,0.0,0.0,0.0,0.0,0.0,0.0,0.0,0.0,0.0,0.0,-5.3185,-5.3185,0.0,0.0,0.0,0.0,-5.3185,-5.3185,-5.3185,-5.3185,-5.3185,-5.3185,-5.3185,-5.3185,-5.3185,-5.3185,-5.3185,-5.3185,-5.3185,-5.3185,-5.3185,-5.3185,-5.3185,-5.2344,-5.0857,-5.0857,-4.9939,-4.8489,-4.9335,-4.9665,-4.9574,-4.8746,-4.8416,-4.8454,-4.8454,-4.8435,-4.8379,-4.8361,-4.8343,-4.8306,-4.8306,-4.8306,-4.8325,-4.8325,-4.8325,0.0,0.0,-4.8252,-4.8067,-4.726,-4.6489,-4.5736,-4.5053,-4.426,-4.3706,-4.3826,-4.3841,-4.3822,-4.3859,-4.3841,-4.3804,-4.3804,0.0,-4.3804,-4.3804,-4.3867,-4.3883,-4.382,-4.3867,-4.3883,-4.382,-4.3804,-4.3804,-4.3804,-4.3804,-4.3804,-4.3804,-4.3804,-4.3469,-4.2709,-4.2673,-4.2303,-4.1545,-4.1527,0.0,0.0,0.0,0.0,0.0,0.0,0.0,0.0,0.0,0.0,0.0,0.0,0.0,0.0,0.0,0.0,0.0,0.0,0.0,0.0,0.0,0.0,0.0,0.0,0.0,0.0,0.0,0.0,-5.3185,-5.3185,0.0,-5.3185,-5.3185,-5.3185,-5.3185,-5.3185,-5.3185,-5.3185,-5.3185,-5.3185,-5.3185,-5.3185,-5.3185,-5.3185,-5.3185,-5.3185,-5.3185,-5.3185,-5.3185,-5.3167,-5.2656,-5.183,-5.0765,-5.0251,-4.937,-4.8324,-4.8636,-4.8765,-4.8728,-4.8416,-4.8306,-4.8306,-4.8306,-4.8306,-4.8306,-4.8306,-4.8306,-4.8306,-4.8306,-4.8306,-4.8306,-4.8306,-4.8306,-4.8196,-4.7663,-4.696,-4.6222,-4.57,-4.4766,-4.3962,-4.3957,-4.3733,-4.3549,-4.36,-4.3392,-4.3214,-4.3214,-4.3532,-4.3804,-4.3804,-4.3804,-4.3804,-4.3804,-4.382,-4.3837,-4.3804,-4.382,-4.3837,-4.3804,-4.3804,-4.3804,-4.3804,-4.3804,-4.3804,-4.3804,-4.3804,-4.3675,-4.3379,-4.2878,-4.2472,-4.2176,-4.1659,-4.14,0.0,0.0,0.0,0.0,0.0,0.0,0.0,0.0,0.0,0.0,0.0,0.0,0.0,0.0,0.0,0.0,0.0,0.0,0.0,0.0,0.0,0.0,0.0,0.0,0.0,-5.2806,-5.2872,-5.3103,-5.3381,-5.3436,-5.3222,-5.3463,-5.35,-5.3203,-5.3185,-5.3185,-5.3185,-5.3185,-5.3185,-5.3185,-5.3185,-5.3185,-5.3185,-5.3185,-5.3185,-5.3185,-5.3185,-5.3078,-5.2784,-5.2234,-5.1408,-5.0362,-4.9831,-4.9095,-4.8306,-4.8306,-4.8306,-4.8306,-4.8306,-4.8306,-4.8306,-4.8306,-4.8306,-4.8306,-4.8306,-4.8306,-4.8306,-4.8306,-4.8306,-4.8306,-4.8306,-4.8306,-4.8157,-4.7473,-4.6509,-4.5532,-4.4813,-4.3842,-4.3075,-4.305,-4.3069,-4.3069,-4.3069,-4.2845,-4.2653,-4.2653,-4.2976,-4.3268,-4.3268,-4.3268,-4.3303,-4.348,-4.3374,-4.3356,-4.348,-4.3374,-4.3285,-4.3268,-4.3268,-4.3268,-4.3268,-4.3268,-4.3268,-4.3268,-4.3268,-4.314,-4.2866,-4.2336,-4.1805,-4.1257,-4.0487,-4.0085,-4.0085,0.0,0.0,0.0,0.0,0.0,0.0,0.0,0.0,0.0,0.0,0.0,0.0,0.0,0.0,0.0,0.0,0.0,0.0,0.0,0.0,0.0,0.0,0.0,-5.1933,-5.2006,-5.2244,-5.2908,-5.3646,-5.3873,-5.3195,-5.3861,-5.3989,-5.3219,-5.3185,-5.3185,-5.3185,-5.3185,-5.3185,-5.3185,-5.3185,-5.3185,-5.3185,-5.3185,-5.3185,-5.3185,-5.3167,-5.2747,-5.1995,-5.194,-5.1079,-4.961,-4.9574,-4.9077,-4.8306,-4.8306,-4.8306,-4.8306,-4.8306,-4.8306,-4.8306,-4.8306,-4.8306,-4.8306,-4.8287,-4.8287,-4.8287,-4.8287,-4.8287,-4.8287,-4.8287,-4.8287,-4.8172,-4.7677,-4.6993,-4.6114,-4.4807,-4.3914,-4.3147,-4.2376,-4.2198,-4.2198,-4.2198,-4.2177,-4.2177,-4.2177,-4.2157,-4.2157,-4.2216,-4.2198,-4.2358,-4.2806,-4.2541,0.0,-4.2844,-4.2541,-4.2284,-4.2198,-4.2198,-4.2198,-4.2198,-4.2198,-4.2198,-4.2198,-4.2198,-4.1859,-4.1072,-4.1,-4.0251,-3.8627,-3.7879,-3.7505,-3.7487,0.0,0.0,0.0,0.0,0.0,0.0,0.0,0.0,0.0,0.0,0.0,0.0,0.0,0.0,0.0,0.0,0.0,0.0,0.0,0.0,0.0,-5.0717,-5.128,-5.205,-5.2137,-5.2214,-5.2394,-5.2615,-5.2462,-5.175,-5.227,-5.2573,-5.2356,-5.2783,-5.3042,-5.3042,-5.3143,-5.3185,-5.3185,-5.3185,-5.3185,-5.3185,-5.3185,-5.3185,-5.3185,-5.2619,-5.2197,-5.1958,-5.0804,-5.0033,-4.9555,-4.893,-4.8526,-4.8306,-4.8306,-4.8306,-4.8306,-4.8306,-4.8306,-4.8306,-4.8306,-4.8306,-4.8267,-4.7897,-4.7795,-4.7795,-4.7795,-4.7795,-4.7795,-4.7795,-4.7795,-4.7568,-4.6529,-4.5441,-4.4458,-4.3854,-4.2857,-4.2065,-4.2169,-4.2198,-4.2198,-4.2198,-4.1927,-4.1692,-4.1692,-4.1463,-4.1463,-4.2095,-4.2198,-4.2239,-4.2378,-4.23,-4.2279,-4.2378,-4.23,-4.2218,-4.2198,-4.2198,-4.2198,-4.2198,-4.2198,-4.2198,-4.2198,-4.2198,-4.2109,-4.1895,-4.1303,-4.0251,-3.8627,-3.7879,-3.7358,0.0,0.0,0.0,0.0,0.0,0.0,0.0,0.0,0.0,0.0,0.0,0.0,0.0,0.0,0.0,0.0,0.0,0.0,0.0,0.0,0.0,0.0,-5.036,-5.0875,-5.1668,-5.173,-5.1801,-5.2067,-5.2147,-5.1874,-5.1174,-5.1732,-5.1997,-5.175,-5.2232,-5.2631,-5.2743,-5.2717,-5.285,-5.3185,-5.268,-5.2658,-5.3185,-5.2761,-5.2631,-5.285,-5.1835,-5.1147,-5.0784,-4.9531,-4.8787,-4.8442,-4.7931,-4.7713,-4.7713,-4.7713,-4.7713,-4.7733,0.0,0.0,0.0,0.0,-4.7713,-4.7671,-4.7399,-4.7313,-4.7313,-4.7313,-4.7313,-4.7313,-4.7313,-4.7061,-4.6615,-4.5685,-4.444,-4.3323,-4.2916,-4.2046,-4.1328,-4.1578,-4.1666,-4.1666,-4.1666,-4.1423,-4.1237,-4.1237,-4.1065,0.0,-4.1574,-4.1666,-4.1709,-4.1885,-4.1756,-4.1731,-4.1885,-4.1774,-4.1666,-4.1666,-4.1666,-4.1666,-4.1666,-4.1666,0.0,0.0,0.0,-4.1666,-4.1666,-4.0887,0.0,0.0,0.0,-3.7231,-3.6658,-3.6658,0.0,0.0,-3.7228,-3.7246,0.0,0.0,0.0,0.0,0.0,0.0,0.0,0.0,0.0,0.0,0.0,0.0,0.0,0.0,0.0,0.0,-5.0219,-5.0439,-5.1116,-5.1011,-5.1111,-5.1728,-5.1821,-5.1605,-5.0938,-5.1564,-5.1812,-5.1209,-5.164,-5.2036,-5.2273,-5.2042,0.0,0.0,0.0,-5.1843,-5.2977,-5.2042,-5.1824,-5.2297,-5.091,-4.9888,-4.9174,-4.8341,-4.7592,-4.6908,-4.6908,-4.6908,-4.6908,-4.6908,-4.6863,-4.6863,-4.7335,-4.7527,-4.7485,-4.7049,-4.6908,-4.6886,-4.684,0.0,0.0,-4.6817,-4.6817,-4.6799,-4.671,-4.6198,-4.5503,-4.4835,-4.3682,-4.252,-4.2016,-4.1395,-4.0912,-4.0912,-4.0912,-4.0912,-4.0912,-4.0912,-4.0912,-4.0912,-4.0912,-4.0912,-4.0912,-4.0912,-4.1018,-4.1378,-4.1117,-4.1018,-4.1378,-4.1117,-4.0912,-4.0912,-4.0912,0.0,-4.0912,-4.0912,-4.0912,-4.0912,-4.0912,-4.0912,-4.0912,-4.0112,-3.9388,-3.8755,-3.8013,-3.7215,-3.6439,-3.6439,-3.6387,-3.6301,-3.6301,-3.6301,0.0,0.0,0.0,0.0,0.0,0.0,0.0,0.0,0.0,0.0,0.0,0.0,0.0,0.0,0.0,-5.098,-5.0997,-5.1048,-5.1168,-5.0653,-5.0317,-5.0438,-5.0468,-5.0209,-4.9475,-5.008,-5.0467,-5.0338,-5.107,-5.1551,-5.1601,-5.1497,-5.1504,-5.1654,-5.1436,-5.1411,-5.1679,-5.1454,-5.1472,-5.1732,-5.0071,0.0,-4.9156,-4.7765,-4.7051,-4.6908,-4.6908,-4.6908,-4.6908,-4.6908,-4.6678,-4.6387,-4.6863,-4.7044,-4.7004,-4.6931,-4.6908,-4.684,-4.6459,-4.6357,-4.6357,-4.6357,-4.6357,-4.6216,-4.5564,-4.5264,0.0,-4.3051,-4.2369,-4.1981,-4.1298,-4.1015,-4.0912,-4.0912,-4.0912,-4.0912,-4.0912,-4.0912,-4.0912,-4.0912,-4.0912,-4.0912,-4.0912,-4.0912,-4.0918,-4.0995,-4.0942,-4.0918,-4.1012,-4.0942,-4.0912,-4.0912,-4.0912,-4.0912,-4.0912,-4.0912,-4.0912,-4.0912,-4.0912,-4.0912,-4.0912,-4.0112,-3.9629,-3.9491,-3.875,-3.8008,-3.7271,-3.7271,-3.6922,-3.6301,-3.6301,-3.6301,0.0,0.0,0.0,0.0,0.0,0.0,0.0,0.0,0.0,0.0,0.0,-5.0202,-5.0591,0.0,-5.0777,-5.115,-5.0896,-5.0659,-5.0659,-5.0321,-5.0084,-5.0084,-4.9763,-4.9407,-4.9035,-4.9333,-4.9585,-4.9627,-5.0338,-5.0804,-5.0947,-5.0884,-5.1026,-5.1439,-5.0822,-5.0751,-5.1284,-5.0867,-5.075,-5.0929,-4.9188,-4.8347,-4.8312,-4.6753,-4.6077,-4.6144,-4.6077,-4.6077,-4.6144,-4.6144,-4.6013,-4.5829,-4.6045,-4.6144,-4.6144,-4.6144,-4.6144,-4.6119,-4.5862,-4.5803,-4.5734,-4.5376,-4.5254,-4.5115,-4.4331,-4.3809,-4.3291,-4.2279,-4.1716,-4.136,-4.0998,-4.0912,-4.0912,-4.0912,-4.0912,-4.0912,-4.0912,-4.0912,-4.0912,-4.0912,-4.0912,-4.0912,-4.0912,-4.0912,-4.0912,-4.0912,-4.0912,-4.0912,-4.0912,-4.0912,-4.0912,-4.0912,-4.0912,-4.0912,-4.0912,-4.0912,-4.0912,-4.0912,-4.0912,-4.0912,-4.0912,-4.0515,-4.0095,-3.9698,-3.8974,-3.8254,-3.7512,-3.7116,-3.668,-3.6301,-3.6301,-3.6301,0.0,0.0,0.0,0.0,0.0,0.0,0.0,0.0,-4.8342,-4.9069,-4.9915,-5.0659,-5.1133,-5.0828,-5.0676,-5.115,-5.0591,-5.0084,-5.0084,-4.9965,-4.9881,-4.9881,-4.9357,-4.9001,-4.9001,-4.9032,-4.9077,-4.9199,-4.9703,-5.0074,-5.0293,-5.025,-5.053,-5.1166,-5.0205,-5.0102,-5.0991,-5.0278,-4.9959,-4.9955,-4.8349,-4.7464,-4.7163,-4.5785,-4.5247,-4.5371,-4.5274,-4.53,-4.5397,-4.5397,-4.5397,-4.5397,-4.5397,-4.5397,-4.5397,-4.5397,-4.5397,-4.538,-4.5225,-4.5173,-4.5079,-4.4345,-4.4087,-4.3949,-4.3189,-4.2516,-4.1981,-4.1843,-4.136,-4.0912,-4.0912,-4.0912,-4.0912,-4.0912,-4.0912,-4.0912,-4.0912,-4.0912,-4.0912,-4.0912,-4.0912,-4.0912,-4.0912,-4.0912,-4.0912,-4.0912,-4.0912,-4.0912,-4.0912,-4.0912,-4.0912,-4.0912,-4.0912,-4.0912,-4.0912,-4.0912,-4.0912,-4.0912,-4.0912,-4.0825,-4.0687,-4.067,-4.0308,-3.9491,-3.8888,-3.8254,-3.7512,-3.6835,-3.6456,-3.6301,-3.6301,-3.6301,-4.727,-4.714,-4.7022,-4.6938,-4.6921,-4.7073,0.0,0.0,-4.9086,-4.9813,-5.1082,-5.1877,-5.1319,-5.1674,-5.1877,-5.1269,-5.0591,-5.0084,-5.0084,-4.9543,-4.912,-4.912,-4.9052,-4.9001,-4.9001,-4.9107,-4.9199,-4.9199,-4.9441,-4.959,-4.9619,-4.959,-4.9649,-4.972,-4.9708,-4.975,-4.9878,-4.9796,-4.9411,-4.8799,-4.774,-4.6902,-4.6246,-4.5408,-4.5113,-4.5247,-4.5327,-4.5397,-4.5397,-4.5397,-4.5397,-4.5397,-4.5397,-4.5397,-4.5397,-4.5397,-4.5397,-4.5311,-4.4647,-4.4432,-4.4311,-4.3552,-4.331,-4.3172,-4.2378,-4.2061,-4.1854,-4.1222,-4.0963,-4.0912,-4.0912,-4.0912,-4.0912,-4.0912,-4.0912,-4.0912,-4.0912,-4.0912,-4.0912,-4.0912,-4.0912,-4.0912,-4.0912,-4.0912,-4.0912,-4.0912,-4.0912,-4.0912,-4.0912,-4.0912,-4.0912,-4.0912,-4.0912,-4.0912,-4.0912,-4.0912,-4.0912,-4.0912,-4.0912,-4.0584,-3.9853,-3.9819,-3.9474,-3.8755,-3.8629,-3.8254,-3.7512,-3.7409,-3.6991,-3.6301,-3.6301,-3.6301,-4.708,-4.6844,-4.6684,-4.6261,-4.6481,-4.687,-4.7192,-4.8173,-4.934,-5.0507,-5.1234,-5.1708,-5.1826,-5.1386,-5.0913,-5.0608,-4.9932,-4.9458,-4.9458,-4.9187,-4.9001,-4.9001,-4.9001,-4.9001,-4.9001,-4.9063,-4.9077,-4.9077,-4.9229,-4.932,-4.932,-4.9458,-4.9518,-4.9518,-4.953,-4.953,-4.9411,-4.959,-4.9184,-4.8201,-4.7637,-4.6885,-4.5948,-4.5227,-4.4968,-4.5086,-4.522,-4.5344,-4.5397,-4.5397,-4.5397,-4.5397,-4.5397,-4.5397,-4.5397,-4.5397,-4.5397,-4.5276,-4.457,-4.4311,-4.4104,-4.2896,-4.2499,-4.2361,-4.1602,-4.136,-4.1309,-4.0998,-4.0912,-4.0912,-4.0912,-4.0912,-4.0912,-4.0912,-4.0912,-4.0912,-4.0912,-4.0912,-4.0912,-4.0912,-4.0912,-4.0912,-4.0912,-4.0912,-4.0912,-4.0912,-4.0912,-4.0912,-4.0912,-4.0912,-4.0912,-4.0912,-4.0912,-4.0912,-4.0912,-4.0912,-4.0912,-4.0912,-4.0463,-4.0043,-3.9715,-3.9284,-3.8882,-3.8487,-3.8057,-3.7652,-3.7276,-3.6513,-3.6072,-3.5893,-3.5577,-3.5644,-4.6416,-4.6177,-4.6058,-4.5534,-4.6092,-4.6836,-4.7056,-4.8409,-4.9915,-5.0997,-5.1369,-5.1555,-5.1674,-5.0811,-5.0016,-4.9813,-4.9357,-4.9001,-4.9001,-4.9001,-4.9001,-4.9001,-4.9001,-4.9001,-4.9001,-4.9001,-4.9001,-4.9001,-4.9094,-4.9138,-4.9138,-4.932,-4.9428,-4.9428,-4.9488,-4.9428,-4.929,-4.9325,-4.8775,-4.7657,-4.7244,-4.6538,-4.5518,-4.5031,-4.4858,-4.4951,-4.514,-4.5247,-4.5344,-4.5397,-4.5397,-4.5397,-4.5397,-4.5397,-4.5397,-4.5397,-4.5397,-4.5259,-4.4302,-4.4,-4.3741,-4.2206,-4.1705,-4.1602,-4.1067,-4.0912,-4.0912,-4.0912,-4.0912,-4.0912,-4.0912,-4.0912,-4.0912,-4.0912,-4.0912,-4.0912,-4.0912,-4.0912,-4.0912,-4.0912,-4.0912,-4.0912,-4.0912,-4.0912,-4.0912,-4.0912,-4.0912,-4.0912,-4.0912,-4.0912,-4.0912,-4.0912,-4.0912,-4.0912,-4.0912,-4.0912,-4.0761,-4.0459,-3.9804,-3.9213,-3.8675,-3.8076,-3.7614,-3.7301,-3.6775,-3.6435,-3.6337,-3.5442,-3.5098,-3.5253,-3.4871,-3.4948,-4.471,-4.4682,-4.4666,-4.4649,-4.572,-4.6989,-4.7716,-4.9545,-5.1134,-5.12,-5.1775,-5.1843,-5.0422,-5.0118,-4.9864,-4.9154,-4.9018,-4.9001,-4.9001,-4.9001,-4.9001,-4.9001,-4.9001,-4.9001,-4.9001,-4.9001,-4.9001,-4.9001,-4.9001,-4.9001,-4.9001,-4.9138,-4.9199,-4.9199,-4.9398,-4.9518,-4.9488,-4.877,-4.7977,-4.7037,-4.63,-4.5495,-4.4632,-4.4737,-4.4803,-4.4831,-4.5086,-4.5203,-4.522,-4.5344,-4.5397,-4.5397,-4.5397,-4.5397,-4.5397,-4.5397,-4.5397,-4.519,-4.3741,-4.3224,-4.2982,-4.1429,-4.0929,-4.0929,-4.0912,-4.0912,-4.0912,-4.0912,-4.0912,-4.0912,-4.0912,-4.0912,-4.0912,-4.0912,-4.0912,-4.0912,-4.0912,-4.0912,-4.0912,-4.0912,-4.0912,-4.0912,-4.0912,-4.0912,-4.0912,-4.0912,-4.0912,-4.0912,-4.0912,-4.0912,-4.0912,-4.0912,-4.0912,-4.0912,-4.0912,-4.0912,-4.0418,-3.9323,-3.8969,-3.7984,-3.6082,-3.5745,-3.5276,-3.4537,-3.4504,-3.4488,-3.4488,-3.4447,-3.4431,-3.4431,-3.4431,-3.4431,-4.472,-4.4682,-4.4615,-4.4615,-4.5703,-4.6989,-4.775,-4.9238,-5.0608,-5.1083,-5.1014,-5.0676,-5.0185,-4.9695,-4.9289,-4.9035,-4.9001,-4.9001,-4.9001,-4.9001,-4.9001,-4.9001,-4.9001,-4.9001,-4.9001,-4.9001,-4.9001,-4.9001,-4.9001,-4.9001,-4.9001,-4.9032,-4.9063,-4.9063,-4.9124,-4.9155,-4.9155,-4.8511,-4.775,-4.6857,-4.562,-4.4891,-4.4615,-4.4654,-4.4709,-4.4803,-4.4913,-4.4978,-4.5086,-4.522,-4.5274,-4.5274,-4.5371,-4.5397,-4.5397,-4.5397,-4.5397,-4.519,-4.3724,-4.3189,-4.2948,-4.1395,-4.0912,-4.0912,-4.0912,-4.0912,-4.0912,-4.0912,-4.0912,-4.0912,-4.0912,-4.0912,-4.0888,-4.0793,-4.084,-4.0847,-4.068,-4.0776,-4.0871,-4.0793,-4.084,-4.0864,-4.0793,-4.084,-4.0912,-4.0912,-4.0912,-4.0912,-4.0912,-4.0912,-4.0912,-4.0912,-4.0912,-4.0847,-4.0769,-4.0402,-3.9773,-3.8848,-3.7853,-3.6778,-3.5696,-3.5087,-3.4628,-3.426,-3.426,-3.4211,-3.4144,-3.3777,-3.3716,-3.3942,-3.3559,-3.362,-4.4803,-4.4709,-4.4666,-4.4925,-4.6092,-4.7394,-4.8139,-4.9441,-5.0557,-5.076,-5.0422,-5.0016,-4.9746,-4.9323,-4.9001,-4.9001,-4.9001,-4.9001,-4.9001,-4.9001,-4.9001,-4.9001,-4.9001,-4.9001,-4.9001,-4.9001,-4.9001,-4.9001,-4.9001,-4.9001,-4.9001,-4.9001,-4.9001,-4.9001,-4.9001,-4.9001,-4.9001,-4.8107,-4.7089,-4.5991,-4.5055,-4.4615,-4.4615,-4.4615,-4.4654,-4.4737,-4.4776,-4.4858,-4.4923,-4.5086,-4.514,-4.514,-4.5291,-4.5344,-4.5327,-4.5371,-4.5371,-4.512,-4.3699,-4.3189,-4.2948,-4.1395,-4.0912,-4.0912,-4.0912,-4.0912,-4.0912,-4.0912,-4.0912,-4.0888,-4.084,-4.084,-4.0776,-4.0673,-4.068,-4.0704,-4.0534,-4.0468,-4.0402,-4.0303,-4.0212,-4.0095,-3.9995,-4.007,-4.0103,-4.0103,-4.0103,-4.0245,-4.0631,-4.0541,-4.0402,-4.0303,-4.0303,-4.0212,-3.9995,-3.9629,-3.8892,-3.7748,-3.6738,-3.5697,-3.4604,-3.3992,-3.3633,-3.3556,-3.3556,-3.3521,-3.3423,-3.3082,-3.3018,-3.3235,-3.2893,-3.2915,-4.4882,-4.476,-4.4852,-4.5568,-4.6853,-4.8075,-4.8781,-5.0067,-5.0896,-5.0185,-5.0067,-4.9864,0.0,0.0,-4.9035,-4.9018,-4.9001,-4.9001,-4.9001,-4.9001,-4.9001,0.0,0.0,0.0,0.0,0.0,-4.9001,-4.9001,-4.9001,-4.9001,-4.9001,-4.9001,-4.9001,-4.9001,-4.9001,-4.8984,-4.8951,-4.7479,-4.6007,-4.4615,-4.4615,-4.4615,-4.4615,-4.4615,-4.4615,-4.4615,-4.472,-4.4776,-4.4803,-4.4923,-4.4978,-4.5005,-4.5123,-4.5203,-4.522,-4.5371,-4.5318,-4.4997,-4.3708,-4.3199,-4.2923,-4.1423,-4.0905,-4.0888,-4.0912,-4.0912,-4.0912,-4.0912,-4.0912,-4.0864,-4.0721,-4.0697,-4.0673,-4.0534,-4.0485,-4.0444,-4.0444,-3.9986,-3.9542,-3.9542,-3.9086,-3.869,-3.8718,-3.869,-3.869,-3.8718,-3.869,-3.9032,-4.0096,-3.9833,-3.9454,-3.9189,-3.9162,-3.9038,-3.8718,-3.8663,-3.7883,-3.6126,-3.5746,-3.4774,-3.3006,-3.264,-3.2428,-3.2398,-3.2398,-3.2398,-3.2398,-3.2398,-3.2398,-3.2398,-3.2398,-3.2398,-4.5623,-4.5597,-4.5602,-4.6329,-4.7225,-4.7939,-4.8125,-4.8917,-4.9509,-4.9323,-4.9712,-4.9864,0.0,0.0,0.0,-4.9086,-4.9001,0.0,-4.9001,-4.9001,0.0,-4.9001,0.0,-4.9001,-4.9001,-4.9001,-4.9001,-4.9001,-4.9001,-4.9001,-4.9001,-4.9001,-4.9001,-4.9001,-4.9001,-4.8748,-4.8176,-4.6735,-4.5517,-4.4615,-4.4615,-4.4615,-4.4615,-4.4615,-4.4615,-4.4615,-4.4626,-4.4654,-4.4654,-4.482,-4.4858,-4.4886,-4.5113,-4.5203,-4.522,-4.5371,-4.5318,-4.5083,-4.4165,-4.3409,-4.2697,-4.1837,-4.1192,-4.0769,-4.0864,-4.0912,-4.0912,-4.0912,-4.0912,-4.0864,-4.0721,-4.0697,-4.0648,-4.0429,-4.0079,-3.9765,-3.9575,-3.9209,-3.8897,-3.8805,-3.8668,-3.8569,-3.869,-3.8624,-3.8569,-3.869,-3.8446,-3.8463,-3.9032,-3.8989,-3.8908,-3.8843,-3.8816,-3.8761,-3.8585,-3.8149,-3.7409,-3.6381,-3.5788,-3.4847,-3.3326,-3.318,-3.2906,-3.2398,-3.2398,-3.2398,-3.2398,-3.2398,-3.2398,-3.2398,-3.2398,-3.2398,-4.6396,-4.6419,-4.6433,-4.709,-4.7597,-4.7973,-4.8325,-4.8714,-4.9001,-4.9001,-4.9593,0.0,-4.956,-4.9813,0.0,0.0,0.0,0.0,-4.9001,-4.9001,-4.9001,0.0,-4.9001,0.0,-4.9001,-4.9001,-4.9001,-4.9001,-4.9001,-4.9001,-4.9001,-4.9001,-4.9001,-4.9001,-4.9001,-4.8494,-4.7445,-4.6278,-4.5331,-4.4615,-4.4615,-4.4615,-4.4615,-4.4615,-4.4615,-4.4615,-4.4615,-4.4615,-4.4615,-4.4682,-4.4709,-4.472,-4.4923,-4.5032,-4.5059,-4.5247,-4.5194,-4.4964,-4.4607,-4.385,-4.2873,-4.2055,-4.1297,-4.0721,-4.0864,-4.0912,-4.0912,-4.0912,-4.0864,-4.0793,-4.0648,-4.0576,-4.0387,-3.9944,-3.9627,-3.9322,-3.8876,-3.8446,-3.8023,-3.7693,-3.7621,-3.7634,-3.7735,-3.7663,-3.7634,-3.7719,-3.7533,-3.749,-3.7706,-3.7966,-3.808,-3.7982,-3.7953,-3.7867,-3.7634,-3.7326,-3.6805,-3.6058,-3.5686,-3.5028,-3.3921,-3.3875,-3.3537,-3.2844,-3.2844,-3.269,-3.2398,-3.2398,-3.2398,-3.2398,-3.2398,-3.2398,-4.7221,-4.7254,-4.7313,-4.7928,-4.8054,-4.8193,-4.8849,-4.9001,-4.9001,-4.9001,0.0,-5.0084,-5.0084,-5.0084,-5.0084,-5.0084,0.0,-4.9001,-4.9001,-4.9001,-4.9001,-4.9001,-4.9001,-4.9001,-4.9001,-4.9001,-4.9001,-4.9001,-4.9001,-4.9001,-4.9001,-4.9001,-4.9001,-4.9001,-4.8815,-4.8088,-4.6802,-4.5974,-4.5229,-4.4615,-4.4615,-4.4615,-4.4615,-4.4615,-4.4615,-4.4615,-4.4615,-4.4615,-4.4615,-4.4615,-4.4615,-4.4598,-4.4765,-4.4803,-4.4831,-4.5113,-4.5032,-4.4831,-4.4951,-4.4293,-4.3237,-4.2236,-4.1403,-4.0793,-4.0834,-4.0847,-4.0871,-4.0871,-4.0728,-4.0558,-4.0419,-4.0221,-3.9918,-3.9259,-3.9001,-3.881,-3.8294,-3.7709,-3.7134,-3.66,-3.6492,-3.6492,-3.6492,-3.6492,-3.6492,-3.6492,-3.6492,-3.6492,-3.6492,-3.6952,-3.7194,-3.6969,-3.6938,-3.6816,-3.6523,-3.6492,-3.6245,-3.566,-3.5614,-3.5337,-3.4659,-3.4643,-3.4305,-3.3567,-3.3552,-3.326,-3.2675,-3.2675,-3.2675,-3.2675,-3.2675,-3.2675,-4.8169,-4.8126,-4.809,-4.8795,-4.889,-4.8849,-4.8968,-4.9001,0.0,0.0,-4.9593,-5.0084,-5.0084,-5.0084,-5.0084,-5.0084,-4.9475,-4.9001,-4.9001,-4.9001,-4.9001,0.0,-4.9001,-4.9001,-4.9001,-4.9001,-4.9001,-4.9001,-4.9001,-4.9001,-4.9001,-4.9001,-4.9001,-4.9001,-4.7817,-4.7056,-4.6786,-4.5449,-4.4733,-4.4615,-4.4615,-4.4615,-4.4615,-4.4615,-4.4615,-4.4615,-4.4615,-4.4615,-4.4615,-4.4615,-4.4615,-4.4598,-4.4765,-4.4803,-4.4831,-4.5113,-4.5032,-4.4831,-4.4951,-4.4293,-4.3295,-4.2617,-4.1869,-4.1188,-4.0722,-4.0631,-4.0721,-4.0721,-4.0353,-3.9927,-3.9791,-3.9279,-3.875,-3.8518,-3.8084,-3.7695,-3.7578,-3.7088,-3.6647,-3.6523,-3.6492,-3.6492,-3.6492,-3.6492,-3.6492,-3.6492,-3.6492,-3.6492,-3.6492,-3.6585,-3.6647,-3.6585,-3.6585,-3.6554,-3.6492,-3.6492,-3.6445,-3.6322,-3.6322,-3.6014,-3.5367,-3.5337,-3.5013,-3.4335,-3.432,-3.4258,-3.415,-3.415,-3.415,-3.415,-3.415,-3.415,-4.897,-4.9059,-4.9009,-4.9295,-4.9229,-4.9107,-4.9107,0.0,0.0,0.0,-4.9593,-5.0084,-5.0084,-5.0084,0.0,-5.0084,0.0,0.0,0.0,0.0,0.0,0.0,-4.9001,-4.9001,-4.9001,-4.9001,-4.9001,-4.9001,-4.9001,-4.9001,-4.9001,-4.9001,-4.8832,-4.8443,-4.7378,-4.6616,-4.6227,-4.5156,-4.4615,-4.4615,-4.4615,-4.4615,-4.4615,-4.4615,-4.4615,-4.4615,-4.4615,-4.4615,-4.4615,-4.4615,-4.4615,-4.4615,-4.4682,-4.4709,-4.4737,-4.5005,-4.494,-4.4665,-4.453,-4.4024,-4.3275,-4.2268,-4.1482,-4.0851,-4.0263,-4.0016,-3.9885,-3.9697,-3.9542,-3.9332,-3.9076,-3.8695,-3.8306,-3.7924,-3.7371,-3.6922,-3.6922,-3.6693,-3.6492,-3.6492,-3.6492,-3.6492,-3.6492,-3.6492,-3.6492,-3.6492,-3.6492,-3.6492,-3.6492,-3.6492,-3.6492,-3.6492,-3.6492,-3.6492,-3.6492,-3.6492,-3.6492,-3.6492,-3.6492,-3.6353,-3.6014,-3.6014,-3.5722,-3.5044,-3.5028,-3.4859,-3.4505,-3.4505,-3.4505,-3.4505,-3.4505,-3.4505,-4.9658,-4.9737,-4.9679,-4.956,-4.9381,-4.926,-4.9199,-4.9107,0.0,0.0,-4.9458,-4.9898,-5.005,0.0,-4.9915,0.0,-4.9475,0.0,0.0,0.0,0.0,0.0,0.0,0.0,-4.9001,-4.9001,-4.9001,-4.9001,-4.8849,-4.8765,-4.8765,-4.8765,-4.8443,-4.7699,-4.6955,-4.6295,-4.572,-4.4987,-4.4615,-4.4615,-4.4615,-4.4615,-4.4615,-4.4615,-4.4615,-4.4615,-4.4615,-4.4615,-4.4615,-4.4615,-4.4615,-4.4615,-4.4615,-4.4615,-4.4626,-4.4803,-4.4648,-4.431,-4.3985,-4.3601,-4.3084,-4.1827,-4.1075,-4.0552,-3.9841,-3.945,-3.9199,-3.8783,-3.8668,-3.8629,-3.8362,-3.8108,-3.778,-3.7312,-3.6846,-3.6492,-3.6492,-3.6492,-3.6492,-3.6492,-3.6492,-3.6492,-3.6492,-3.6492,-3.6492,-3.6492,-3.6492,-3.6492,-3.6492,-3.6492,-3.6492,-3.6492,-3.6492,-3.6492,-3.6492,-3.6492,-3.6492,-3.6492,-3.6492,-3.6492,-3.6492,-3.6492,-3.6245,-3.5707,-3.5691,-3.546,-3.4936,-3.4936,-3.4936,-3.4936,-3.4936,-3.4936,-4.9947,-4.986,-4.9708,-4.9679,-4.956,-4.9411,-4.9229,0.0,0.0,-4.9032,-4.9052,-4.9306,-4.9965,-4.9543,-4.9323,-4.9982,0.0,-4.9001,0.0,0.0,0.0,0.0,0.0,0.0,-4.9001,-4.9001,-4.9001,-4.9001,-4.8392,-4.799,-4.799,-4.799,-4.7665,-4.6921,-4.6194,-4.5771,-4.5703,-4.4987,-4.4615,-4.4615,-4.4615,-4.4615,-4.4615,-4.4615,-4.4615,-4.4615,-4.4615,-4.4615,-4.4615,-4.4615,-4.4615,-4.4615,-4.4615,-4.4615,-4.457,-4.4423,-4.403,-4.3588,-4.341,-4.3031,-4.2473,-4.1724,-4.1405,-4.1077,-3.9735,-3.9414,-3.9333,-3.8681,-3.8137,-3.7706,-3.7677,-3.7193,-3.6662,-3.6616,-3.6554,-3.6492,-3.6492,-3.6492,-3.6492,-3.6492,-3.6492,-3.6492,-3.6492,-3.6492,-3.6492,-3.6492,-3.6492,-3.6492,-3.6492,-3.6492,-3.6492,-3.6492,-3.6492,-3.6492,-3.6492,-3.6492,-3.6492,-3.6492,-3.6492,-3.6492,-3.6492,-3.6492,-3.6461,-3.6399,-3.6399,-3.6368,-3.6307,-3.6307,-3.6307,-3.6307,-3.6307,-3.6307,-5.0011,-4.9935,-4.9889,-4.9889,-4.9755,-4.959,-4.953,0.0,-4.8519,-4.8459,-4.8386,-4.8443,-4.8731,-4.89,-4.9103,-4.939,0.0,0.0,0.0,0.0,0.0,0.0,-4.9001,0.0,0.0,-4.9001,-4.9001,-4.9001,-4.8342,-4.7733,-4.7259,-4.7242,-4.6904,-4.616,-4.5855,-4.5483,-4.5026,-4.475,-4.4615,-4.4615,-4.4615,-4.4615,-4.4615,-4.4615,-4.4615,-4.4615,-4.4615,-4.4615,-4.4615,-4.4615,-4.4615,-4.4542,-4.4105,-4.4093,-4.4241,-4.3844,-4.3502,-4.3232,-4.2849,-4.2364,-4.1804,-4.1125,-4.087,-4.0695,-3.9722,-3.903,-3.8486,-3.8036,-3.7583,-3.7194,-3.6997,-3.6708,-3.6492,-3.6492,-3.6492,-3.6492,-3.6492,-3.6492,-3.6492,-3.6492,-3.6492,-3.6492,-3.6492,-3.6492,-3.6492,-3.6492,-3.6492,-3.6492,-3.6492,-3.6492,-3.6492,-3.6492,-3.6492,-3.6492,-3.6492,-3.6492,-3.6492,-3.6492,-3.6492,-3.6492,-3.6492,-3.6492,-3.6492,-3.6492,-3.6492,-3.6492,-3.6492,-3.6492,-3.6492,-3.6492,-3.6492,-3.6492,-5.0011,-5.0011,-5.0011,-5.0011,-4.9889,-4.9732,0.0,0.0,-4.8158,-4.7848,-4.7713,-4.7678,-4.7885,-4.8342,-4.8748,-4.8968,0.0,-4.9001,-4.9001,0.0,0.0,0.0,0.0,-4.9001,-4.9001,-4.9001,-4.8917,-4.8697,-4.8003,-4.7259,-4.6515,-4.6261,-4.5906,-4.5382,-4.5365,-4.5111,-4.4615,-4.4615,-4.4615,-4.4615,-4.4615,-4.4615,-4.4615,-4.4615,-4.4615,-4.4615,-4.4615,-4.4615,-4.457,-4.4367,-4.4265,-4.4207,-4.3482,-4.3456,-4.3759,-4.3262,-4.2958,-4.2726,-4.2269,-4.1705,-4.1125,-4.0646,-4.0489,-4.0397,-3.992,-3.9166,-3.8321,-3.7679,-3.7188,-3.6816,-3.6554,-3.6492,-3.6492,-3.6492,-3.6492,-3.6492,-3.6492,-3.6492,-3.6492,-3.6492,-3.6492,-3.6492,-3.6492,-3.6492,-3.6492,-3.6492,-3.6492,-3.6492,-3.6492,-3.6492,-3.6492,-3.6492,-3.6492,-3.6492,-3.6492,-3.6492,-3.6492,-3.6492,-3.6492,-3.6492,-3.6492,-3.6492,-3.6492,-3.6492,-3.6492,-3.6492,-3.6492,-3.6492,-3.6492,-3.6492,-3.6492,-3.6492,-5.0011,-5.0011,-5.0011,-5.0011,-5.0011,-4.9746,0.0,0.0,-4.83,-4.7231,-4.702,-4.7182,-4.7784,-4.7889,-4.8142,-4.8883,-4.9001,0.0,-4.9001,0.0,0.0,0.0,-4.9001,-4.9001,-4.9001,-4.9001,-4.8714,-4.7956,-4.7225,-4.6481,-4.5754,-4.501,-4.4632,-4.4615,-4.4615,-4.4615,-4.4615,-4.4615,-4.4615,-4.4615,-4.4615,-4.4615,-4.4615,-4.4615,-4.4615,-4.4615,-4.4615,-4.4615,-4.4542,-4.381,-4.3512,-4.3436,-4.2769,-4.2771,-4.3066,-4.2741,-4.2412,-4.2077,-4.172,-4.1122,-4.0489,-4.0489,-4.0489,-4.0489,-4.0489,-4.0013,-3.9216,-3.7877,-3.7015,-3.6492,-3.6492,-3.6492,-3.6492,-3.6492,-3.6492,-3.6492,-3.6492,-3.6492,-3.6492,-3.6492,-3.6492,-3.6492,-3.6492,-3.6492,-3.6492,-3.6492,-3.6492,-3.6492,-3.6492,-3.6492,-3.6492,-3.6492,-3.6492,-3.6492,-3.6492,-3.6492,-3.6492,-3.6492,-3.6492,-3.6492,-3.6492,-3.6492,-3.6492,-3.6492,-3.6492,-3.6492,-3.6492,-3.6492,-3.6492,-3.6492,-3.6492,-3.6492,-5.0011,-5.0011,-5.0011,-5.0011,-5.0011,-4.9775,-4.8925,0.0,-4.7603,-4.6696,-4.638,-4.6311,-4.6491,-4.7285,-4.7973,-4.8193,-4.868,0.0,0.0,0.0,0.0,-4.9001,-4.9001,-4.9001,-4.9001,-4.8545,-4.8142,-4.7906,-4.6752,-4.5957,-4.572,-4.4993,-4.4615,-4.4615,-4.4615,-4.4615,-4.4615,-4.4615,-4.4615,-4.4615,-4.4615,-4.4615,-4.4615,-4.4615,-4.4615,-4.4615,-4.4615,-4.4615,-4.4542,-4.381,-4.3512,-4.3393,-4.2269,-4.2061,-4.2397,-4.2029,-4.1835,-4.1753,-4.1621,-4.129,-4.0851,-4.0593,-4.0489,-4.0489,-4.0489,-4.0028,-3.9339,-3.8446,-3.8031,-3.7769,-3.7292,-3.7184,-3.7061,-3.6599,-3.6492,-3.6492,-3.6492,-3.6492,-3.6492,-3.6492,-3.6492,-3.6492,-3.6492,-3.6492,-3.6492,-3.6492,-3.6492,-3.6492,-3.6492,-3.6492,-3.6492,-3.6492,-3.6492,-3.6492,-3.6492,-3.6492,-3.6492,-3.6492,-3.6492,-3.6492,-3.6492,-3.6492,-3.6492,-3.6492,-3.6492,-3.6492,-3.6492,-3.6492,-3.6492,-3.6492,-3.6492,-3.6492,0.0,-5.0011,-5.0011,-5.0011,-4.9786,-4.9327,0.0,0.0,-4.6914,-4.6062,-4.5744,-4.5697,-4.5864,-4.6593,-4.7319,-4.7834,-4.8308,-4.8697,0.0,0.0,0.0,-4.9001,-4.8765,-4.8486,-4.8236,-4.7781,-4.7241,-4.6744,-4.6064,-4.5585,-4.5297,-4.4869,-4.4615,-4.4615,-4.4615,-4.4615,-4.4615,-4.4615,-4.4615,-4.4615,-4.4615,-4.4615,-4.4615,-4.4615,-4.4615,-4.4615,-4.4615,-4.444,0.0,-4.3423,-4.2984,-4.2645,-4.1558,-4.1358,-4.172,-4.1621,-4.1588,-4.1588,-4.1588,-4.139,-4.1037,-4.0627,-4.0489,-4.0489,-4.0489,-4.0028,-3.9398,-3.8982,-3.8708,-3.8415,-3.8,-3.7877,-3.7769,-3.7353,-3.7246,-3.7246,-3.7246,-3.7046,-3.6876,-3.6876,-3.6661,-3.6492,-3.6492,-3.6492,-3.6492,-3.6492,-3.6492,-3.6492,-3.6492,-3.6492,-3.6492,-3.6492,-3.6492,-3.6492,-3.6492,-3.6492,-3.6492,-3.6492,-3.6492,-3.6492,-3.6492,-3.6492,-3.6492,-3.6492,-3.6492,-3.6492,-3.6492,-3.6492,-3.6492,-3.6492,-3.6492,-3.6492,0.0,-5.0011,-5.0011,-5.0011,-4.9407,-4.8603,0.0,0.0,0.0,0.0,-4.5194,-4.5319,-4.575,-4.5852,-4.6304,-4.7597,-4.7825,-4.8064,0.0,-4.8861,0.0,0.0,-4.8172,-4.7485,-4.6806,-4.6639,-4.6042,-4.4799,-4.5181,-4.5183,-4.4547,-4.4514,-4.4514,-4.4514,-4.457,-4.4615,-4.4615,-4.4615,-4.4615,-4.4615,-4.4615,-4.4615,-4.4615,-4.4542,-4.4514,-4.4514,-4.4468,-4.4076,-4.3376,-4.2707,-4.2046,-4.1426,-4.0783,-4.073,-4.1104,-4.1456,-4.1588,-4.1588,-4.1588,-4.139,-4.107,-4.0627,-4.0489,-4.0489,-4.0489,-4.0059,-3.9551,-3.9551,-3.9105,-3.8646,-3.86,-3.8585,-3.8569,-3.8523,-3.8508,-3.8508,-3.8508,-3.8015,-3.7569,-3.7569,-3.7061,-3.6615,-3.6569,-3.6569,-3.6538,-3.6507,-3.6492,-3.6492,-3.6492,-3.6492,-3.6492,-3.6492,-3.6492,-3.6492,-3.6492,-3.6492,-3.6492,-3.6492,-3.6492,-3.6492,-3.6492,-3.6492,-3.6492,-3.6492,-3.6492,-3.6492,-3.6492,-3.6492,-3.6492,-3.6492,-3.6492,-3.6492,-5.0011,0.0,-5.0011,-5.0011,-4.9407,-4.8603,0.0,0.0,0.0,0.0,0.0,0.0,0.0,0.0,-4.602,-4.6904,-4.7072,-4.7313,-4.8061,-4.7655,0.0,-4.6602,-4.6405,-4.6012,-4.5359,-4.4785,-4.4512,-4.4705,-4.3805,-4.3394,-4.3752,-4.3752,-4.3752,-4.3752,-4.431,-4.4615,-4.4615,-4.4615,-4.4615,-4.4615,-4.4615,-4.4615,-4.457,-4.4018,-4.3752,-4.3735,-4.3213,-4.2909,-4.2676,-4.2013,-4.1641,-4.1426,-4.0783,-4.0558,-4.073,-4.1357,-4.1588,-4.1588,-4.1588,-4.1555,-4.1357,-4.073,-4.0489,-4.0489,-4.0489,-4.0382,-4.0259,-4.0259,-4.0136,-3.9905,-3.9382,-3.9244,-3.9154,-3.8631,-3.8508,-3.8508,-3.8508,-3.8385,-3.8262,-3.8262,-3.8138,-3.7877,-3.7353,-3.7261,-3.7092,-3.6569,-3.6492,-3.6492,-3.6492,-3.6492,-3.6492,-3.6492,-3.6492,-3.6492,-3.6492,-3.6492,-3.6492,-3.6492,-3.6492,-3.6492,-3.6492,-3.6492,-3.6492,-3.6492,-3.6492,-3.6492,-3.6492,-3.6492,-3.6492,-3.6492,-3.6492,-3.6492,-5.0011,-5.0011,-5.0011,-5.0011,-4.9148,-4.8189,-4.7775,0.0,0.0,0.0,0.0,0.0,0.0,0.0,0.0,0.0,-4.5879,-4.6192,0.0,0.0,-4.623,-4.5825,-4.5242,-4.456,-4.3892,-4.3412,-4.3183,-4.3231,-4.2779,-4.2676,-4.3015,-4.3045,-4.3166,-4.3482,-4.3885,-4.4253,-4.4615,-4.4615,-4.4615,-4.4615,-4.4615,-4.4412,-4.4076,-4.3676,-4.3317,-4.3015,-4.2676,-4.2332,-4.2013,-4.1641,-4.1343,-4.099,-4.0646,-4.0489,-4.0558,-4.1156,-4.1456,-4.1588,-4.1423,-4.1256,-4.1021,-4.0627,-4.0489,-4.0489,-4.0489,-4.0489,-4.0489,-4.0489,-4.0489,-4.0413,-4.0043,-3.9951,-3.9859,-3.949,-3.9431,-3.9431,-3.9431,-3.92,-3.897,-3.897,-3.8723,-3.8385,-3.8031,-3.7969,-3.7846,-3.7477,-3.7153,-3.6953,-3.6953,-3.6676,-3.6492,-3.6492,-3.6492,-3.6492,-3.6492,-3.6492,-3.6492,-3.6492,-3.6492,-3.6492,-3.6492,-3.6492,-3.6492,-3.6492,-3.6492,-3.6492,-3.6492,-3.6492,-3.6492,-3.6492,-3.6492,-3.6492,-5.0011,-5.0011,-5.0011,-5.0011,-4.8855,-4.7689,-4.7689,0.0,0.0,0.0,0.0,0.0,0.0,0.0,0.0,0.0,0.0,-4.4928,-4.6017,-4.5679,-4.5261,-4.5182,-4.4104,-4.3102,-4.2442,-4.2252,-4.1981,-4.1525,-4.1917,-4.2237,-4.2332,-4.2363,-4.2614,-4.3166,-4.3376,-4.381,-4.444,-4.4542,-4.4542,-4.444,-4.444,-4.4047,-4.3363,-4.3358,-4.3056,-4.2509,-4.2526,-4.2187,-4.1657,-4.1547,-4.1195,-4.0643,-4.0536,-4.0489,-4.0558,-4.0969,-4.129,-4.1489,-4.1205,-4.0833,-4.0489,-4.0489,-4.0489,-4.0489,-4.0489,-4.0489,-4.0489,-4.0489,-4.0489,-4.0489,-4.0489,-4.0489,-4.0489,-4.0489,-4.0489,-4.0489,-4.0489,-4.0043,-3.9644,-3.9644,-3.9182,-3.8785,-3.8677,-3.8662,-3.8631,-3.8523,-3.8015,-3.7646,-3.7646,-3.7153,-3.6799,-3.6799,-3.6707,-3.6645,-3.6645,-3.6553,-3.6492,-3.6492,-3.6492,-3.6492,-3.6492,-3.6492,-3.6492,-3.6492,-3.6492,-3.6492,-3.6492,-3.6492,-3.6492,-3.6492,-3.6492,-3.6492,-5.0011,-5.0011,-5.0011,-5.0011,-4.8855,-4.7689,-4.7689,0.0,0.0,0.0,0.0,0.0,0.0,0.0,-4.3926,0.0,0.0,-4.3706,-4.3318,-4.3164,-4.2885,-4.2295,-4.2047,-4.1639,-4.0897,-4.0811,-4.099,-4.1459,-4.1057,-4.1057,-4.1608,-4.1641,-4.1706,-4.1804,-4.2923,-4.3542,-4.3676,-4.4281,-4.4281,-4.3676,-4.3676,-4.3303,-4.2661,-4.2702,-4.2676,-4.2574,-4.2587,-4.2514,-4.2376,-4.1824,-4.1522,-4.137,-4.0735,-4.0489,-4.0558,-4.0969,-4.1122,-4.1171,-4.1138,-4.0833,-4.0489,-4.0489,-4.0489,-4.0489,-4.0489,-4.0489,-4.0489,-4.0489,-4.0489,-4.0489,-4.0489,-4.0489,-4.0489,-4.0489,-4.0489,-4.0489,-4.0489,-4.0413,-4.0336,-4.0336,-4.0259,-3.9997,-3.9428,-3.9336,-3.917,-3.86,-3.8415,-3.8354,-3.8354,-3.8262,-3.82,-3.82,-3.7692,-3.7353,-3.7353,-3.683,-3.6492,-3.6492,-3.6492,-3.6492,-3.6492,-3.6492,-3.6492,-3.6492,-3.6492,-3.6492,-3.6492,-3.6492,-3.6492,-3.6492,-3.6492,-3.6492,-5.0011,-5.0011,-5.0011,-5.0011,-4.8855,-4.7689,-4.7689,0.0,0.0,0.0,0.0,0.0,0.0,0.0,-4.2953,-4.2823,-4.2661,-4.2567,-4.2592,-4.2294,-4.1955,-4.1632,-4.1263,-4.0858,-4.052,-4.0489,-4.0627,-4.0938,-4.0681,-4.0612,-4.0922,-4.0956,-4.1125,-4.1492,-4.2109,-4.2583,-4.2953,-4.3663,-4.3839,-4.3512,-4.3512,-4.3166,-4.2572,-4.2592,-4.2598,-4.2622,-4.2608,-4.2602,-4.2586,-4.2279,-4.1925,-4.1571,-4.1232,-4.0843,-4.0558,-4.0969,-4.0969,-4.0799,-4.1037,-4.0833,-4.0489,-4.0489,-4.0489,-4.0489,-4.0489,-4.0489,-4.0489,-4.0489,-4.0489,-4.0489,-4.0489,-4.0489,-4.0489,-4.0489,-4.0489,-4.0489,-4.0489,-4.0489,-4.0489,-4.0489,-4.0489,-4.0397,-4.0074,-4.0028,-3.992,-3.9613,-3.9259,-3.9046,-3.9046,-3.8739,-3.8508,-3.8508,-3.8231,-3.8046,-3.8046,-3.743,-3.6892,-3.6507,-3.6492,-3.6492,-3.6492,-3.6492,-3.6492,-3.6492,-3.6492,-3.6492,-3.6492,-3.6492,-3.6492,-3.6492,-3.6492,-3.6692,-5.0011,-5.0011,-4.9959,-4.9769,-4.8689,-4.7689,-4.7689,0.0,0.0,0.0,0.0,0.0,0.0,-4.3152,-4.1961,-4.1422,-4.134,-4.1524,-4.2048,-4.1678,-4.134,-4.134,-4.0828,-4.0489,-4.0489,-4.0489,-4.0489,-4.0489,-4.0489,-4.0489,-4.0489,-4.0489,-4.0749,-4.1243,-4.1426,-4.1739,-4.2269,-4.2923,-4.3196,-4.3045,-4.3196,-4.2941,-4.2375,-4.2532,-4.2689,-4.2833,-4.3002,-4.3063,-4.3063,-4.2894,-4.2525,-4.2032,-4.1724,-4.1155,-4.0524,-4.0833,-4.0765,-4.0558,-4.0969,-4.0833,-4.0524,-4.0627,-4.0558,-4.0489,-4.0489,-4.0489,-4.0489,-4.0489,-4.0489,-4.0489,-4.0489,-4.0489,-4.0489,-4.0489,-4.0489,-4.0489,-4.0489,-4.0489,-4.0489,-4.0489,-4.0489,-4.0489,-4.0489,-4.0489,-4.0489,-4.0489,-4.0043,-3.9721,-3.9721,-3.9308,-3.8985,-3.8985,-3.8846,-3.8677,-3.8523,-3.8031,-3.7523,-3.6999,-3.6661,-3.6492,-3.6492,-3.6492,-3.6492,-3.6492,-3.6492,-3.6492,-3.6492,-3.6661,-3.6722,-3.6738,-3.6892,-3.723,-5.0011,-5.0011,-4.9821,-4.9068,-4.8275,0.0,-4.7689,-4.6165,0.0,0.0,0.0,0.0,0.0,-4.2443,-4.1406,-4.0705,-4.0566,-4.0597,-4.0628,-4.0597,-4.0566,-4.0566,-4.052,-4.0489,-4.0489,-4.0489,-4.0489,-4.0489,-4.0489,-4.0489,-4.0489,-4.0489,-4.0524,-4.0593,-4.1192,-4.1525,-4.1575,-4.2237,-4.2269,-4.1641,-4.2269,-4.2251,-4.1688,-4.232,-4.2952,-4.3578,-4.4209,-4.4471,-4.4425,-4.3793,-4.3516,-4.3347,-4.2078,-4.1155,-4.0489,-4.0524,-4.0524,-4.0558,-4.0969,-4.0833,-4.0558,-4.0935,-4.0799,-4.0489,-4.0489,-4.0489,-4.0489,-4.0489,-4.0489,-4.0489,-4.0489,-4.0489,-4.0489,-4.0489,-4.0489,-4.0489,-4.0489,-4.0489,-4.0489,-4.0489,-4.0489,-4.0489,-4.0489,-4.0489,-4.0489,-4.0489,-4.0459,-4.0428,-4.0428,-4.0382,-4.0351,-4.0351,-3.9782,-3.92,-3.8554,-3.8462,-3.8415,-3.8369,-3.7184,-3.6492,-3.6492,-3.6492,-3.6492,-3.6492,-3.6492,-3.6492,-3.6492,-3.7123,-3.743,-3.7446,-3.8077,-3.8385,-5.0011,-5.0011,-4.9942,-4.9631,0.0,0.0,0.0,0.0,0.0,-4.4708,-4.41,0.0,0.0,0.0,-4.1423,-4.0953,-4.0662,-4.0489,-4.0489,-4.0489,-4.0489,-4.0489,-4.0489,-4.0489,-4.0489,-4.0489,-4.0489,-4.0489,-4.0489,-4.0489,-4.0489,-4.0489,-4.0489,-4.0489,-4.0749,-4.087,-4.087,-4.1558,-4.1558,-4.0904,-4.1558,-4.2007,-4.2232,-4.2494,-4.3187,-4.4255,-4.4502,-4.461,-4.4594,-4.4348,-4.3994,-4.347,-4.2109,-4.1155,-4.0489,-4.0489,-4.0489,-4.0524,-4.0662,-4.0627,-4.0539,-4.0696,-4.0627,-4.0489,-4.0489,-4.0489,-4.0489,-4.0489,-4.0489,-4.0489,-4.0489,-4.0489,-4.0489,-4.0489,-4.0489,-4.0489,-4.0489,-4.0489,-4.0489,-4.0489,-4.0489,-4.0489,-4.0489,-4.0489,-4.0489,-4.0489,-4.0489,-4.0489,-4.0489,-4.0489,-4.0489,-4.0489,-4.0259,-3.9844,-3.92,-3.9105,-3.8921,-3.8539,-3.8031,-3.7738,-3.7738,-3.7338,-3.7323,-3.7738,-3.7338,-3.7323,-3.7754,-3.8,-3.8123,-3.8138,-3.8385,-3.8739,-5.0011,-5.0011,-4.989,0.0,0.0,0.0,0.0,0.0,0.0,0.0,-4.3634,0.0,-4.2238,0.0,-4.1621,-4.1171,-4.0867,-4.0662,-4.0524,-4.0489,-4.0489,-4.0489,-4.0489,-4.0489,-4.0489,-4.0489,-4.0489,-4.0489,-4.0489,-4.0489,-4.0489,-4.0489,-4.0489,-4.0489,-4.0489,-4.0489,-4.0489,-4.0972,-4.0956,-4.0489,-4.0956,-4.1669,-4.2602,-4.2602,-4.3325,-4.461,-4.461,-4.461,-4.461,-4.461,-4.4101,-4.3193,-4.2032,-4.1155,-4.0489,-4.0489,-4.0489,-4.0524,-4.0662,-4.0593,-4.0524,-4.0662,-4.0593,-4.0489,-4.0489,-4.0489,-4.0489,-4.0489,-4.0489,-4.0489,-4.0489,-4.0489,-4.0489,-4.0489,-4.0489,-4.0489,-4.0489,-4.0489,-4.0489,-4.0489,-4.0489,-4.0489,-4.0489,-4.0489,-4.0489,-4.0489,-4.0489,-4.0489,-4.0489,-4.0489,-4.0489,-4.0489,-4.0489,-4.0305,-3.9844,-3.9797,-3.9613,-3.9136,-3.9121,-3.8954,-3.8523,-3.8061,-3.8046,-3.8492,-3.8061,-3.8046,-3.8508,-3.8723,-3.8831,-3.8831,-3.9013,-3.94,-5.0011,-5.0011,-4.9631,0.0,0.0,0.0,0.0,0.0,0.0,-4.3396,-4.2912,-4.2508,-4.2174,-4.2109,-4.1883,-4.1239,-4.1088,-4.0969,-4.0558,-4.0489,-4.0489,-4.0489,-4.0489,-4.0489,-4.0489,-4.0489,-4.0489,-4.0489,-4.0489,-4.0489,-4.0489,-4.0489,-4.0489,-4.0489,-4.0489,-4.0489,-4.0489,-4.0489,-4.0489,-4.0489,-4.0489,-4.1212,-4.2602,-4.2602,-4.3325,-4.461,-4.461,-4.461,-4.461,-4.461,-4.3787,-4.2525,-4.1863,-4.1155,-4.0489,-4.0489,-4.0489,-4.0558,-4.0969,-4.0833,-4.0558,-4.0969,-4.0833,-4.0489,-4.0489,-4.0489,-4.0489,-4.0489,-4.0489,-4.0489,-4.0489,-4.0489,-4.0489,-4.0489,-4.0489,-4.0489,-4.0489,-4.0489,-4.0489,-4.0489,-4.0489,-4.0489,-4.0489,-4.0489,-4.0489,-4.0489,-4.0489,-4.0489,-4.0489,-4.0489,-4.0489,-4.0489,-4.0489,-4.0489,-4.0489,-4.0489,-4.0489,-4.0489,-4.0489,-3.989,-3.8585,-3.8523,-3.8523,-3.8539,-3.8523,-3.8523,-3.8539,-3.92,-3.949,-3.9521,-4.0182,-4.0489,-5.0011,-5.0011,0.0,-4.8723,0.0,0.0,0.0,0.0,0.0,0.0,-4.2711,-4.2571,-4.246,-4.227,-4.2045,-4.1851,-4.139,-4.107,-4.0935,-4.0696,-4.0489,-4.0489,-4.0489,-4.0489,-4.0489,-4.0489,-4.0489,-4.0489,-4.0489,-4.0489,-4.0489,-4.0489,-4.0489,-4.0489,-4.0489,-4.0489,-4.0489,-4.0489,-4.0489,-4.0489,-4.0489,-4.1001,-4.1909,-4.2386,-4.3063,-4.3932,-4.4409,-4.461,-4.4579,-4.4101,-4.3131,-4.1878,-4.1678,-4.1155,-4.0489,-4.0489,-4.0489,-4.0524,-4.0627,-4.0593,-4.0524,-4.0627,-4.0593,-4.0489,-4.0489,-4.0489,-4.0489,-4.0489,-4.0489,-4.0489,-4.0489,-4.0489,-4.0489,-4.0489,-4.0489,-4.0489,-4.0489,-4.0489,-4.0489,-4.0489,-4.0489,-4.0489,-4.0489,-4.0489,-4.0489,-4.0489,-4.0489,-4.0489,-4.0489,-4.0489,-4.0489,-4.0489,-4.0489,-4.0489,-4.0489,-4.0489,-4.0489,-4.0489,-4.0489,-4.032,-3.9905,-3.9428,-3.9447,-3.989,-3.9428,-3.9428,-3.9905,-4.0105,-4.0197,-4.0197,-4.0397,-4.0489,-5.0011,-5.0011,0.0,-4.862,-4.8017,-4.7258,-4.5546,0.0,0.0,0.0,-4.2602,-4.2602,-4.2602,-4.2429,-4.227,-4.2109,-4.1753,-4.139,-4.1138,-4.0901,-4.0696,-4.0524,-4.0489,-4.0489,-4.0489,-4.0489,-4.0489,-4.0489,-4.0489,-4.0489,-4.0489,-4.0489,-4.0489,-4.0489,-4.0489,-4.0489,-4.0489,-4.0489,-4.0489,-4.0489,-4.0489,-4.072,-4.1201,-4.1894,-4.2571,-4.3217,-4.3618,-4.3802,-4.3741,-4.3063,-4.2325,-4.1571,-4.1294,-4.0909,-4.0489,-4.0489,-4.0489,-4.0489,-4.0489,-4.0489,-4.0489,-4.0489,-4.0489,-4.0489,-4.0489,-4.0489,-4.0489,-4.0489,-4.0489,-4.0489,-4.0489,-4.0489,-4.0489,-4.0489,-4.0489,-4.0489,-4.0489,-4.0489,-4.0489,-4.0489,-4.0489,-4.0489,-4.0489,-4.0489,-4.0489,-4.0489,-4.0489,-4.0489,-4.0489,-4.0489,-4.0489,-4.0489,-4.0489,-4.0489,-4.0489,-4.0489,-4.0489,-4.0489,-4.0489,-4.0489,-4.0489,-4.0105,-4.0074,-4.0489,-4.009,-4.009,-4.0489,-4.0489,-4.0385,-4.0176,-4.0385,-4.0385,-5.0011,0.0,0.0,-4.8155,-4.7689,0.0,-4.455,-4.3663,-4.3232,-4.2711,0.0,-4.2602,-4.2602,-4.2602,-4.2508,-4.2206,-4.2109,-4.1883,-4.1239,-4.1138,-4.0969,-4.0558,-4.0489,-4.0489,-4.0489,-4.0489,-4.0489,-4.0489,-4.0489,-4.0489,-4.0489,-4.0489,-4.0489,-4.0489,-4.0489,-4.0489,-4.0489,-4.0489,-4.0489,-4.0489,-4.0489,-4.0489,-4.052,-4.1278,-4.1971,-4.2602,-4.2602,-4.2571,-4.2463,-4.1848,-4.1555,-4.1432,-4.0751,-4.0489,-4.0489,-4.0489,-4.0489,-4.0489,-4.0489,-4.0489,-4.0489,-4.0489,-4.0489,-4.0489,-4.0489,-4.0489,-4.0489,-4.0489,-4.0489,-4.0489,-4.0489,-4.0489,-4.0489,-4.0489,-4.0489,-4.0489,-4.0489,-4.0489,-4.0489,-4.0489,-4.0489,-4.0489,-4.0489,-4.0489,-4.0489,-4.0489,-4.0489,-4.0489,-4.0489,-4.0489,-4.0489,-4.0489,-4.0489,-4.0489,-4.0489,-4.0489,-4.0489,-4.0489,-4.0455,-4.0455,-4.0489,-4.0489,-4.0489,-4.0489,-4.0489,-4.0489,-4.042,-4.042,-4.0141,-3.961,-4.0106,-4.0106,-5.0011,-5.0011,0.0,0.0,-4.7672,-4.6333,-4.4433,-4.3914,-4.3621,-4.2774,-4.2602,-4.2602,-4.2602,-4.2602,-4.2571,-4.2492,-4.227,-4.1948,-4.1555,-4.1272,-4.0969,-4.0558,-4.0489,-4.0489,-4.0489,-4.0489,-4.0489,-4.0489,-4.0489,-4.0489,-4.0489,-4.0489,-4.0489,-4.0489,-4.0489,-4.0489,-4.0489,-4.0489,-4.0489,-4.0489,-4.0489,-4.0489,-4.052,-4.1278,-4.1971,-4.2602,-4.2602,-4.2309,-4.1801,-4.1663,-4.1263,-4.0705,-4.0551,-4.0489,-4.0489,-4.0489,-4.0489,-4.0489,-4.0489,-4.0489,-4.0489,-4.0489,-4.0489,-4.0489,-4.0489,-4.0489,-4.0489,-4.0489,-4.0489,-4.0489,-4.0489,-4.0489,-4.0489,-4.0489,-4.0489,-4.0489,-4.0489,-4.0489,-4.0489,-4.0489,-4.0489,-4.0489,-4.0489,-4.0489,-4.0489,-4.0489,-4.0489,-4.0489,-4.0489,-4.0489,-4.0489,-4.0489,-4.0489,-4.0489,-4.0489,-4.0489,-4.0489,-4.0489,-4.0106,-4.0071,-4.0489,-4.0489,-4.0489,-4.0489,-4.0489,-4.0281,-3.9859,-3.9859,-3.9559,-3.9017,-3.9111,-3.9343,0.0,0.0,0.0,-4.8551,0.0,-4.6199,-4.4682,-4.4174,-4.3798,-4.308,-4.2774,-4.2602,-4.2602,-4.2602,-4.2602,-4.2602,-4.2429,-4.2206,-4.1883,-4.1555,-4.1189,-4.0833,-4.0627,-4.0628,-4.1001,-4.0689,-4.0643,-4.1016,-4.0689,-4.0489,-4.0489,-4.0489,-4.0489,-4.0489,-4.0489,-4.0489,-4.0489,-4.0489,-4.0489,-4.0489,-4.0489,-4.0489,-4.0505,-4.0924,-4.1278,-4.1601,-4.1601,-4.1417,-4.1078,-4.1078,-4.0863,-4.0489,-4.0489,-4.0489,-4.0489,-4.0489,-4.0489,-4.0489,-4.0489,-4.0489,-4.0489,-4.0489,-4.0489,-4.0489,-4.0489,-4.0489,-4.0489,-4.0489,-4.0489,-4.0489,-4.0489,-4.0489,-4.0489,-4.0489,-4.0489,-4.0489,-4.0489,-4.0489,-4.0489,-4.0489,-4.0489,-4.0489,-4.0489,-4.0489,-4.0489,-4.0489,-4.0489,-4.0489,-4.0489,-4.0489,-4.0489,-4.0489,-4.0489,-4.0489,-4.0489,-4.0489,-4.0489,-4.0489,-4.0246,-4.0106,-4.0106,-4.0106,-4.0106,-4.0106,-3.9844,-3.9559,-3.9271,-3.9271,-3.8965,-3.8375,-3.8671,-3.8819,0.0,0.0,0.0,0.0,-4.7251,0.0,-4.5039,-4.4384,-4.4001,-4.3515,-4.2974,-4.2602,-4.2602,-4.2602,-4.2602,-4.2602,-4.2602,-4.246,-4.2142,-4.1818,-4.1489,-4.1122,-4.0839,-4.094,-4.154,-4.117,-4.1078,-4.1555,-4.1047,-4.0628,-4.0505,-4.0489,-4.0489,-4.0489,-4.0489,-4.0489,-4.0489,-4.0489,-4.0489,-4.0489,-4.0489,-4.0489,-4.0489,-4.0489,-4.0489,-4.0489,-4.0489,-4.0489,-4.0489,-4.0489,-4.0489,-4.0489,-4.0489,-4.0489,-4.0489,-4.0489,-4.0489,-4.0489,-4.0489,-4.0489,-4.0489,-4.0489,-4.0489,-4.0489,-4.0489,-4.0489,-4.0489,-4.0489,-4.0489,-4.0489,-4.0489,-4.0489,-4.0489,-4.0489,-4.0489,-4.0489,-4.0489,-4.0489,-4.0489,-4.0489,-4.0489,-4.0489,-4.0489,-4.0489,-4.0489,-4.0489,-4.0489,-4.0489,-4.0489,-4.0489,-4.0489,-4.0489,-4.0489,-4.0489,-4.0489,-4.0489,-4.0489,-4.0489,-4.042,-4.0211,-3.9859,-3.9646,-3.9538,-3.9538,-3.9053,-3.8745,-3.8634,-3.8634,-3.8337,-3.7772,-3.8263,-3.8263,0.0,0.0,0.0,0.0,-4.762,-4.7045,0.0,0.0,-4.4468,-4.3985,-4.3218,-4.2602,-4.2602,-4.2602,-4.2602,-4.2602,-4.2602,-4.246,-4.2142,-4.1818,-4.1489,-4.1122,-4.1322,-4.1494,-4.1586,-4.2048,-4.2125,-4.1632,-4.1509,-4.1186,-4.052,-4.0489,-4.0489,-4.0489,-4.0489,-4.0489,-4.0489,-4.0489,-4.0489,-4.0489,-4.0489,-4.0489,-4.0489,-4.0489,-4.0489,-4.0489,-4.0489,-4.0489,-4.0489,-4.0489,-4.0489,-4.0489,-4.0489,-4.0489,-4.0489,-4.0489,-4.0489,-4.0489,-4.0489,-4.0489,-4.0489,-4.0489,-4.0489,-4.0489,-4.0489,-4.0489,-4.0489,-4.0489,-4.0489,-4.0489,-4.0489,-4.0489,-4.0489,-4.0489,-4.0489,-4.0489,-4.0489,-4.0489,-4.0489,-4.0489,-4.0489,-4.0489,-4.0489,-4.0489,-4.0489,-4.0489,-4.0489,-4.0489,-4.0489,-4.0489,-4.0489,-4.0489,-4.0489,-4.0489,-4.0489,-4.0489,-4.0489,-4.0489,-4.0071,-3.9965,-4.0385,-3.9436,-3.8943,-3.8943,-3.8855,-3.8523,-3.8037,-3.8037,-3.7696,-3.7134,-3.7211,-3.7481,-5.008,0.0,0.0,0.0,-4.8,-4.7369,-4.6059,-4.5196,-4.4652,-4.4412,-4.3839,-4.3292,-4.305,-4.2774,-4.2602,-4.2602,-4.2602,-4.2539,-4.2397,-4.2077,-4.1753,-4.1423,-4.1679,-4.1957,-4.2125,-4.2432,-4.2633,-4.2694,-4.2017,-4.1463,-4.114,-4.0705,-4.0489,-4.0489,-4.0489,-4.0489,-4.0489,-4.0489,-4.0489,-4.0489,-4.0489,-4.0489,-4.0489,-4.0489,-4.0489,-4.0489,-4.0489,-4.0489,-4.0489,-4.0489,-4.0489,-4.0489,-4.0489,-4.0489,-4.0489,-4.0489,-4.0489,-4.0489,-4.0489,-4.0489,-4.0489,-4.0489,-4.0489,-4.0489,-4.0489,-4.0489,-4.0489,-4.0489,-4.0489,-4.0489,-4.0489,-4.0489,-4.0489,-4.0489,-4.0489,-4.0489,-4.0489,-4.0489,-4.0489,-4.0489,-4.0489,-4.0489,-4.0489,-4.0489,-4.0489,-4.0489,-4.0489,-4.0489,-4.0489,-4.0489,-4.0489,-4.0489,-4.0489,-4.0489,-4.0489,-4.0489,-4.0489,-4.0489,-4.0281,-3.995,-3.9544,-3.9075,-3.8486,-3.781,-3.8113,-3.8,-3.7404,-3.7404,-3.725,-3.6978,-3.6978,-3.7134,0.0,0.0,0.0,0.0,0.0,-4.7527,0.0,0.0,-4.4889,-4.4889,-4.4513,-4.4071,-4.3722,-4.3171,-4.2743,-4.2634,-4.2602,-4.2602,-4.2602,-4.2302,-4.2044,-4.1859,-4.2168,-4.249,-4.2823,-4.3002,-4.3233,-4.3578,-4.2663,-4.1955,-4.1617,-4.1093,-4.0674,-4.0505,-4.0489,-4.0489,-4.0489,-4.0489,-4.0489,-4.0489,-4.0489,-4.0489,-4.0489,-4.0489,-4.0489,-4.0489,-4.0489,-4.0489,-4.0489,-4.0489,-4.0489,-4.0489,-4.0489,-4.0489,-4.0489,-4.0489,-4.0489,-4.0489,-4.0489,-4.0489,-4.0489,-4.0489,-4.0489,-4.0489,-4.0489,-4.0489,-4.0489,-4.0489,-4.0489,-4.0489,-4.0489,-4.0489,-4.0489,-4.0489,-4.0489,-4.0489,-4.0489,-4.0489,-4.0489,-4.0489,-4.0489,-4.0489,-4.0489,-4.0489,-4.0489,-4.0489,-4.0489,-4.0489,-4.0489,-4.0385,-4.0281,-4.0281,-4.0176,-4.0056,-4.0056,-4.0056,-4.0056,-4.0056,-4.0056,-3.9702,-3.8819,-3.8782,-3.83,-3.725,-3.7658,-3.7582,-3.6978,-3.6978,-3.6978,-3.6978,-3.6978,-3.6978,0.0,0.0,0.0,0.0,0.0,0.0,0.0,-4.5966,-4.5371,-4.5371,-4.4988,-4.4652,-4.4635,-4.3898,-4.3111,-4.2649,-4.2602,-4.2602,-4.2602,-4.2302,-4.222,-4.2523,-4.284,-4.3189,-4.3538,-4.4132,-4.4255,-4.3655,-4.3547,-4.2961,-4.1663,-4.1555,-4.1232,-4.052,-4.0489,-4.0489,-4.0489,-4.0489,-4.0489,-4.0489,-4.0489,-4.0489,-4.0489,-4.0489,-4.0489,-4.0489,-4.0489,-4.0489,-4.0489,-4.0489,-4.0489,-4.0489,-4.0489,-4.0489,-4.0489,-4.0489,-4.0489,-4.0489,-4.0489,-4.0489,-4.0489,-4.0489,-4.0489,-4.0489,-4.0489,-4.0489,-4.0489,-4.0489,-4.0489,-4.0489,-4.0489,-4.0489,-4.0489,-4.0489,-4.0489,-4.0489,-4.0489,-4.0489,-4.0489,-4.0489,-4.0489,-4.0489,-4.0489,-4.0489,-4.0489,-4.0489,-4.0489,-4.0489,-4.0489,-4.0071,-3.9753,-3.9753,-3.9235,-3.8892,-3.8892,-3.8892,-3.8892,-3.8892,-3.8892,-3.8855,-3.8782,-3.8782,-3.8486,-3.7848,-3.7886,-3.7582,-3.6978,-3.6978,-3.6978,-3.6978,-3.6978,-3.6978,0.0,0.0,0.0,0.0,-4.8965,-4.8206,-4.7465,-4.6734,-4.6017,-4.55,-4.5274,-4.5069,-4.4763,-4.391,-4.3246,-4.308,-4.2805,-4.2602,-4.2602,-4.2508,-4.2478,-4.257,-4.3094,-4.3486,-4.3568,-4.4225,-4.4517,-4.4271,-4.3855,-4.3393,-4.2931,-4.2063,-4.1478,-4.1217,-4.0735,-4.0489,-4.0489,-4.0489,-4.0489,-4.0489,-4.0489,-4.0489,-4.0489,-4.0489,-4.0489,-4.0489,-4.0489,-4.0489,-4.0489,-4.0489,-4.0489,-4.0489,-4.0489,-4.0489,-4.0489,-4.0489,-4.0489,-4.0489,-4.0489,-4.0489,-4.0489,-4.0489,-4.0489,-4.0489,-4.0489,-4.0489,-4.0489,-4.0489,-4.0489,-4.0489,-4.0489,-4.0489,-4.0612,-4.1109,-4.154,-4.1863,-4.1863,-4.1524,-4.1217,-4.1217,-4.1571,-4.1863,-4.1863,-4.1473,-4.1204,-4.1204,-4.0858,-4.0569,-4.0569,-4.0397,-4.0285,-4.0285,-4.0096,-3.9944,-3.9944,-3.9944,-3.9944,-3.9944,-3.9944,-3.9792,-3.9392,-3.9368,-3.9096,-3.8533,-3.8547,-3.8017,-3.6978,-3.6978,-3.6978,-3.6993,-3.7386,-3.7569,-5.0109,0.0,0.0,0.0,0.0,-4.8603,-4.7862,-4.7148,-4.6362,-4.5569,-4.5397,-4.53,-4.4998,-4.4299,-4.3663,-4.3336,-4.305,-4.2774,-4.2618,-4.2602,-4.2719,-4.3089,-4.3408,-4.3741,-4.4115,-4.4423,-4.461,-4.461,-4.4194,-4.3855,-4.3624,-4.2525,-4.1724,-4.1263,-4.0751,-4.0489,-4.0489,-4.0489,-4.0489,-4.0489,-4.0489,-4.0489,-4.0489,-4.0489,-4.0489,-4.0489,-4.0489,-4.0489,-4.0489,-4.0489,-4.0489,-4.0489,-4.0489,-4.0489,-4.0489,-4.0489,-4.0489,-4.0489,-4.0489,-4.0489,-4.0489,-4.0489,-4.0489,-4.0489,-4.0489,-4.0489,-4.0489,-4.0489,-4.0674,-4.0858,-4.0858,-4.1063,-4.132,-4.1817,-4.2279,-4.2602,-4.2602,-4.2248,-4.194,-4.194,-4.2309,-4.2602,-4.2602,-4.2043,-4.1618,-4.1618,-4.102,-4.0582,-4.0582,-4.0427,-4.031,-4.031,-4.0128,-4.001,-4.001,-4.001,-4.001,-4.001,-4.001,-3.9852,-3.9467,-3.9427,-3.928,-3.8902,-3.8902,-3.8494,-3.765,-3.765,-3.765,-3.7664,-3.8032,-3.8229,0.0,0.0,0.0,0.0,0.0,-4.8637,-4.7896,-4.7155,-4.6406,-4.5604,-4.5414,-4.5397,-4.5397,-4.5042,-4.4412,-4.3486,-4.3306,-4.3141,-4.2665,-4.2602,-4.3009,-4.4079,-4.3881,-4.4036,-4.5106,-4.4836,-4.461,-4.461,-4.461,-4.4332,-4.367,-4.2971,-4.1935,-4.0566,-4.0505,-4.0489,-4.0489,-4.0489,-4.0489,-4.0489,-4.0489,-4.0489,-4.0489,-4.0489,-4.0489,-4.0489,-4.0489,-4.0489,-4.0489,-4.0489,-4.0489,-4.0489,-4.0489,-4.0489,-4.0489,-4.0489,-4.0489,-4.0489,-4.0489,-4.0489,-4.0489,-4.0489,-4.0489,-4.0489,-4.052,-4.052,-4.0536,-4.0551,-4.1093,-4.1632,-4.1632,-4.2125,-4.2633,-4.2633,-4.2648,-4.2663,-4.2663,-4.2663,-4.2663,-4.2596,-4.2612,-4.2627,-4.259,-4.203,-4.1588,-4.1588,-4.1041,-4.0602,-4.0602,-4.0093,-3.9736,-3.9736,-3.9256,-3.8958,-3.8958,-3.8958,-3.8958,-3.8958,-3.8958,-3.8958,-3.8958,-3.8958,-3.8958,-3.8958,-3.8958,-3.8958,-3.8958,-3.893,-3.8902,-3.8902,-3.893,-3.8944,-5.0109,0.0,0.0,0.0,0.0,0.0,-4.8654,-4.7913,-4.7172,-4.6414,-4.5793,-4.5397,-4.5397,-4.5274,-4.5015,-4.4412,-4.3735,-4.3141,-4.2665,-4.2602,-4.3009,-4.4079,-4.412,-4.4351,-4.5106,-4.5098,-4.4911,-4.461,-4.461,-4.4533,-4.4348,-4.3233,-4.2217,-4.1324,-4.0766,-4.0489,-4.0489,-4.0489,-4.0489,-4.0489,-4.0489,-4.0489,-4.0489,-4.0489,-4.0489,-4.0489,-4.0489,-4.0489,-4.0489,-4.0489,-4.0489,-4.0489,-4.0489,-4.0489,-4.0489,-4.0489,-4.0489,-4.0489,-4.0489,-4.0489,-4.0489,-4.0489,-4.0489,-4.0597,-4.114,-4.1309,-4.1401,-4.1894,-4.2171,-4.2325,-4.2325,-4.2817,-4.331,-4.331,-4.3679,-4.4033,-4.4033,-4.4033,-4.3767,-4.2788,-4.3001,-4.3165,-4.2667,-4.2073,-4.1686,-4.1686,-4.1114,-4.0672,-4.0672,-4.0547,-4.0421,-4.0421,-4.0309,-4.0196,-4.0196,-4.0196,-4.0196,-4.0196,-4.0196,-4.0196,-4.0196,-4.0196,-4.0196,-4.0196,-4.0196,-4.0196,-4.0196,-3.9352,-3.8902,-3.8916,-3.9366,-3.976,0.0,0.0,0.0,0.0,0.0,0.0,-4.8965,-4.8465,-4.7844,-4.6837,-4.6234,-4.5793,-4.5466,-4.5397,-4.5247,-4.4763,-4.4243,-4.3663,-4.3005,-4.2971,-4.3412,-4.4344,-4.4425,-4.4684,-4.5395,-4.5136,-4.4836,-4.4625,-4.461,-4.4486,-4.4209,-4.3433,-4.2571,-4.1632,-4.1186,-4.0797,-4.0489,-4.0489,-4.0489,-4.0489,-4.0489,-4.0489,-4.0489,-4.0489,-4.0489,-4.0489,-4.0489,-4.0489,-4.0489,-4.0489,-4.0489,-4.0489,-4.0489,-4.0489,-4.0489,-4.0489,-4.0489,-4.0489,-4.0489,-4.0489,-4.0551,-4.0843,-4.097,-4.1109,-4.1801,-4.2017,-4.2109,-4.2494,-4.2802,-4.3079,-4.3356,-4.371,-4.4024,-4.4024,-4.4332,-4.461,-4.461,-4.461,-4.4388,-4.3594,-4.3761,-4.381,-4.3126,-4.2739,-4.2374,-4.2129,-4.1757,-4.1381,-4.1156,-4.1114,-4.0986,-4.0744,-4.0702,-4.0702,-4.0702,-4.0702,-4.0702,-4.0702,-4.0702,-4.0702,-4.0702,-4.0702,-4.0702,-4.0702,-4.0702,-4.0702,-4.0702,-3.9971,-3.9634,-3.9634,-3.9999,-4.035,0.0,0.0,0.0,-5.0011,-5.0011,0.0,-4.9085,-4.8844,-4.843,-4.7131,-4.6786,-4.6483,-4.5793,-4.5656,-4.5532,-4.5101,-4.499,-4.4603,-4.3648,-4.3644,-4.4059,-4.4902,-4.4893,-4.5092,-4.5733,-4.5173,-4.4685,-4.461,-4.461,-4.4348,-4.3747,-4.3639,-4.3039,-4.1755,-4.1632,-4.1263,-4.0505,-4.0489,-4.0489,-4.0489,-4.0489,-4.0489,-4.0489,-4.0489,-4.0489,-4.0489,-4.0489,-4.0489,-4.0489,-4.0489,-4.0489,-4.0489,-4.0489,-4.0489,-4.0489,-4.0489,-4.0489,-4.0489,-4.0489,-4.0551,-4.072,-4.1386,-4.1648,-4.1848,-4.2509,-4.2709,-4.274,-4.2802,-4.3233,-4.3855,-4.4471,-4.461,-4.461,-4.461,-4.461,-4.461,-4.461,-4.461,-4.461,-4.461,-4.4534,-4.4266,-4.3615,-4.3512,-4.3299,-4.267,-4.2548,-4.2319,-4.1771,-4.166,-4.1367,-4.0773,-4.0702,-4.0702,-4.0702,-4.0702,-4.0702,-4.0702,-4.0702,-4.0702,-4.0702,-4.0702,-4.0702,-4.0702,-4.0702,-4.0702,-4.0702,-4.0702,-4.0702,-4.0702,-4.0702,-4.0702,-5.0011,-5.0011,-5.0011,-5.0011,-5.0011,0.0,-4.9804,-4.924,-4.8706,-4.843,-4.7896,-4.7431,-4.7276,-4.7241,-4.7214,-4.7114,-4.68,-4.6133,-4.4988,-4.4511,-4.4764,-4.6077,-4.5861,-4.5637,-4.5805,-4.5651,-4.5284,-4.4663,-4.461,-4.4548,-4.4425,-4.3901,-4.3217,-4.2432,-4.1878,-4.1263,-4.0505,-4.0489,-4.0489,-4.0489,-4.0489,-4.0489,-4.0489,-4.0489,-4.0489,-4.0489,-4.0489,-4.0489,-4.0489,-4.0489,-4.0489,-4.0489,-4.0489,-4.0489,-4.0489,-4.0489,-4.0489,-4.0489,-4.0489,-4.0909,-4.1417,-4.1555,-4.1971,-4.2525,-4.3187,-4.3408,-4.3531,-4.4048,-4.4317,-4.4456,-4.4579,-4.461,-4.461,-4.461,-4.461,-4.461,-4.461,-4.461,-4.461,-4.461,-4.4174,-4.3576,-4.2926,-4.2805,-4.275,-4.2629,-4.2211,-4.1813,-4.1744,-4.1241,-4.0873,-4.0688,-4.0702,-4.0702,-4.0702,-4.0702,-4.0702,-4.0702,-4.0702,-4.0702,-4.0702,-4.0702,-4.0702,-4.0702,-4.0702,-4.0702,-4.0702,-4.0702,-4.0702,-4.0702,-4.0702,-4.0702,-5.0011,-5.0011,-5.0011,-5.0011,-5.0011,0.0,0.0,-4.97,-4.9275,-4.8879,-4.8499,-4.8137,-4.7758,-4.7689,-4.7689,-4.7689,-4.7488,-4.7273,-4.7043,-4.6118,-4.5777,-4.6518,-4.6268,-4.5987,-4.5801,-4.5614,-4.5247,-4.4663,-4.461,-4.461,-4.461,-4.4302,-4.3809,-4.311,-4.2448,-4.1771,-4.1063,-4.0674,-4.0489,-4.0489,-4.0489,-4.0489,-4.0489,-4.0489,-4.0489,-4.0489,-4.0489,-4.0489,-4.0489,-4.0489,-4.0489,-4.0489,-4.0489,-4.0489,-4.0489,-4.0489,-4.0489,-4.0551,-4.0905,-4.1294,-4.1709,-4.2371,-4.2802,-4.3202,-4.3917,-4.4117,-4.4178,-4.4517,-4.461,-4.461,-4.461,-4.461,-4.461,-4.461,-4.461,-4.461,-4.461,-4.461,-4.461,-4.461,-4.4343,-4.3903,-4.3205,-4.3364,-4.3482,-4.3126,-4.314,-4.2886,-4.2237,-4.1881,-4.1381,-4.0773,-4.0702,-4.0702,-4.0702,-4.0702,-4.0702,-4.0702,-4.0702,-4.0702,-4.0702,-4.0702,-4.0702,-4.0702,-4.0702,-4.0702,-4.0702,-4.0702,-4.0702,-4.0702,-4.0702,-4.0702,-5.0011,-5.0011,-5.0011,-5.0011,-5.0011,-5.0011,0.0,0.0,0.0,-4.9154,-4.9016,-4.8844,-4.8241,-4.8148,-4.8148,-4.8148,-4.8148,-4.8355,-4.8947,-4.7933,-4.7057,-4.696,-4.6726,-4.6372,-4.5868,-4.5358,-4.4949,-4.461,-4.461,-4.461,-4.461,-4.461,-4.4302,-4.3624,-4.3063,-4.2402,-4.1617,-4.1032,-4.0628,-4.0489,-4.0489,-4.0489,-4.0489,-4.0489,-4.0489,-4.0489,-4.0489,-4.0489,-4.0489,-4.0489,-4.0489,-4.0489,-4.0489,-4.0489,-4.0489,-4.0489,-4.0582,-4.0782,-4.1401,-4.1771,-4.2155,-4.327,-4.3701,-4.3901,-4.4456,-4.461,-4.461,-4.461,-4.461,-4.461,-4.461,-4.461,-4.461,-4.461,-4.461,-4.461,-4.461,-4.461,-4.461,-4.461,-4.461,-4.4419,-4.3903,-4.4228,-4.4381,-4.3708,-4.3942,-4.3771,-4.2603,-4.2319,-4.1825,-4.0816,-4.083,-4.083,-4.0702,-4.083,-4.083,-4.0702,-4.0702,-4.0702,-4.0702,-4.0702,-4.0702,-4.0702,-4.0702,-4.0758,-4.087,-4.087,-4.0814,-4.0702,-4.0702,-4.0702,-5.0011,-5.0011,-5.0011,-5.0011,-5.0011,-5.0011,-5.0011,0.0,-4.9976,-4.989,0.0,-4.9855,-4.9752,0.0,0.0,-4.9752,-4.9752,-4.9769,-4.9855,-4.9304,-4.8737,-4.8251,-4.7819,-4.7082,-4.5905,-4.5098,-4.4648,-4.461,-4.461,-4.461,-4.461,-4.461,-4.4302,-4.3624,-4.3531,-4.29,-4.1617,-4.1524,-4.1155,-4.0489,-4.0489,-4.0489,-4.0489,-4.0489,-4.0489,-4.0489,-4.0489,-4.0489,-4.0489,-4.0489,-4.0489,-4.0489,-4.0489,-4.0489,-4.0489,-4.0489,-4.0889,-4.1494,-4.1571,-4.2371,-4.3408,-4.3562,-4.4009,-4.4517,-4.4594,-4.461,-4.461,-4.461,-4.461,-4.461,-4.461,-4.461,-4.461,-4.461,-4.461,-4.461,-4.461,-4.461,-4.461,-4.461,-4.461,-4.4587,-4.4496,-4.4534,-4.4381,-4.3708,-4.3165,-4.2563,-4.1895,-4.1269,-4.0859,-4.0702,-4.1241,-4.1367,-4.073,-4.1241,-4.1311,-4.0744,-4.0702,-4.0702,-4.0702,-4.0702,-4.0702,-4.0702,-4.0702,-4.0969,-4.1516,-4.1516,-4.1221,-4.0702,-4.0702,-4.0702,-5.0011,-5.0011,-5.0011,-5.0011,-5.0011,-5.0011,-5.0011,-5.0011,-5.0011,-5.0011,0.0,0.0,0.0,0.0,0.0,0.0,-5.0011,-5.0011,-5.0011,-4.9801,-4.9471,-4.8934,-4.8194,-4.7184,-4.5905,-4.5061,-4.461,-4.461,-4.461,-4.461,-4.461,-4.461,-4.4486,-4.4194,-4.3809,-4.3347,-4.2777,-4.2371,-4.1832,-4.1155,-4.1155,-4.0889,-4.0489,-4.0489,-4.0489,-4.0489,-4.0489,-4.0489,-4.0489,-4.0489,-4.0489,-4.0489,-4.0489,-4.0489,-4.0551,-4.1001,-4.134,-4.1709,-4.2479,-4.3146,-4.367,-4.4055,-4.4379,-4.461,-4.461,-4.461,-4.461,-4.461,-4.461,-4.461,-4.461,-4.461,-4.461,-4.461,-4.461,-4.461,-4.461,-4.461,-4.461,-4.461,-4.461,-4.461,-4.461,-4.461,-4.4496,-4.4212,-4.3927,-4.3536,-4.29,-4.2578,-4.2252,-4.1895,-4.2087,-4.1964,-4.1311,-4.1535,-4.1552,-4.1251,-4.1587,-4.1783,-4.1783,-4.1783,-4.1783,-4.1783,-4.1783,-4.1924,-4.2177,-4.2177,-4.2036,-4.1783,-4.1783,-4.1783,-5.0011,-5.0011,-5.0011,-5.0011,-5.0011,-5.0011,-5.0011,-5.0011,-5.0011,-5.0011,-5.0011,0.0,0.0,0.0,-5.0011,-5.0011,0.0,-5.0011,-5.0011,-5.0011,-4.9801,-4.9256,-4.821,-4.7134,-4.6088,-4.5231,-4.4723,-4.461,-4.461,-4.461,-4.461,-4.461,-4.461,-4.461,-4.4132,-4.3793,-4.3608,-4.311,-4.254,-4.1878,-4.1878,-4.1601,-4.1074,-4.1074,-4.1074,-4.1074,-4.1074,-4.1074,-4.1074,-4.1074,-4.1074,-4.1074,-4.1074,-4.1074,-4.1105,-4.1478,-4.1817,-4.2279,-4.327,-4.3732,-4.3963,-4.4456,-4.461,-4.461,-4.461,-4.461,-4.461,-4.461,-4.461,-4.461,-4.461,-4.461,-4.461,-4.461,-4.461,-4.461,-4.461,-4.461,-4.461,-4.461,-4.461,-4.4671,-4.4856,-4.4695,-4.4534,-4.4343,-4.4343,-4.4097,-4.3418,-4.3344,-4.3167,-4.2694,-4.2799,-4.2596,-4.2009,-4.2094,-4.211,-4.1898,-4.2317,-4.2584,-4.2584,-4.2584,-4.2584,-4.2584,-4.2584,-4.2669,-4.2837,-4.2837,-4.2921,-4.3076,-4.2739,-4.2584,-5.0011,-5.0011,-5.0011,-5.0011,-5.0011,-5.0011,-5.0011,-5.0011,-5.0011,-5.0011,-5.0011,-5.0011,-5.0011,-5.0011,-5.0011,0.0,-5.0011,0.0,0.0,-5.0011,-4.9801,-4.9256,-4.795,-4.6965,-4.6518,-4.5676,-4.5024,-4.461,-4.461,-4.461,-4.461,-4.461,-4.461,-4.461,-4.4594,-4.4271,-4.3624,-4.3593,-4.3217,-4.2571,-4.2571,-4.2571,-4.254,-4.254,-4.254,-4.254,-4.254,-4.254,-4.254,-4.254,-4.254,-4.254,-4.254,-4.254,-4.2463,-4.1832,-4.2402,-4.3547,-4.3593,-4.4024,-4.4594,-4.461,-4.461,-4.461,-4.461,-4.461,-4.461,-4.461,-4.461,-4.461,-4.461,-4.461,-4.461,-4.461,-4.461,-4.461,-4.461,-4.461,-4.461,-4.461,-4.461,-4.4825,-4.5449,-4.5041,-4.4381,-4.3747,-4.363,-4.3379,-4.2725,-4.2626,-4.2637,-4.2609,-4.3099,-4.3225,-4.2603,-4.3093,-4.3181,-4.2587,-4.257,-4.2584,-4.2584,-4.2584,-4.2584,-4.2584,-4.2584,-4.2879,-4.3469,-4.3469,-4.3764,-4.4326,-4.3132,-4.2584,-4.9964,-5.0011,-5.0011,-5.0011,-5.0011,-5.0011,-5.0011,-5.0011,-5.0011,-5.0011,-5.0011,-5.0011,-5.0011,-5.0011,-5.0011,0.0,0.0,-5.0011,0.0,-5.0011,-4.9935,-4.9755,-4.848,-4.7322,-4.6588,-4.5713,-4.5024,-4.461,-4.461,-4.461,-4.461,-4.461,-4.461,-4.461,-4.461,-4.4502,-4.4271,-4.4271,-4.3947,-4.3285,-4.3285,-4.3017,-4.2602,-4.2602,-4.2602,-4.2602,-4.2602,-4.2602,-4.2602,-4.2602,-4.2602,-4.2602,-4.2602,-4.2863,-4.3217,-4.3023,-4.3223,-4.367,-4.4117,-4.4425,-4.461,-4.461,-4.461,-4.461,-4.461,-4.461,-4.461,-4.461,-4.461,-4.461,-4.461,-4.461,-4.461,-4.461,-4.461,-4.461,-4.461,-4.461,-4.461,-4.461,-4.4941,-4.5311,-4.5541,-4.5772,-4.5832,-4.562,-4.5581,-4.5342,-4.4683,-4.4944,-4.5094,-4.4641,-4.5166,-4.5286,-4.4645,-4.4327,-4.4061,-4.3867,-4.3828,-4.3793,-4.3793,-4.3793,-4.3793,-4.3793,-4.3793,-4.3891,-4.4102,-4.4102,-4.4214,-4.4397,-4.3989,-4.3793,-4.9772,-4.9801,-4.9801,-4.9801,-4.9801,-4.983,-4.9889,-4.9889,-4.9889,-4.9889,-4.9935,-4.9964,-4.9848,-4.9906,-4.9982,0.0,0.0,0.0,0.0,-5.0011,-5.0011,-5.0011,-4.8872,-4.7737,-4.6882,-4.5949,-4.5173,-4.4648,-4.461,-4.461,-4.461,-4.461,-4.461,-4.461,-4.461,-4.461,-4.461,-4.461,-4.4394,-4.3963,-4.3963,-4.371,-4.331,-4.331,-4.331,-4.331,-4.331,-4.331,-4.331,-4.331,-4.331,-4.331,-4.331,-4.3571,-4.3932,-4.3701,-4.3762,-4.4024,-4.4471,-4.461,-4.461,-4.461,-4.461,-4.461,-4.461,-4.461,-4.4564,-4.4317,-4.4425,-4.4564,-4.4317,-4.444,-4.461,-4.461,-4.461,-4.4687,-4.4918,-4.4979,-4.5041,-4.5249,-4.5649,-4.6018,-4.6265,-4.6665,-4.6865,-4.6634,-4.6603,-4.6429,-4.6011,-4.6346,-4.6417,-4.5992,-4.6327,-4.6282,-4.5609,-4.4878,-4.4464,-4.4464,-4.4404,-4.4411,-4.4411,-4.4411,-4.4411,-4.4411,-4.4411,-4.4411,-4.4411,-4.4411,-4.4411,-4.4411,-4.4411,-4.4411]},{"header":{"parameterUnit":"m.s-1","parameterCategory":1,"la1":30.6,"la2":29.2853,"lo1":-89.7004,"lo2":-87.6739,"dy":0.0162,"dx":0.0183,"nx":112,"ny":82,"refTime":"2024-04-11T06:00:00:Z","depth":0,"parameterNumber":3,"parameterNumberName":"V-component_of_WINDS"},"data":[0.0,0.0,0.0,0.0,0.0,0.0,0.0,0.0,0.0,0.0,0.0,0.0,0.0,0.0,0.0,0.0,0.0,0.0,0.0,0.0,0.0,0.0,0.0,0.0,0.0,0.0,0.0,0.0,0.0,0.0,0.0,0.0,0.0,0.0,0.0,0.0,0.0,0.0,0.0,0.0,0.0,0.0,0.0,0.0,0.0,0.0,0.0,0.0,0.0,0.0,0.0,0.0,0.0,0.0,0.0,0.0,0.0,0.0,0.0,0.0,0.0,0.0,0.0,0.0,0.0,0.0,0.0,0.0,0.0,0.0,0.0,0.0,0.0,0.0,0.0,0.0,0.0,0.0,0.0,0.0,0.0,0.0,0.0,0.0,0.0,0.0,0.0,0.0,0.0,0.0,0.6855,0.4156,0.1714,0.0184,0.0,0.0,0.0,0.0,0.0,0.0,0.0,0.0,0.0,0.0,0.0,0.0,0.0,0.0,0.0,0.0,0.0,0.0,0.0,0.0,0.0,0.0,0.0,0.0,0.0,0.0,0.0,0.0,0.0,0.0,0.0,0.0,0.0,0.0,0.0,0.0,0.0,0.0,0.0,0.0,0.0,0.0,0.0,0.0,0.0,0.0,0.0,0.0,0.0,0.0,0.0,0.0,0.0,0.0,0.0,0.0,0.0,0.0,0.0,0.0,0.0,0.0,0.0,0.0,0.0,0.0,0.0,0.0,0.0,0.0,0.0,0.0,0.0,0.0,0.0,0.0,0.0,0.0,0.0,0.0,0.0,0.0,0.0,0.0,0.0,0.0,0.0,0.0,0.0,0.0,0.0,0.0,0.0,0.0,0.0,0.0,0.0,0.0,0.0,0.0,0.0,0.0,0.0,0.0,0.0,0.0,0.0,0.0,0.6727,0.409,0.2428,0.1126,0.0059,0.0,0.0,0.0,0.0,0.0,0.0,0.0,0.0,0.0,0.0,0.0,0.0,0.0,0.0,0.0,0.0,0.0,0.0,0.0,0.0,0.0,0.0,0.0,0.0,0.0,0.0,0.0,0.0,0.0,0.0,0.0,0.0,0.0,0.0,0.0,0.0,0.0,0.0,0.0,0.0,0.0,0.0,0.0,0.0,0.0,0.0,0.0,0.0,0.0,0.0,0.0,0.0,0.0,0.0,0.0,0.0,0.0,0.0,0.0,0.0,0.0,0.0,0.0,0.0,0.0,0.0,0.0,0.0,0.0,0.0,0.0,0.0,0.0,0.0,0.0,0.0,0.0,0.0,0.0,0.0,0.0,0.0,0.0,0.0,0.0,0.0,0.0,0.0,0.0,0.0,0.0,0.0,0.0,0.0,0.0,0.0,0.0,0.0,0.0,0.0,0.0,0.0,0.0,0.0,0.0,0.0,0.6976,0.6038,0.4877,0.3526,0.2528,0.2,0.1941,0.1647,0.1,0.161,0.0,0.0,0.0,0.0,0.0,0.0,0.0,0.0,0.0,0.0,0.0,0.0,0.0,0.0,0.0,0.0,0.0,0.0,0.0,0.0,0.0,0.0,0.0,0.0,0.0,0.0,0.0,0.0,0.0,0.0,0.0,0.0,0.0,0.0,0.0,0.0,0.0,0.0,0.0,0.0,0.0,0.0,0.0,0.0,0.0,0.0,0.0,0.0,0.0,0.0,0.0,0.0,0.0,0.0,0.0,0.0,0.0,0.0,0.0,0.0,0.0,0.0,0.0,0.0,0.0,0.0,0.0,0.0,0.0,0.0,0.0,0.0,0.0,0.0,0.0,0.0,0.0,0.0,0.0,0.0,0.0,0.0,0.0,0.0,0.0,0.0,0.0,0.0,0.0,0.0,0.0,0.0,0.0,0.0,0.0,0.0,0.0,0.0,0.0,0.0,0.0,0.0,0.6536,0.5826,0.5516,0.4588,0.3893,0.3603,0.3603,0.308,0.1861,0.2906,0.0,0.0,0.0,0.0,0.0,0.0,0.0,0.0,0.0,0.0,0.0,0.0,0.0,0.0,0.0,0.0,0.0,0.0,0.0,0.0,0.0,0.0,0.0,0.0,0.0,0.0,0.0,0.0,0.0,0.0,0.0,0.0,0.0,0.0,0.0,0.0,0.0,0.0,0.0,0.0,0.0,0.0,0.0,0.0,0.0,0.0,0.0,0.0,0.0,0.0,0.0,0.0,0.0,0.0,0.0,0.0,0.0,0.0,0.0,0.0,0.0,0.0,0.0,0.0,0.0,0.0,0.0,0.0,0.0,0.0,0.0,0.0,0.0,0.0,0.0,0.0,0.0,0.0,0.0,0.0,0.0,0.0,0.0,0.0,0.0,0.0,0.0,0.0,0.0,0.0,0.0,0.0,0.0,0.0,0.0,0.0,0.0,0.0,0.0,0.0,0.0,0.0,0.7233,0.6737,0.551,0.5334,0.4828,0.3705,0.3593,0.3088,0.1854,0.292,0.0,0.0,0.0,0.0,0.0,0.0,0.0,0.0,0.0,0.0,0.0,0.0,0.0,0.0,0.0,0.0,0.0,0.0,0.0,0.0,0.0,0.0,0.0,0.0,0.0,0.0,0.0,0.0,0.0,0.0,0.0,0.0,0.0,0.0,0.0,0.0,0.0,0.0,0.0,0.0,0.0,0.0,0.0,0.0,0.0,0.0,0.0,0.0,0.0,0.0,0.0,0.0,0.0,0.0,0.0,0.0,0.0,0.0,0.0,0.0,0.0,0.0,0.0,0.0,0.0,0.0,0.0,0.0,0.0,0.0,0.0,0.0,0.0,0.0,0.0,0.0,0.0,0.0,0.0,0.0,0.0,0.0,0.0,0.0,0.0,0.0,0.0,0.0,0.0,0.0,0.0,0.0,0.0,0.0,0.0,0.0,0.0,0.0,0.0,0.0,0.0,0.0,0.7508,0.7321,0.6826,0.6599,0.6318,0.5868,0.5868,0.531,0.4139,0.0,0.0,0.0,0.0,0.0,0.0,0.0,0.0,0.0,0.0,0.0,0.0,0.0,0.0,0.0,0.0,0.0,0.0,0.0,0.0,0.0,0.0,0.0,0.0,0.0,0.0,0.0,0.0,0.0,0.0,0.0,0.0,0.0,0.0,0.0,0.0,0.0,0.0,0.0,0.0,0.0,0.0,0.0,0.0,0.0,0.0,0.0,0.0,0.0,0.0,0.0,0.0,0.0,0.0,0.0,0.0,0.0,0.0,0.0,0.0,0.0,0.0,0.0,0.0,0.0,0.0,0.0,0.0,0.0,0.0,0.0,0.0,0.0,0.0,0.0,0.0,0.0,0.0,0.0,0.0,0.0,0.0,0.0,0.0,0.0,0.0,0.0,0.0,0.0,0.0,0.0,0.0,0.0,0.0,0.0,0.0,0.0,0.0,0.0,0.0,0.0,0.0,0.7782,0.7715,0.7715,0.7715,0.7546,0.7432,0.7432,0.7379,0.6821,0.5592,0.0,0.0,0.0,0.0,0.0,0.0,0.0,0.0,0.0,0.0,0.0,0.0,0.0,0.0,0.0,0.0,0.0,0.0,0.0,0.0,0.0,0.0,0.0,0.0,0.0,0.0,0.0,0.0,0.0,0.0,0.0,0.0,0.0,0.0,0.0,0.0,0.0,0.0,0.0,0.0,0.0,0.0,0.0,0.0,0.0,0.0,0.0,0.0,0.0,0.0,0.0,0.0,0.0,0.0,0.0,0.0,0.0,0.0,0.0,0.0,0.0,0.0,0.0,0.0,0.0,0.0,0.0,0.0,0.0,0.0,0.0,0.0,0.0,0.0,0.0,0.0,0.0,0.0,0.0,0.0,0.0,0.0,0.0,0.0,0.0,0.0,0.0,0.0,0.0,0.0,0.0,0.0,0.0,0.0,0.0,0.0,0.0,0.0,0.0,0.0,0.0,0.0,0.7989,0.7989,0.7989,0.7989,0.7989,0.7989,0.7989,0.7771,0.7099,0.0,0.0,0.0,0.0,0.0,0.0,0.0,0.0,0.0,0.0,0.0,0.0,0.0,0.0,0.0,0.0,0.0,0.0,0.0,0.0,0.0,0.0,0.0,0.0,0.0,0.0,0.0,0.0,0.0,0.0,0.0,0.0,0.0,0.0,0.0,0.0,0.0,0.0,0.0,0.0,0.0,0.0,0.0,0.0,0.0,0.0,0.0,0.0,0.0,0.0,0.0,0.0,0.0,0.0,0.0,0.0,0.0,0.0,0.0,0.0,0.0,0.0,0.0,0.0,0.0,0.0,0.0,0.0,0.0,0.0,0.0,0.0,0.0,0.0,0.0,0.0,0.0,0.0,0.0,0.0,0.0,0.0,0.0,0.0,0.0,0.0,0.0,0.0,0.0,0.0,0.0,0.0,0.0,0.0,0.0,0.0,0.0,0.0,0.0,0.0,0.0,0.0,0.0,0.8377,0.8374,0.8374,0.8374,0.8156,0.7989,0.7989,0.7934,0.7619,0.6977,0.0,0.0,0.0,0.0,0.0,0.0,0.0,0.0,0.0,0.0,0.0,0.0,0.0,0.0,0.0,0.0,0.0,0.0,0.0,0.0,0.0,0.0,0.0,0.0,0.0,0.0,0.0,0.0,0.0,0.0,0.0,0.0,0.0,0.0,0.0,0.0,0.0,0.0,0.0,0.0,0.0,0.0,0.0,0.0,0.0,0.0,0.0,0.0,0.0,0.0,0.0,0.0,0.0,0.0,0.0,0.0,0.0,0.0,0.0,0.0,0.0,0.0,0.0,0.0,0.0,0.0,0.0,0.0,0.0,0.0,0.0,0.0,0.0,0.0,0.0,0.0,0.0,0.0,0.0,0.0,0.0,0.0,0.0,0.0,0.0,0.0,0.0,0.0,0.0,0.0,0.0,0.0,0.0,0.0,0.0,0.0,0.0,0.0,0.0,0.0,0.0,0.0,0.9275,0.9322,0.9336,0.9221,0.8728,0.8358,0.8301,0.8188,0.7965,0.7666,0.0,0.0,0.0,0.0,0.0,0.0,0.0,0.0,0.0,0.0,0.0,0.0,0.0,0.0,0.0,0.0,0.0,0.0,0.0,0.0,0.0,0.0,0.0,0.0,0.0,0.0,0.0,0.0,0.0,0.0,0.0,0.0,0.0,0.0,0.0,0.0,0.0,0.0,0.0,0.0,0.0,0.0,0.0,0.0,0.0,0.0,0.0,0.0,0.0,0.0,0.0,0.0,0.0,0.0,0.0,0.0,0.0,0.0,0.0,0.0,0.0,0.0,0.0,0.0,0.0,0.0,0.0,0.0,0.0,0.0,0.0,0.0,0.0,0.0,0.0,0.0,0.0,0.0,0.0,0.0,0.0,0.0,0.0,0.0,0.0,0.0,0.0,0.0,0.0,0.0,0.0,0.0,0.0,0.0,0.0,0.0,0.0,0.0,0.0,0.0,0.0,0.0,1.0461,1.0629,1.0675,1.0477,0.9682,0.9115,0.8989,0.875,0.8518,0.8312,0.0,0.0,0.0,0.0,0.0,0.0,0.0,0.0,0.0,0.0,0.0,0.0,0.0,0.0,0.0,0.0,0.0,0.0,0.0,0.0,0.0,0.0,0.0,0.0,0.0,0.0,0.0,0.0,0.0,0.0,0.0,0.0,0.0,0.0,0.0,0.0,0.0,0.0,0.0,0.0,0.0,0.0,0.0,0.0,0.0,0.0,0.0,0.0,0.0,0.0,0.0,0.0,0.0,0.0,0.0,0.0,0.0,0.0,0.0,0.0,1.516,1.3896,0.0,0.0,0.0,0.0,0.0,0.0,0.0,0.0,0.0,0.0,0.0,0.0,0.0,0.0,0.0,0.0,0.0,0.0,0.0,0.0,0.0,0.0,0.0,0.0,0.0,0.0,0.0,0.0,0.0,0.0,0.0,0.0,0.0,0.0,0.0,0.0,0.0,0.0,0.0,0.0,1.1358,1.1367,1.1497,1.1619,1.1261,1.1081,1.1305,1.1063,1.0729,1.0382,1.0411,0.0,0.0,0.0,0.0,0.0,0.0,0.0,0.0,0.0,0.0,0.0,0.0,0.0,0.0,0.0,0.0,0.0,0.0,0.0,0.0,0.0,0.0,0.0,0.0,0.0,0.0,0.0,0.0,0.0,0.0,0.0,0.0,0.0,0.0,0.0,0.0,0.0,0.0,0.0,0.0,0.0,0.0,0.0,0.0,0.0,0.0,0.0,0.0,0.0,0.0,0.0,0.0,0.0,0.0,0.0,0.0,0.0,0.0,0.0,1.6094,1.5066,0.0,0.0,0.0,0.0,0.0,0.0,0.0,0.0,0.0,0.0,0.0,0.0,0.0,0.0,0.0,0.0,0.0,0.0,0.0,0.0,0.0,0.0,0.0,0.0,0.0,0.0,0.0,0.0,0.0,0.0,0.0,0.0,0.0,0.0,0.0,0.0,0.0,0.0,0.0,0.0,1.2333,1.2393,1.2463,1.2483,1.1948,1.1634,1.1704,1.1601,1.1401,1.1092,1.118,0.0,0.0,0.0,0.0,0.0,0.0,0.0,0.0,0.0,0.0,0.0,0.0,0.0,0.0,0.0,0.0,0.0,0.0,0.0,0.0,0.0,0.0,0.0,0.0,0.0,0.0,0.0,0.0,0.0,0.0,0.0,0.0,0.0,0.0,0.0,0.0,0.0,0.0,0.0,0.0,0.0,0.0,0.0,0.0,0.0,0.0,0.0,0.0,0.0,0.0,0.0,0.0,0.0,1.9243,1.9424,1.9424,1.9424,1.9397,1.917,1.6499,1.6105,1.7202,1.5564,0.0,0.0,0.0,0.0,0.0,0.0,0.0,0.0,0.0,0.0,0.0,0.0,0.0,0.0,0.0,0.0,0.0,0.0,0.0,0.0,0.0,0.0,1.5978,1.5931,1.5725,1.5007,1.3235,0.0,0.0,0.0,0.0,0.0,0.0,0.0,0.0,0.0,0.0,0.0,1.3265,1.3401,1.3467,1.3319,1.2567,1.203,1.2003,1.1954,1.1855,1.177,1.1755,1.1658,0.0,0.0,0.0,0.0,0.0,0.0,0.0,0.0,0.0,0.0,0.0,0.0,0.0,0.0,0.0,0.0,0.0,0.0,0.0,0.0,0.0,0.0,0.0,0.0,0.0,0.0,0.0,0.0,0.0,0.0,0.0,0.0,2.018,1.9893,0.0,0.0,0.0,0.0,0.0,0.0,0.0,0.0,0.0,0.0,0.0,0.0,0.0,1.9055,1.9307,1.9366,1.9366,1.9307,1.9366,1.9424,1.9424,1.9424,1.9225,1.8921,1.8516,0.0,1.85,1.69,0.0,0.0,0.0,0.0,0.0,0.0,0.0,0.0,0.0,0.0,0.0,0.0,0.0,0.0,0.0,0.0,0.0,0.0,0.0,0.0,0.0,0.0,1.6172,1.5971,1.5702,1.5358,1.4834,1.4714,1.4691,1.4691,1.4486,1.4298,0.0,0.0,0.0,0.0,0.0,0.0,1.4141,1.4135,1.4285,1.4444,1.418,1.4041,1.4246,1.4047,1.3895,1.3908,1.3908,1.3463,1.2533,1.2484,0.0,0.0,0.0,0.0,0.0,0.0,0.0,0.0,0.0,0.0,0.0,0.0,0.0,0.0,0.0,0.0,0.0,0.0,0.0,0.0,0.0,0.0,0.0,0.0,0.0,0.0,0.0,0.0,0.0,2.0074,1.9887,1.9593,1.9559,1.9506,0.0,0.0,0.0,0.0,0.0,0.0,0.0,0.0,0.0,1.9178,1.9178,1.9243,1.9424,1.9424,1.9424,1.9424,1.9424,1.9424,1.9424,1.9424,1.9205,1.8925,1.8925,1.8785,1.8625,1.7917,1.7466,1.7115,0.0,0.0,0.0,0.0,1.5719,1.5655,1.5815,1.6058,1.6272,1.6447,0.0,0.0,0.0,0.0,0.0,0.0,0.0,1.6463,1.631,1.6177,1.6037,1.5941,1.5676,1.5476,1.5326,1.5214,1.5054,1.4909,1.4666,1.4479,1.4479,1.4479,0.0,0.0,0.0,1.4437,1.4316,1.4298,1.4346,1.4467,1.437,1.4346,1.4473,1.437,1.4298,1.4298,1.4298,1.41,1.3613,1.3613,1.3366,0.0,0.0,0.0,0.0,0.0,0.0,0.0,0.0,0.0,0.0,0.0,0.0,0.0,0.0,0.0,0.0,0.0,0.0,0.0,0.0,0.0,0.0,0.0,0.0,0.0,0.0,0.0,0.0,1.9686,1.9606,1.9392,1.9424,1.9424,0.0,0.0,0.0,0.0,0.0,0.0,1.9424,1.9424,1.9424,1.9424,1.9424,1.9424,1.9424,1.9424,1.9424,1.9424,1.9424,1.9424,1.9424,1.9424,1.9165,1.8811,1.8811,1.8604,1.8263,1.8343,1.8205,1.7965,1.7941,1.775,1.7531,1.7531,1.7402,1.7277,1.7492,1.7289,1.6948,1.7226,1.7113,1.6942,1.6942,0.0,0.0,0.0,0.0,1.6568,1.6291,1.6163,1.6092,1.5914,1.5684,1.5486,1.5388,1.5229,1.5051,1.482,1.4637,1.4496,1.4496,1.4496,0.0,1.4496,1.4442,1.4442,1.4496,1.4442,1.4442,1.4496,1.4496,1.4496,1.4496,1.4496,1.4496,1.4496,1.4496,1.4465,1.4392,1.4392,1.4355,1.4288,0.0,0.0,0.0,0.0,0.0,0.0,0.0,0.0,0.0,0.0,0.0,0.0,0.0,0.0,0.0,0.0,0.0,0.0,0.0,0.0,0.0,0.0,0.0,0.0,0.0,0.0,0.0,0.0,0.0,1.9424,1.9424,0.0,0.0,0.0,0.0,1.9424,1.9424,1.9424,1.9424,1.9424,1.9424,1.9424,1.9424,1.9424,1.9424,1.9424,1.9424,1.9424,1.9424,1.9424,1.9424,1.9424,1.9052,1.851,1.851,1.8176,1.7649,1.7896,1.8015,1.7982,1.7742,1.7622,1.7576,1.7576,1.7569,1.7609,1.7602,1.7595,1.7582,1.7582,1.7582,1.7529,1.7529,1.7529,0.0,0.0,1.7503,1.7495,1.7201,1.6921,1.6534,1.6009,1.5673,1.5423,1.5198,1.5096,1.5089,1.5102,1.5096,1.5083,1.5083,0.0,1.5083,1.5083,1.4838,1.479,1.5035,1.4838,1.479,1.5035,1.5083,1.5083,1.5083,1.5083,1.5083,1.5083,1.5083,1.4915,1.4602,1.4589,1.4463,1.4204,1.4198,0.0,0.0,0.0,0.0,0.0,0.0,0.0,0.0,0.0,0.0,0.0,0.0,0.0,0.0,0.0,0.0,0.0,0.0,0.0,0.0,0.0,0.0,0.0,0.0,0.0,0.0,0.0,0.0,1.9424,1.9424,0.0,1.9424,1.9424,1.9424,1.9424,1.9424,1.9424,1.9424,1.9424,1.9424,1.9424,1.9424,1.9424,1.9424,1.9424,1.9424,1.9424,1.9424,1.9424,1.9417,1.9165,1.8865,1.8477,1.829,1.7969,1.7589,1.7702,1.7749,1.7736,1.7622,1.7582,1.7582,1.7582,1.7582,1.7582,1.7582,1.7582,1.7582,1.7582,1.7582,1.7582,1.7582,1.7582,1.7542,1.7407,1.7674,1.7801,1.686,1.6849,1.6875,1.6053,1.5756,1.5689,1.5547,1.6062,1.6534,1.6534,1.5737,1.5083,1.5083,1.5083,1.5083,1.5083,1.5035,1.4987,1.5083,1.5035,1.4987,1.5083,1.5083,1.5083,1.5083,1.5083,1.5083,1.5083,1.5083,1.5038,1.4937,1.4712,1.4572,1.4471,1.4294,1.4205,0.0,0.0,0.0,0.0,0.0,0.0,0.0,0.0,0.0,0.0,0.0,0.0,0.0,0.0,0.0,0.0,0.0,0.0,0.0,0.0,0.0,0.0,0.0,0.0,0.0,2.027,2.0097,1.9591,1.9627,1.9647,1.9437,1.9459,1.9472,1.943,1.9424,1.9424,1.9424,1.9424,1.9424,1.9424,1.9424,1.9424,1.9424,1.9424,1.9424,1.9424,1.9424,1.9319,1.9212,1.9011,1.8711,1.833,1.8075,1.7869,1.7582,1.7582,1.7582,1.7582,1.7582,1.7582,1.7582,1.7582,1.7582,1.7582,1.7582,1.7582,1.7582,1.7582,1.7582,1.7582,1.7582,1.7582,1.7647,1.7808,1.8086,1.8223,1.7652,1.7713,1.7732,1.7012,1.6803,1.6803,1.6803,1.7365,1.7831,1.7831,1.7037,1.6339,1.6339,1.6339,1.6244,1.5879,1.6055,1.6103,1.5879,1.6055,1.6237,1.6339,1.6339,1.6339,1.6339,1.6339,1.6339,1.6339,1.6339,1.629,1.6187,1.5987,1.5734,1.5528,1.5188,1.5037,1.5037,0.0,0.0,0.0,0.0,0.0,0.0,0.0,0.0,0.0,0.0,0.0,0.0,0.0,0.0,0.0,0.0,0.0,0.0,0.0,0.0,0.0,0.0,0.0,2.2312,2.2142,2.1574,2.0111,2.0258,2.0209,1.9625,1.9737,1.9784,1.9502,1.9424,1.9424,1.9424,1.9424,1.9424,1.9424,1.9424,1.9424,1.9424,1.9424,1.9424,1.9424,1.9417,1.9199,1.8925,1.8905,1.8528,1.7995,1.7982,1.7862,1.7582,1.7582,1.7582,1.7582,1.7582,1.7582,1.7582,1.7582,1.7582,1.7582,1.7635,1.7635,1.7635,1.7635,1.7635,1.7635,1.7635,1.7635,1.7891,1.8961,1.8986,1.8866,1.9599,1.9494,1.9154,1.8867,1.8788,1.8788,1.8788,1.8834,1.8834,1.8834,1.888,1.888,1.8796,1.8788,1.8473,1.7512,1.7948,0.0,1.7419,1.7948,1.8495,1.8788,1.8788,1.8788,1.8788,1.8788,1.8788,1.8788,1.8788,1.8637,1.834,1.8308,1.7974,1.7299,1.6915,1.6698,1.6739,0.0,0.0,0.0,0.0,0.0,0.0,0.0,0.0,0.0,0.0,0.0,0.0,0.0,0.0,0.0,0.0,0.0,0.0,0.0,0.0,0.0,2.5911,2.5707,2.4064,2.3829,2.3658,2.3259,2.3288,2.3152,2.2636,2.1919,2.1441,2.1353,2.0328,1.97,1.97,1.954,1.9424,1.9424,1.9424,1.9424,1.9424,1.9424,1.9424,1.9424,1.9152,1.8998,1.8911,1.8428,1.8149,1.7975,1.7809,1.7662,1.7582,1.7582,1.7582,1.7582,1.7582,1.7582,1.7582,1.7582,1.7582,1.7687,1.8506,1.8767,1.8767,1.8767,1.8767,1.8767,1.8767,1.8767,1.8917,1.975,2.0291,2.0378,1.9582,1.9701,1.9783,1.8996,1.8788,1.8788,1.8788,1.9384,1.9886,1.9886,2.0447,2.0447,1.9018,1.8788,1.8696,1.8427,1.8557,1.8603,1.8427,1.8557,1.8742,1.8788,1.8788,1.8788,1.8788,1.8788,1.8788,1.8788,1.8788,1.8748,1.8653,1.8444,1.7974,1.7299,1.6915,1.7025,0.0,0.0,0.0,0.0,0.0,0.0,0.0,0.0,0.0,0.0,0.0,0.0,0.0,0.0,0.0,0.0,0.0,0.0,0.0,0.0,0.0,0.0,2.7629,2.7623,2.6753,2.6074,2.5405,2.4765,2.4594,2.4396,2.3863,2.3303,2.2947,2.2636,2.1502,2.0666,2.0378,2.05,2.0155,1.9424,2.0486,2.0544,1.9424,2.0385,2.0666,2.0155,2.0288,2.0276,2.0132,1.9636,1.9341,1.9204,1.9062,1.8975,1.8975,1.8975,1.8975,1.8923,0.0,0.0,0.0,0.0,1.8975,1.9079,1.9694,1.9901,1.9901,1.9901,1.9901,1.9901,1.9901,1.9795,1.9847,2.07,2.1019,2.0955,2.0585,2.0678,2.0718,2.0167,1.9985,1.9985,1.9985,2.0484,2.0898,2.0898,2.132,0.0,2.0221,1.9985,1.9894,1.9476,1.9749,1.9849,1.9476,1.9758,1.9985,1.9985,1.9985,1.9985,1.9985,1.9985,0.0,0.0,0.0,1.9985,1.9985,1.9667,0.0,0.0,0.0,1.8209,1.8527,1.8527,0.0,0.0,1.7857,1.7865,0.0,0.0,0.0,0.0,0.0,0.0,0.0,0.0,0.0,0.0,0.0,0.0,0.0,0.0,0.0,0.0,2.8994,2.9121,2.9512,2.8349,2.6891,2.5509,2.5275,2.496,2.4364,2.4457,2.4298,2.3743,2.2789,2.2021,2.1452,2.1957,0.0,0.0,0.0,2.2274,1.9873,2.1957,2.2467,2.1395,2.207,2.2212,2.1894,2.146,2.1127,2.0885,2.0885,2.0885,2.0885,2.0885,2.0987,2.0987,1.9849,1.9383,1.9487,2.0518,2.0885,2.0936,2.1038,0.0,0.0,2.1089,2.1089,2.1081,2.1041,2.075,2.0677,2.1686,2.1423,2.1084,2.1989,2.1952,2.1696,2.1696,2.1696,2.1696,2.1696,2.1696,2.1696,2.1696,2.1696,2.1696,2.1696,2.1696,2.141,2.0574,2.1177,2.141,2.0574,2.1177,2.1696,2.1696,2.1696,0.0,2.1696,2.1696,2.1696,2.1696,2.1696,2.1696,2.1696,2.1328,2.0943,2.0552,2.0159,1.9787,1.9375,1.9375,1.9347,1.9301,1.9301,1.9301,0.0,0.0,0.0,0.0,0.0,0.0,0.0,0.0,0.0,0.0,0.0,0.0,0.0,0.0,0.0,2.9434,2.9443,2.9473,2.9616,2.9024,2.8468,2.8174,2.8119,2.7903,2.7495,2.6418,2.5714,2.558,2.4086,2.3087,2.2974,2.3063,2.2999,2.2661,2.3103,2.3159,2.2605,2.3111,2.3119,2.2628,2.2424,0.0,2.1886,2.1266,2.0948,2.0885,2.0885,2.0885,2.0885,2.0885,2.1395,2.2064,2.0987,2.0577,2.0621,2.0834,2.0885,2.1038,2.1912,2.2173,2.2173,2.2173,2.2173,2.2106,2.1794,2.1651,0.0,2.2113,2.2115,2.1971,2.1843,2.1751,2.1696,2.1696,2.1696,2.1696,2.1696,2.1696,2.1696,2.1696,2.1696,2.1696,2.1696,2.1696,2.1642,2.1454,2.1597,2.1642,2.1463,2.1597,2.1696,2.1696,2.1696,2.1696,2.1696,2.1696,2.1696,2.1696,2.1696,2.1696,2.1696,2.1328,2.1071,2.0998,2.0604,2.0209,1.9765,1.9765,1.9632,1.9301,1.9301,1.9301,0.0,0.0,0.0,0.0,0.0,0.0,0.0,0.0,0.0,0.0,0.0,2.8984,2.9209,0.0,2.9316,2.9531,2.9385,2.9248,2.9248,2.9053,2.8916,2.8916,2.873,2.8525,2.831,2.7628,2.7133,2.7015,2.558,2.4642,2.43,2.4475,2.4133,2.3239,2.4514,2.4616,2.3439,2.4467,2.4753,2.4292,2.399,2.3842,2.3825,2.3056,2.266,2.2568,2.266,2.266,2.2568,2.2568,2.2878,2.3288,2.2769,2.2568,2.2568,2.2568,2.2568,2.2619,2.3179,2.3338,2.3302,2.3058,2.2996,2.2925,2.2527,2.2262,2.2117,2.2244,2.2181,2.1934,2.1742,2.1696,2.1696,2.1696,2.1696,2.1696,2.1696,2.1696,2.1696,2.1696,2.1696,2.1696,2.1696,2.1696,2.1696,2.1696,2.1696,2.1696,2.1696,2.1696,2.1696,2.1696,2.1696,2.1696,2.1696,2.1696,2.1696,2.1696,2.1696,2.1696,2.1696,2.1485,2.1319,2.1108,2.0723,2.0287,1.9893,1.9683,1.9503,1.9301,1.9301,1.9301,0.0,0.0,0.0,0.0,0.0,0.0,0.0,0.0,2.791,2.833,2.8818,2.9248,2.9521,2.9346,2.9258,2.9531,2.9209,2.8916,2.8916,2.8848,2.8799,2.8799,2.8496,2.8291,2.8291,2.8237,2.8121,2.7906,2.6916,2.6136,2.5626,2.5881,2.5331,2.3927,2.5926,2.6082,2.4117,2.5826,2.6354,2.5729,2.564,2.5637,2.5741,2.4924,2.444,2.4251,2.439,2.4341,2.4202,2.4202,2.4202,2.4202,2.4202,2.4202,2.4202,2.4202,2.4202,2.4192,2.411,2.4082,2.3969,2.3517,2.338,2.3306,2.2904,2.2547,2.2263,2.219,2.1934,2.1696,2.1696,2.1696,2.1696,2.1696,2.1696,2.1696,2.1696,2.1696,2.1696,2.1696,2.1696,2.1696,2.1696,2.1696,2.1696,2.1696,2.1696,2.1696,2.1696,2.1696,2.1696,2.1696,2.1696,2.1696,2.1696,2.1696,2.1696,2.1696,2.1696,2.165,2.1577,2.1568,2.1376,2.0998,2.0677,2.0287,1.9893,1.9586,1.9384,1.9301,1.9301,1.9301,2.6676,2.6943,2.7148,2.71,2.709,2.7178,0.0,0.0,2.834,2.876,2.9492,2.9951,2.9629,2.9834,2.9951,2.9675,2.9209,2.8916,2.8916,2.8603,2.8359,2.8359,2.832,2.8291,2.8291,2.8067,2.7906,2.7906,2.7476,2.7206,2.7152,2.7206,2.7098,2.6926,2.6989,2.6871,2.6591,2.6826,2.6758,2.6289,2.6191,2.5932,2.5503,2.5041,2.4686,2.444,2.4291,2.4202,2.4202,2.4202,2.4202,2.4202,2.4202,2.4202,2.4202,2.4202,2.4202,2.4156,2.3739,2.3563,2.3499,2.3096,2.2968,2.2895,2.2474,2.2364,2.2254,2.1861,2.1723,2.1696,2.1696,2.1696,2.1696,2.1696,2.1696,2.1696,2.1696,2.1696,2.1696,2.1696,2.1696,2.1696,2.1696,2.1696,2.1696,2.1696,2.1696,2.1696,2.1696,2.1696,2.1696,2.1696,2.1696,2.1696,2.1696,2.1696,2.1696,2.1696,2.1696,2.1522,2.119,2.1172,2.0989,2.0552,2.0539,2.0287,1.9893,1.9838,1.9668,1.9301,1.9301,1.9301,2.6772,2.691,2.6953,2.6709,2.6836,2.706,2.7246,2.7812,2.8486,2.916,2.958,2.9853,2.9922,2.9668,2.9394,2.9219,2.8828,2.8555,2.8555,2.8398,2.8291,2.8291,2.8291,2.8291,2.8291,2.8184,2.8121,2.8121,2.7853,2.7691,2.7691,2.7485,2.7377,2.7377,2.7314,2.7314,2.753,2.7206,2.7053,2.7132,2.6338,2.5922,2.5798,2.5328,2.499,2.4735,2.4489,2.4301,2.4202,2.4202,2.4202,2.4202,2.4202,2.4202,2.4202,2.4202,2.4202,2.4137,2.3636,2.3499,2.3389,2.2748,2.2538,2.2465,2.2062,2.1934,2.1906,2.1742,2.1696,2.1696,2.1696,2.1696,2.1696,2.1696,2.1696,2.1696,2.1696,2.1696,2.1696,2.1696,2.1696,2.1696,2.1696,2.1696,2.1696,2.1696,2.1696,2.1696,2.1696,2.1696,2.1696,2.1696,2.1696,2.1696,2.1696,2.1696,2.1696,2.1696,2.1458,2.1291,2.1117,2.0888,2.0728,2.068,2.0449,2.0337,2.0292,2.0501,2.0409,2.005,2.0489,2.0372,2.6596,2.666,2.6592,2.6289,2.6611,2.7041,2.7168,2.7949,2.8818,2.9443,2.9658,2.9766,2.9834,2.9336,2.8877,2.876,2.8496,2.8291,2.8291,2.8291,2.8291,2.8291,2.8291,2.8291,2.8291,2.8291,2.8291,2.8291,2.813,2.8014,2.8014,2.7691,2.7539,2.7539,2.7431,2.7539,2.7745,2.7201,2.7106,2.7376,2.6323,2.5863,2.5884,2.5477,2.5186,2.4981,2.4637,2.444,2.4301,2.4202,2.4202,2.4202,2.4202,2.4202,2.4202,2.4202,2.4202,2.4128,2.3556,2.3334,2.3197,2.2382,2.2117,2.2062,2.1778,2.1696,2.1696,2.1696,2.1696,2.1696,2.1696,2.1696,2.1696,2.1696,2.1696,2.1696,2.1696,2.1696,2.1696,2.1696,2.1696,2.1696,2.1696,2.1696,2.1696,2.1696,2.1696,2.1696,2.1696,2.1696,2.1696,2.1696,2.1696,2.1696,2.1696,2.1696,2.173,2.1796,2.1612,2.1513,2.1438,2.1269,2.1173,2.1211,2.0912,2.0877,2.1085,2.1296,2.1298,2.1078,2.1631,2.1469,2.5684,2.5732,2.5723,2.5713,2.6396,2.7129,2.7549,2.8677,2.9597,2.956,2.9893,2.9932,2.9111,2.8935,2.8789,2.8379,2.8301,2.8291,2.8291,2.8291,2.8291,2.8291,2.8291,2.8291,2.8291,2.8291,2.8291,2.8291,2.8291,2.8291,2.8291,2.8014,2.7906,2.7906,2.7593,2.7377,2.7431,2.7034,2.6731,2.6612,2.6129,2.5806,2.5703,2.544,2.5284,2.5235,2.4735,2.448,2.4489,2.4301,2.4202,2.4202,2.4202,2.4202,2.4202,2.4202,2.4202,2.4091,2.3197,2.2922,2.2794,2.197,2.1705,2.1705,2.1696,2.1696,2.1696,2.1696,2.1696,2.1696,2.1696,2.1696,2.1696,2.1696,2.1696,2.1696,2.1696,2.1696,2.1696,2.1696,2.1696,2.1696,2.1696,2.1696,2.1696,2.1696,2.1696,2.1696,2.1696,2.1696,2.1696,2.1696,2.1696,2.1696,2.1696,2.1696,2.1831,2.2079,2.2386,2.2486,2.2383,2.2663,2.2636,2.2268,2.2247,2.2237,2.2237,2.2264,2.2253,2.2253,2.2253,2.2253,2.543,2.5538,2.5693,2.5693,2.6387,2.7129,2.7568,2.8428,2.9219,2.9567,2.9453,2.9258,2.8975,2.8691,2.8457,2.831,2.8291,2.8291,2.8291,2.8291,2.8291,2.8291,2.8291,2.8291,2.8291,2.8291,2.8291,2.8291,2.8291,2.8291,2.8291,2.8237,2.8184,2.8184,2.8077,2.8023,2.8023,2.7377,2.7016,2.6849,2.614,2.5722,2.5693,2.5586,2.5489,2.5284,2.5088,2.4932,2.4735,2.4489,2.439,2.439,2.4251,2.4202,2.4202,2.4202,2.4202,2.4091,2.3187,2.2904,2.2776,2.1952,2.1696,2.1696,2.1696,2.1696,2.1696,2.1696,2.1696,2.1696,2.1696,2.1696,2.1741,2.1919,2.183,2.1776,2.2087,2.1909,2.1731,2.1919,2.183,2.1785,2.1919,2.183,2.1696,2.1696,2.1696,2.1696,2.1696,2.1696,2.1696,2.1696,2.1696,2.1776,2.1963,2.2511,2.279,2.2712,2.3083,2.3149,2.2741,2.2569,2.2488,2.2515,2.2515,2.259,2.2761,2.3268,2.339,2.3165,2.3717,2.3596,2.5284,2.5489,2.5723,2.5937,2.6611,2.7363,2.7793,2.8545,2.9189,2.9307,2.9111,2.8877,2.8721,2.8476,2.8291,2.8291,2.8291,2.8291,2.8291,2.8291,2.8291,2.8291,2.8291,2.8291,2.8291,2.8291,2.8291,2.8291,2.8291,2.8291,2.8291,2.8291,2.8291,2.8291,2.8291,2.8291,2.8291,2.7495,2.6914,2.6553,2.5947,2.5693,2.5693,2.5693,2.5586,2.544,2.5333,2.5186,2.503,2.4735,2.4637,2.4637,2.4399,2.4301,2.4291,2.4251,2.4251,2.4181,2.3235,2.2904,2.2776,2.1952,2.1696,2.1696,2.1696,2.1696,2.1696,2.1696,2.1696,2.1741,2.183,2.183,2.1909,2.2141,2.2087,2.2043,2.2353,2.2432,2.2511,2.2687,2.2809,2.2974,2.3149,2.3018,2.2921,2.2921,2.2921,2.2711,2.2176,2.2299,2.2511,2.2687,2.2687,2.2809,2.3149,2.3694,2.3892,2.3588,2.3972,2.4022,2.3616,2.3472,2.3441,2.3551,2.3551,2.3635,2.3841,2.4312,2.4432,2.4202,2.473,2.4635,2.5264,2.5518,2.583,2.6309,2.7051,2.7826,2.8164,2.8906,2.9385,2.8975,2.8906,2.8789,0.0,0.0,2.831,2.8301,2.8291,2.8291,2.8291,2.8291,2.8291,0.0,0.0,0.0,0.0,0.0,2.8291,2.8291,2.8291,2.8291,2.8291,2.8291,2.8291,2.8291,2.8291,2.8281,2.8262,2.7412,2.6562,2.5693,2.5693,2.5693,2.5693,2.5693,2.5693,2.5693,2.543,2.5333,2.5284,2.503,2.4932,2.4883,2.4627,2.448,2.4489,2.4251,2.435,2.4368,2.3301,2.2969,2.2823,2.2025,2.175,2.1741,2.1696,2.1696,2.1696,2.1696,2.1696,2.1785,2.2052,2.2097,2.2141,2.2353,2.2441,2.2476,2.2476,2.3202,2.3877,2.3877,2.4542,2.5126,2.5083,2.5126,2.5126,2.5083,2.5126,2.4628,2.3091,2.3464,2.4059,2.4488,2.4531,2.4691,2.5083,2.5168,2.5074,2.4713,2.5088,2.5207,2.4872,2.5159,2.5336,2.5312,2.5312,2.5312,2.5312,2.5312,2.5312,2.5312,2.5312,2.5312,2.5419,2.5863,2.6328,2.6748,2.7266,2.7748,2.7855,2.8242,2.8584,2.8476,2.8701,2.8789,0.0,0.0,0.0,2.834,2.8291,0.0,2.8291,2.8291,0.0,2.8291,0.0,2.8291,2.8291,2.8291,2.8291,2.8291,2.8291,2.8291,2.8291,2.8291,2.8291,2.8291,2.8291,2.8144,2.7885,2.6982,2.6279,2.5693,2.5693,2.5693,2.5693,2.5693,2.5693,2.5693,2.5635,2.5586,2.5586,2.5294,2.5186,2.5137,2.4686,2.448,2.4489,2.4251,2.435,2.4414,2.3855,2.3569,2.3364,2.2657,2.2249,2.1963,2.1785,2.1696,2.1696,2.1696,2.1696,2.1785,2.2052,2.2097,2.2185,2.2583,2.3081,2.3541,2.3897,2.4382,2.484,2.502,2.5231,2.5347,2.5126,2.5263,2.5347,2.5126,2.5568,2.5579,2.4628,2.466,2.4787,2.4925,2.4967,2.5052,2.5358,2.5975,2.6255,2.595,2.6663,2.6678,2.5804,2.5865,2.5709,2.5312,2.5312,2.5312,2.5312,2.5312,2.5312,2.5312,2.5312,2.5312,2.5718,2.6196,2.6606,2.7187,2.748,2.7767,2.79,2.8125,2.8291,2.8291,2.8633,0.0,2.8613,2.876,0.0,0.0,0.0,0.0,2.8291,2.8291,2.8291,0.0,2.8291,0.0,2.8291,2.8291,2.8291,2.8291,2.8291,2.8291,2.8291,2.8291,2.8291,2.8291,2.8291,2.7998,2.7393,2.6719,2.6172,2.5693,2.5693,2.5693,2.5693,2.5693,2.5693,2.5693,2.5693,2.5693,2.5693,2.5538,2.5489,2.543,2.503,2.4833,2.4784,2.444,2.4538,2.4796,2.4472,2.4307,2.4133,2.3072,2.2423,2.2052,2.1785,2.1696,2.1696,2.1696,2.1785,2.1919,2.2185,2.2318,2.2618,2.3353,2.381,2.4274,2.4946,2.5568,2.6193,2.67,2.6835,2.6782,2.6607,2.6741,2.6782,2.6595,2.6958,2.7051,2.6648,2.6276,2.611,2.6287,2.6329,2.6453,2.6782,2.7244,2.7358,2.6987,2.7445,2.7306,2.6502,2.6466,2.6202,2.5661,2.5661,2.554,2.5312,2.5312,2.5312,2.5312,2.5312,2.5312,2.6041,2.6464,2.6837,2.7532,2.7744,2.7894,2.8203,2.8291,2.8291,2.8291,0.0,2.8916,2.8916,2.8916,2.8916,2.8916,0.0,2.8291,2.8291,2.8291,2.8291,2.8291,2.8291,2.8291,2.8291,2.8291,2.8291,2.8291,2.8291,2.8291,2.8291,2.8291,2.8291,2.8291,2.8184,2.7764,2.7021,2.6543,2.6113,2.5693,2.5693,2.5693,2.5693,2.5693,2.5693,2.5693,2.5693,2.5693,2.5693,2.5693,2.5693,2.5684,2.5391,2.5284,2.5235,2.4686,2.4833,2.5235,2.4981,2.4996,2.4837,2.3352,2.2597,2.2206,2.1883,2.1776,2.1731,2.1731,2.1998,2.2309,2.252,2.2872,2.3396,2.4413,2.4787,2.5084,2.583,2.6712,2.7603,2.8339,2.851,2.851,2.851,2.851,2.851,2.851,2.851,2.851,2.851,2.7846,2.7522,2.7921,2.7962,2.8122,2.8471,2.851,2.8318,2.7861,2.7825,2.7546,2.7018,2.7006,2.6741,2.6226,2.6214,2.5985,2.5528,2.5528,2.5528,2.5528,2.5528,2.5528,2.6222,2.6745,2.7208,2.7748,2.8014,2.8203,2.8271,2.8291,0.0,0.0,2.8633,2.8916,2.8916,2.8916,2.8916,2.8916,2.8564,2.8291,2.8291,2.8291,2.8291,0.0,2.8291,2.8291,2.8291,2.8291,2.8291,2.8291,2.8291,2.8291,2.8291,2.8291,2.8291,2.8291,2.7607,2.7168,2.7012,2.624,2.5762,2.5693,2.5693,2.5693,2.5693,2.5693,2.5693,2.5693,2.5693,2.5693,2.5693,2.5693,2.5693,2.5684,2.5391,2.5284,2.5235,2.4686,2.4833,2.5235,2.4981,2.4996,2.4933,2.4111,2.3568,2.3066,2.2457,2.2176,2.2052,2.2052,2.2599,2.3226,2.3497,2.4307,2.5105,2.5495,2.6174,2.6764,2.6928,2.7632,2.8311,2.8471,2.851,2.851,2.851,2.851,2.851,2.851,2.851,2.851,2.851,2.8391,2.8311,2.8391,2.8391,2.8431,2.851,2.851,2.8474,2.8378,2.8378,2.8138,2.757,2.7546,2.7294,2.6765,2.6753,2.6705,2.6621,2.6621,2.6621,2.6621,2.6621,2.6621,2.6588,2.6915,2.7166,2.7536,2.7853,2.8067,2.8067,0.0,0.0,0.0,2.8633,2.8916,2.8916,2.8916,0.0,2.8916,0.0,0.0,0.0,0.0,0.0,0.0,2.8291,2.8291,2.8291,2.8291,2.8291,2.8291,2.8291,2.8291,2.8291,2.8291,2.8193,2.7969,2.7353,2.6914,2.6689,2.6005,2.5693,2.5693,2.5693,2.5693,2.5693,2.5693,2.5693,2.5693,2.5693,2.5693,2.5693,2.5693,2.5693,2.5693,2.5538,2.5489,2.544,2.4883,2.5039,2.5528,2.5645,2.5932,2.6195,2.6156,2.5234,2.4123,2.4193,2.3807,2.3377,2.3617,2.3877,2.4221,2.4595,2.5189,2.5777,2.637,2.7214,2.7886,2.7886,2.8219,2.851,2.851,2.851,2.851,2.851,2.851,2.851,2.851,2.851,2.851,2.851,2.851,2.851,2.851,2.851,2.851,2.851,2.851,2.851,2.851,2.851,2.8402,2.8138,2.8138,2.7846,2.7318,2.7306,2.7174,2.6898,2.6898,2.6898,2.6898,2.6898,2.6898,2.6752,2.6935,2.7043,2.726,2.7584,2.7799,2.7906,2.8067,0.0,0.0,2.8555,2.8809,2.8896,0.0,2.8818,0.0,2.8564,0.0,0.0,0.0,0.0,0.0,0.0,0.0,2.8291,2.8291,2.8291,2.8291,2.8203,2.8154,2.8154,2.8154,2.7969,2.7539,2.7109,2.6728,2.6396,2.5908,2.5693,2.5693,2.5693,2.5693,2.5693,2.5693,2.5693,2.5693,2.5693,2.5693,2.5693,2.5693,2.5693,2.5693,2.5693,2.5693,2.5635,2.5284,2.5518,2.61,2.6494,2.7047,2.7646,2.8346,2.7187,2.5586,2.5935,2.5497,2.4912,2.5126,2.5231,2.5326,2.5694,2.6069,2.6577,2.7296,2.8018,2.851,2.851,2.851,2.851,2.851,2.851,2.851,2.851,2.851,2.851,2.851,2.851,2.851,2.851,2.851,2.851,2.851,2.851,2.851,2.851,2.851,2.851,2.851,2.851,2.851,2.851,2.851,2.8318,2.7897,2.7885,2.7642,2.7234,2.7234,2.7234,2.7234,2.7234,2.7234,2.6627,2.6791,2.6989,2.7043,2.726,2.753,2.7853,0.0,0.0,2.8237,2.832,2.8467,2.8848,2.8603,2.8476,2.8857,0.0,2.8291,0.0,0.0,0.0,0.0,0.0,0.0,2.8291,2.8291,2.8291,2.8291,2.7939,2.7777,2.7777,2.7777,2.7519,2.709,2.667,2.6426,2.6387,2.5908,2.5693,2.5693,2.5693,2.5693,2.5693,2.5693,2.5693,2.5693,2.5693,2.5693,2.5693,2.5693,2.5693,2.5693,2.5693,2.5693,2.5732,2.5907,2.6456,2.7105,2.7389,2.7945,2.8716,2.9693,2.8992,2.7642,2.6802,2.6335,2.6034,2.5602,2.6027,2.6648,2.6689,2.7458,2.8259,2.8351,2.8431,2.851,2.851,2.851,2.851,2.851,2.851,2.851,2.851,2.851,2.851,2.851,2.851,2.851,2.851,2.851,2.851,2.851,2.851,2.851,2.851,2.851,2.851,2.851,2.851,2.851,2.851,2.851,2.8486,2.8438,2.8438,2.8414,2.8366,2.8366,2.8366,2.8366,2.8366,2.8366,2.6591,2.6691,2.6736,2.6736,2.6944,2.7206,2.7314,0.0,2.7521,2.7627,2.7795,2.7969,2.8135,2.8232,2.835,2.8516,0.0,0.0,0.0,0.0,0.0,0.0,2.8291,0.0,0.0,2.8291,2.8291,2.8291,2.791,2.7559,2.7285,2.7275,2.708,2.665,2.6475,2.626,2.5996,2.5771,2.5693,2.5693,2.5693,2.5693,2.5693,2.5693,2.5693,2.5693,2.5693,2.5693,2.5693,2.5693,2.5693,2.5781,2.637,2.6428,2.6255,2.6802,2.7315,2.7741,2.8294,2.898,2.9749,3.0779,3.0728,3.0113,2.9393,2.8487,2.7706,2.7762,2.762,2.7522,2.7753,2.8167,2.851,2.851,2.851,2.851,2.851,2.851,2.851,2.851,2.851,2.851,2.851,2.851,2.851,2.851,2.851,2.851,2.851,2.851,2.851,2.851,2.851,2.851,2.851,2.851,2.851,2.851,2.851,2.851,2.851,2.851,2.851,2.851,2.851,2.851,2.851,2.851,2.851,2.851,2.851,2.851,2.6591,2.6591,2.6591,2.6591,2.6736,2.6862,0.0,0.0,2.697,2.7002,2.7201,2.7458,2.7646,2.791,2.8144,2.8271,0.0,2.8291,2.8291,0.0,0.0,0.0,0.0,2.8291,2.8291,2.8291,2.8242,2.8115,2.7715,2.7285,2.6855,2.6709,2.6504,2.6201,2.6191,2.6045,2.5693,2.5693,2.5693,2.5693,2.5693,2.5693,2.5693,2.5693,2.5693,2.5693,2.5693,2.5693,2.5732,2.6004,2.6139,2.6235,2.7237,2.7352,2.7013,2.7694,2.8164,2.8549,2.9187,2.9954,3.0779,3.1472,3.1705,3.1633,3.1259,3.0257,2.9272,2.9306,2.8729,2.8122,2.8431,2.851,2.851,2.851,2.851,2.851,2.851,2.851,2.851,2.851,2.851,2.851,2.851,2.851,2.851,2.851,2.851,2.851,2.851,2.851,2.851,2.851,2.851,2.851,2.851,2.851,2.851,2.851,2.851,2.851,2.851,2.851,2.851,2.851,2.851,2.851,2.851,2.851,2.851,2.851,2.851,2.851,2.6591,2.6591,2.6591,2.6591,2.6591,2.659,0.0,0.0,2.643,2.6586,2.6602,2.683,2.7588,2.7718,2.7865,2.8223,2.8291,0.0,2.8291,0.0,0.0,0.0,2.8291,2.8291,2.8291,2.8291,2.8125,2.7757,2.7266,2.6836,2.6416,2.5986,2.5703,2.5693,2.5693,2.5693,2.5693,2.5693,2.5693,2.5693,2.5693,2.5693,2.5693,2.5693,2.5693,2.5693,2.5693,2.5693,2.5781,2.6781,2.7189,2.7274,2.8308,2.8376,2.8034,2.8491,2.9013,2.9531,3.0034,3.0847,3.1705,3.1705,3.1705,3.1705,3.1705,3.1332,3.0639,2.9593,2.8919,2.851,2.851,2.851,2.851,2.851,2.851,2.851,2.851,2.851,2.851,2.851,2.851,2.851,2.851,2.851,2.851,2.851,2.851,2.851,2.851,2.851,2.851,2.851,2.851,2.851,2.851,2.851,2.851,2.851,2.851,2.851,2.851,2.851,2.851,2.851,2.851,2.851,2.851,2.851,2.851,2.851,2.851,2.851,2.6591,2.6591,2.6591,2.6591,2.6591,2.6535,2.622,0.0,2.5914,2.5618,2.5907,2.6268,2.6505,2.7162,2.7767,2.7894,2.8105,0.0,0.0,0.0,0.0,2.8291,2.8291,2.8291,2.8291,2.8027,2.7865,2.7728,2.6992,2.6533,2.6396,2.5977,2.5693,2.5693,2.5693,2.5693,2.5693,2.5693,2.5693,2.5693,2.5693,2.5693,2.5693,2.5693,2.5693,2.5693,2.5693,2.5693,2.5781,2.6781,2.7189,2.7379,2.905,2.9452,2.9071,2.9566,2.984,2.9988,3.017,3.0623,3.1205,3.1572,3.1705,3.1705,3.1705,3.1344,3.0735,3.0037,2.9713,2.9508,2.9136,2.9051,2.8955,2.8595,2.851,2.851,2.851,2.851,2.851,2.851,2.851,2.851,2.851,2.851,2.851,2.851,2.851,2.851,2.851,2.851,2.851,2.851,2.851,2.851,2.851,2.851,2.851,2.851,2.851,2.851,2.851,2.851,2.851,2.851,2.851,2.851,2.851,2.851,2.851,2.851,2.851,2.851,0.0,2.6591,2.6591,2.6591,2.6472,2.6296,0.0,0.0,2.534,2.4945,2.5161,2.5526,2.5948,2.6563,2.7182,2.7617,2.7891,2.8115,0.0,0.0,0.0,2.8291,2.8154,2.8206,2.8555,2.7865,2.755,2.7741,2.6931,2.6318,2.6152,2.584,2.5693,2.5693,2.5693,2.5693,2.5693,2.5693,2.5693,2.5693,2.5693,2.5693,2.5693,2.5693,2.5693,2.5693,2.5693,2.5917,0.0,2.7332,2.7981,2.8495,3.0125,3.0464,3.0034,3.017,3.0216,3.0216,3.0216,3.0487,3.0994,3.1528,3.1705,3.1705,3.1705,3.1344,3.085,3.0525,3.0242,3.0013,2.9689,2.9593,2.9508,2.9184,2.91,2.91,2.91,2.8943,2.8811,2.8811,2.8643,2.851,2.851,2.851,2.851,2.851,2.851,2.851,2.851,2.851,2.851,2.851,2.851,2.851,2.851,2.851,2.851,2.851,2.851,2.851,2.851,2.851,2.851,2.851,2.851,2.851,2.851,2.851,2.851,2.851,2.851,2.851,0.0,2.6591,2.6591,2.6591,2.627,2.5911,0.0,0.0,0.0,0.0,2.4538,2.4798,2.5752,2.6008,2.6398,2.748,2.7751,2.796,0.0,2.8495,0.0,0.0,2.8163,2.8251,2.9106,2.7954,2.7392,2.7858,2.7081,2.635,2.5849,2.583,2.583,2.583,2.5732,2.5693,2.5693,2.5693,2.5693,2.5693,2.5693,2.5693,2.5693,2.5781,2.583,2.583,2.5868,2.6418,2.7369,2.8402,2.9372,3.0306,3.1294,3.1395,3.0904,3.0397,3.0216,3.0216,3.0216,3.0487,3.0949,3.1528,3.1705,3.1705,3.1705,3.1368,3.097,3.097,3.0621,3.0194,3.0158,3.0146,3.0134,3.0098,3.0086,3.0086,3.0086,2.9701,2.9352,2.9352,2.8955,2.8607,2.857,2.857,2.8546,2.8522,2.851,2.851,2.851,2.851,2.851,2.851,2.851,2.851,2.851,2.851,2.851,2.851,2.851,2.851,2.851,2.851,2.851,2.851,2.851,2.851,2.851,2.851,2.851,2.851,2.851,2.851,2.6591,0.0,2.6591,2.6591,2.627,2.5911,0.0,0.0,0.0,0.0,0.0,0.0,0.0,0.0,2.6502,2.708,2.8144,2.9065,2.9452,3.0287,0.0,3.0264,3.0136,3.0024,2.9809,2.9153,2.8494,2.7935,2.8041,2.7778,2.6877,2.6877,2.6877,2.6877,2.61,2.5693,2.5693,2.5693,2.5693,2.5693,2.5693,2.5693,2.5732,2.6514,2.6877,2.6867,2.7662,2.8132,2.8448,2.9418,2.9977,3.0306,3.1294,3.1617,3.1395,3.0532,3.0216,3.0216,3.0216,3.0261,3.0532,3.1395,3.1705,3.1705,3.1705,3.1621,3.1524,3.1524,3.1428,3.1247,3.0838,3.073,3.0591,3.0182,3.0086,3.0086,3.0086,2.9989,2.9893,2.9893,2.9797,2.9593,2.9184,2.9112,2.8979,2.857,2.851,2.851,2.851,2.851,2.851,2.851,2.851,2.851,2.851,2.851,2.851,2.851,2.851,2.851,2.851,2.851,2.851,2.851,2.851,2.851,2.851,2.851,2.851,2.851,2.851,2.851,2.6591,2.6591,2.6591,2.6591,2.6133,2.569,2.547,0.0,0.0,0.0,0.0,0.0,0.0,0.0,0.0,0.0,2.8599,2.9926,0.0,0.0,3.1109,3.0837,3.0373,3.0198,3.0378,2.9558,2.899,2.8954,2.8787,2.8448,2.7934,2.7887,2.7699,2.7237,2.6696,2.6197,2.5693,2.5693,2.5693,2.5693,2.5693,2.5965,2.6418,2.6962,2.7463,2.7934,2.8448,2.8958,2.9418,2.9977,3.0453,3.0958,3.1472,3.1705,3.1617,3.0802,3.0397,3.0216,3.0442,3.0668,3.0982,3.1528,3.1705,3.1705,3.1705,3.1705,3.1705,3.1705,3.1705,3.1645,3.1356,3.1284,3.1211,3.0922,3.0807,3.0807,3.0807,3.0627,3.0446,3.0446,3.0254,2.9989,2.9713,2.9665,2.9569,2.928,2.9027,2.8871,2.8871,2.8655,2.851,2.851,2.851,2.851,2.851,2.851,2.851,2.851,2.851,2.851,2.851,2.851,2.851,2.851,2.851,2.851,2.851,2.851,2.851,2.851,2.851,2.851,2.6591,2.6591,2.6591,2.6591,2.5977,2.5424,2.5424,0.0,0.0,0.0,0.0,0.0,0.0,0.0,0.0,0.0,0.0,3.0662,3.17,3.1468,3.118,3.1053,3.0312,3.0111,3.0836,2.986,2.9464,3.017,2.9555,2.9096,2.8958,2.8912,2.8541,2.7699,2.7369,2.6781,2.5917,2.5781,2.5781,2.5917,2.5917,2.6466,2.7426,2.7689,2.8228,2.9079,2.9296,2.9884,3.0684,3.0603,3.1043,3.1825,3.1741,3.1705,3.1617,3.1083,3.0623,3.0352,3.0769,3.1261,3.1705,3.1705,3.1705,3.1705,3.1705,3.1705,3.1705,3.1705,3.1705,3.1705,3.1705,3.1705,3.1705,3.1705,3.1705,3.1705,3.1705,3.1356,3.1043,3.1043,3.0681,3.0302,3.0218,3.0206,3.0182,3.0098,2.9701,2.9412,2.9412,2.9027,2.8751,2.8751,2.8679,2.8631,2.8631,2.8558,2.851,2.851,2.851,2.851,2.851,2.851,2.851,2.851,2.851,2.851,2.851,2.851,2.851,2.851,2.851,2.851,2.6591,2.6591,2.6591,2.6591,2.5977,2.5424,2.5424,0.0,0.0,0.0,0.0,0.0,0.0,0.0,2.7116,0.0,0.0,3.1754,3.2866,3.2972,3.2758,3.2308,3.2118,3.1879,3.1595,3.1386,3.0958,3.026,3.0869,3.0869,3.0022,2.9977,2.9886,2.9749,2.8075,2.7142,2.6962,2.6149,2.6149,2.6962,2.6962,2.7521,2.8505,2.9831,3.0511,3.0719,3.2019,3.2696,3.2811,3.2311,3.2223,3.2322,3.1898,3.1705,3.1617,3.1083,3.0847,3.0814,3.0859,3.1261,3.1705,3.1705,3.1705,3.1705,3.1705,3.1705,3.1705,3.1705,3.1705,3.1705,3.1705,3.1705,3.1705,3.1705,3.1705,3.1705,3.1705,3.1645,3.1585,3.1585,3.1524,3.132,3.0874,3.0802,3.0603,3.0158,3.0013,2.9965,2.9965,2.9893,2.9845,2.9845,2.9448,2.9184,2.9184,2.8775,2.851,2.851,2.851,2.851,2.851,2.851,2.851,2.851,2.851,2.851,2.851,2.851,2.851,2.851,2.851,2.851,2.6591,2.6591,2.6591,2.6591,2.5977,2.5424,2.5424,0.0,0.0,0.0,0.0,0.0,0.0,0.0,2.8632,3.0405,3.1495,3.2369,3.3202,3.3044,3.2779,3.2527,3.2238,3.1994,3.1729,3.1705,3.1528,3.1059,3.1427,3.1516,3.1048,3.1003,3.0779,3.0215,2.928,2.8588,2.8028,2.702,2.6733,2.7189,2.7189,2.8166,2.9948,3.0662,3.1449,3.2264,3.299,3.3284,3.3272,3.3032,3.2755,3.2478,3.2214,3.1982,3.1617,3.1083,3.1083,3.1306,3.0994,3.1261,3.1705,3.1705,3.1705,3.1705,3.1705,3.1705,3.1705,3.1705,3.1705,3.1705,3.1705,3.1705,3.1705,3.1705,3.1705,3.1705,3.1705,3.1705,3.1705,3.1705,3.1705,3.1633,3.138,3.1344,3.1259,3.1019,3.0742,3.0506,3.0506,3.0266,3.0086,3.0086,2.9869,2.9725,2.9725,2.9244,2.8823,2.8522,2.851,2.851,2.851,2.851,2.851,2.851,2.851,2.851,2.851,2.851,2.851,2.851,2.851,2.8667,2.6591,2.6591,2.6564,2.6463,2.5957,2.5424,2.5424,0.0,0.0,0.0,0.0,0.0,0.0,2.7757,3.0,3.2001,3.2298,3.2442,3.2851,3.2563,3.2298,3.2298,3.197,3.1705,3.1705,3.1705,3.1705,3.1705,3.1705,3.1705,3.1705,3.1705,3.1339,3.0588,3.0306,2.9841,2.905,2.8075,2.7652,2.7887,2.7652,2.8896,3.1356,3.1472,3.2241,3.3464,3.3597,3.3645,3.3645,3.3513,3.3224,3.2839,3.2599,3.2154,3.1661,3.1261,3.135,3.1617,3.1083,3.1261,3.1661,3.1528,3.1617,3.1705,3.1705,3.1705,3.1705,3.1705,3.1705,3.1705,3.1705,3.1705,3.1705,3.1705,3.1705,3.1705,3.1705,3.1705,3.1705,3.1705,3.1705,3.1705,3.1705,3.1705,3.1705,3.1705,3.1356,3.1103,3.1103,3.0711,3.0458,3.0458,3.035,3.0218,3.0098,2.9713,2.9316,2.8907,2.8643,2.851,2.851,2.851,2.851,2.851,2.851,2.851,2.851,2.8643,2.8691,2.8703,2.8823,2.9088,2.6591,2.6591,2.649,2.6159,2.5736,0.0,2.5424,2.5327,0.0,0.0,0.0,0.0,0.0,2.8899,3.0499,3.1588,3.1765,3.1789,3.1813,3.1789,3.1765,3.1765,3.1729,3.1705,3.1705,3.1705,3.1705,3.1705,3.1705,3.1705,3.1705,3.1705,3.1661,3.1572,3.0689,3.017,3.0068,2.9096,2.905,2.9977,2.905,2.9929,3.2424,3.2915,3.3407,3.397,3.4462,3.4667,3.4631,3.4138,3.3922,3.379,3.2875,3.2154,3.1705,3.1661,3.1661,3.1617,3.1083,3.1261,3.1617,3.1128,3.1306,3.1705,3.1705,3.1705,3.1705,3.1705,3.1705,3.1705,3.1705,3.1705,3.1705,3.1705,3.1705,3.1705,3.1705,3.1705,3.1705,3.1705,3.1705,3.1705,3.1705,3.1705,3.1705,3.1705,3.1681,3.1657,3.1657,3.1621,3.1597,3.1597,3.1151,3.0627,3.0122,3.005,3.0013,2.9977,2.9051,2.851,2.851,2.851,2.851,2.851,2.851,2.851,2.851,2.9003,2.9244,2.9256,2.9749,2.9989,2.6591,2.6591,2.6554,2.6389,0.0,0.0,0.0,0.0,0.0,2.5294,2.6302,0.0,0.0,0.0,3.0442,3.1071,3.1484,3.1705,3.1705,3.1705,3.1705,3.1705,3.1705,3.1705,3.1705,3.1705,3.1705,3.1705,3.1705,3.1705,3.1705,3.1705,3.1705,3.1705,3.1339,3.1149,3.1149,3.0125,3.0125,3.1104,3.0125,3.0801,3.2996,3.32,3.3741,3.4498,3.4691,3.4775,3.4763,3.457,3.4294,3.3886,3.2899,3.2154,3.1705,3.1705,3.1705,3.1661,3.1484,3.1528,3.1673,3.1439,3.1528,3.1705,3.1705,3.1705,3.1705,3.1705,3.1705,3.1705,3.1705,3.1705,3.1705,3.1705,3.1705,3.1705,3.1705,3.1705,3.1705,3.1705,3.1705,3.1705,3.1705,3.1705,3.1705,3.1705,3.1705,3.1705,3.1705,3.1705,3.1705,3.1705,3.1524,3.1199,3.0627,3.0621,3.0477,3.011,2.9713,2.9484,2.9484,2.9172,2.916,2.9484,2.9172,2.916,2.9496,2.9689,2.9785,2.9797,2.9989,3.0266,2.6591,2.6591,2.6527,0.0,0.0,0.0,0.0,0.0,0.0,0.0,2.7067,0.0,2.9301,0.0,3.017,3.0814,3.1217,3.1484,3.1661,3.1705,3.1705,3.1705,3.1705,3.1705,3.1705,3.1705,3.1705,3.1705,3.1705,3.1705,3.1705,3.1705,3.1705,3.1705,3.1705,3.1705,3.1705,3.1015,3.1003,3.1705,3.1003,3.1614,3.3284,3.3284,3.3849,3.4775,3.4775,3.4775,3.4775,3.4775,3.4378,3.367,3.2839,3.2154,3.1705,3.1705,3.1705,3.1661,3.1484,3.1572,3.1661,3.1484,3.1572,3.1705,3.1705,3.1705,3.1705,3.1705,3.1705,3.1705,3.1705,3.1705,3.1705,3.1705,3.1705,3.1705,3.1705,3.1705,3.1705,3.1705,3.1705,3.1705,3.1705,3.1705,3.1705,3.1705,3.1705,3.1705,3.1705,3.1705,3.1705,3.1705,3.1705,3.156,3.1199,3.1163,3.1019,3.0645,3.0633,3.0434,3.0098,2.9737,2.9725,3.0074,2.9737,2.9725,3.0086,3.0254,3.0338,3.0338,3.0549,3.0783,2.6591,2.6591,2.6389,0.0,0.0,0.0,0.0,0.0,0.0,2.7447,2.8269,2.8943,2.9393,2.9485,2.9806,3.0724,3.0892,3.1083,3.1617,3.1705,3.1705,3.1705,3.1705,3.1705,3.1705,3.1705,3.1705,3.1705,3.1705,3.1705,3.1705,3.1705,3.1705,3.1705,3.1705,3.1705,3.1705,3.1705,3.1705,3.1705,3.1705,3.2271,3.3284,3.3284,3.3849,3.4775,3.4775,3.4775,3.4775,3.4775,3.421,3.3224,3.2707,3.2154,3.1705,3.1705,3.1705,3.1617,3.1083,3.1261,3.1617,3.1083,3.1261,3.1705,3.1705,3.1705,3.1705,3.1705,3.1705,3.1705,3.1705,3.1705,3.1705,3.1705,3.1705,3.1705,3.1705,3.1705,3.1705,3.1705,3.1705,3.1705,3.1705,3.1705,3.1705,3.1705,3.1705,3.1705,3.1705,3.1705,3.1705,3.1705,3.1705,3.1705,3.1705,3.1705,3.1705,3.1705,3.1705,3.1235,3.0146,3.0098,3.0098,3.011,3.0098,3.0098,3.011,3.0627,3.0922,3.0946,3.1464,3.1705,2.6591,2.6591,0.0,2.5975,0.0,0.0,0.0,0.0,0.0,0.0,2.8606,2.885,2.8978,2.9255,2.9577,2.9852,3.0487,3.0949,3.1128,3.1439,3.1705,3.1705,3.1705,3.1705,3.1705,3.1705,3.1705,3.1705,3.1705,3.1705,3.1705,3.1705,3.1705,3.1705,3.1705,3.1705,3.1705,3.1705,3.1705,3.1705,3.1705,3.2034,3.2743,3.3116,3.3645,3.4246,3.4619,3.4775,3.4751,3.4378,3.3622,3.2719,3.2563,3.2154,3.1705,3.1705,3.1705,3.1661,3.1528,3.1572,3.1661,3.1528,3.1572,3.1705,3.1705,3.1705,3.1705,3.1705,3.1705,3.1705,3.1705,3.1705,3.1705,3.1705,3.1705,3.1705,3.1705,3.1705,3.1705,3.1705,3.1705,3.1705,3.1705,3.1705,3.1705,3.1705,3.1705,3.1705,3.1705,3.1705,3.1705,3.1705,3.1705,3.1705,3.1705,3.1705,3.1705,3.1705,3.1705,3.1573,3.1247,3.0874,3.0819,3.1235,3.0874,3.0874,3.1247,3.1404,3.1476,3.1476,3.1633,3.1705,2.6591,2.6591,0.0,2.592,2.5598,2.5526,2.6032,0.0,0.0,0.0,2.8803,2.8803,2.8803,2.9024,2.9255,2.9485,2.9988,3.0487,3.0859,3.1172,3.1439,3.1661,3.1705,3.1705,3.1705,3.1705,3.1705,3.1705,3.1705,3.1705,3.1705,3.1705,3.1705,3.1705,3.1705,3.1705,3.1705,3.1705,3.1705,3.1705,3.1705,3.1886,3.219,3.2731,3.326,3.3765,3.4078,3.4222,3.4174,3.3645,3.3068,3.2478,3.2262,3.1961,3.1705,3.1705,3.1705,3.1705,3.1705,3.1705,3.1705,3.1705,3.1705,3.1705,3.1705,3.1705,3.1705,3.1705,3.1705,3.1705,3.1705,3.1705,3.1705,3.1705,3.1705,3.1705,3.1705,3.1705,3.1705,3.1705,3.1705,3.1705,3.1705,3.1705,3.1705,3.1705,3.1705,3.1705,3.1705,3.1705,3.1705,3.1705,3.1705,3.1705,3.1705,3.1705,3.1705,3.1705,3.1705,3.1705,3.1705,3.1404,3.138,3.1705,3.1392,3.1392,3.1705,3.1705,3.1837,3.2101,3.1837,3.1837,2.6591,0.0,0.0,2.5672,2.5424,0.0,2.6308,2.702,2.7741,2.8606,0.0,2.8803,2.8803,2.8803,2.8943,2.9347,2.9485,2.9806,3.0724,3.0859,3.1083,3.1617,3.1705,3.1705,3.1705,3.1705,3.1705,3.1705,3.1705,3.1705,3.1705,3.1705,3.1705,3.1705,3.1705,3.1705,3.1705,3.1705,3.1705,3.1705,3.1705,3.1705,3.1729,3.225,3.2791,3.3284,3.3284,3.326,3.3176,3.2695,3.2466,3.237,3.191,3.1705,3.1705,3.1705,3.1705,3.1705,3.1705,3.1705,3.1705,3.1705,3.1705,3.1705,3.1705,3.1705,3.1705,3.1705,3.1705,3.1705,3.1705,3.1705,3.1705,3.1705,3.1705,3.1705,3.1705,3.1705,3.1705,3.1705,3.1705,3.1705,3.1705,3.1705,3.1705,3.1705,3.1705,3.1705,3.1705,3.1705,3.1705,3.1705,3.1705,3.1705,3.1705,3.1705,3.1705,3.1705,3.1749,3.1749,3.1705,3.1705,3.1705,3.1705,3.1705,3.1705,3.1793,3.1793,3.2145,3.2797,3.2189,3.2189,2.6591,2.6591,0.0,0.0,2.5414,2.5222,2.6238,2.6648,2.7125,2.8513,2.8803,2.8803,2.8803,2.8803,2.885,2.8932,2.9255,2.9715,3.0261,3.0679,3.1083,3.1617,3.1705,3.1705,3.1705,3.1705,3.1705,3.1705,3.1705,3.1705,3.1705,3.1705,3.1705,3.1705,3.1705,3.1705,3.1705,3.1705,3.1705,3.1705,3.1705,3.1705,3.1729,3.225,3.2791,3.3284,3.3284,3.3056,3.2659,3.2551,3.2238,3.1874,3.1753,3.1705,3.1705,3.1705,3.1705,3.1705,3.1705,3.1705,3.1705,3.1705,3.1705,3.1705,3.1705,3.1705,3.1705,3.1705,3.1705,3.1705,3.1705,3.1705,3.1705,3.1705,3.1705,3.1705,3.1705,3.1705,3.1705,3.1705,3.1705,3.1705,3.1705,3.1705,3.1705,3.1705,3.1705,3.1705,3.1705,3.1705,3.1705,3.1705,3.1705,3.1705,3.1705,3.1705,3.1705,3.1705,3.2189,3.2232,3.1705,3.1705,3.1705,3.1705,3.1705,3.1969,3.2494,3.2494,3.2828,3.3471,3.333,3.3086,0.0,0.0,0.0,2.5883,0.0,2.5019,2.5732,2.6215,2.6839,2.7977,2.8513,2.8803,2.8803,2.8803,2.8803,2.8803,2.9024,2.9347,2.9806,3.0261,3.0758,3.1261,3.1528,3.1813,3.2034,3.1862,3.1825,3.2046,3.1862,3.1705,3.1705,3.1705,3.1705,3.1705,3.1705,3.1705,3.1705,3.1705,3.1705,3.1705,3.1705,3.1705,3.1717,3.1973,3.225,3.2503,3.2503,3.2358,3.2094,3.2094,3.1925,3.1705,3.1705,3.1705,3.1705,3.1705,3.1705,3.1705,3.1705,3.1705,3.1705,3.1705,3.1705,3.1705,3.1705,3.1705,3.1705,3.1705,3.1705,3.1705,3.1705,3.1705,3.1705,3.1705,3.1705,3.1705,3.1705,3.1705,3.1705,3.1705,3.1705,3.1705,3.1705,3.1705,3.1705,3.1705,3.1705,3.1705,3.1705,3.1705,3.1705,3.1705,3.1705,3.1705,3.1705,3.1705,3.1705,3.1705,3.2013,3.2189,3.2189,3.2189,3.2189,3.2189,3.2481,3.2828,3.3172,3.3172,3.3501,3.4176,3.3839,3.367,0.0,0.0,0.0,0.0,2.5124,0.0,2.5223,2.5819,2.6504,2.7258,2.8175,2.8803,2.8803,2.8803,2.8803,2.8803,2.8803,2.8978,2.9439,2.9897,3.0352,3.0847,3.1478,3.1985,3.2454,3.2166,3.2094,3.2466,3.207,3.1813,3.1717,3.1705,3.1705,3.1705,3.1705,3.1705,3.1705,3.1705,3.1705,3.1705,3.1705,3.1705,3.1705,3.1705,3.1705,3.1705,3.1705,3.1705,3.1705,3.1705,3.1705,3.1705,3.1705,3.1705,3.1705,3.1705,3.1705,3.1705,3.1705,3.1705,3.1705,3.1705,3.1705,3.1705,3.1705,3.1705,3.1705,3.1705,3.1705,3.1705,3.1705,3.1705,3.1705,3.1705,3.1705,3.1705,3.1705,3.1705,3.1705,3.1705,3.1705,3.1705,3.1705,3.1705,3.1705,3.1705,3.1705,3.1705,3.1705,3.1705,3.1705,3.1705,3.1705,3.1705,3.1705,3.1705,3.1705,3.1705,3.1793,3.2057,3.2494,3.2754,3.2884,3.2884,3.3428,3.3755,3.3882,3.3882,3.4217,3.484,3.4301,3.4301,0.0,0.0,0.0,0.0,2.5387,2.5344,0.0,0.0,2.5674,2.6494,2.7799,2.8803,2.8803,2.8803,2.8803,2.8803,2.8803,2.8978,2.9439,2.9897,3.0352,3.0847,3.1779,3.2418,3.2491,3.2851,3.2911,3.2527,3.243,3.2178,3.1729,3.1705,3.1705,3.1705,3.1705,3.1705,3.1705,3.1705,3.1705,3.1705,3.1705,3.1705,3.1705,3.1705,3.1705,3.1705,3.1705,3.1705,3.1705,3.1705,3.1705,3.1705,3.1705,3.1705,3.1705,3.1705,3.1705,3.1705,3.1705,3.1705,3.1705,3.1705,3.1705,3.1705,3.1705,3.1705,3.1705,3.1705,3.1705,3.1705,3.1705,3.1705,3.1705,3.1705,3.1705,3.1705,3.1705,3.1705,3.1705,3.1705,3.1705,3.1705,3.1705,3.1705,3.1705,3.1705,3.1705,3.1705,3.1705,3.1705,3.1705,3.1705,3.1705,3.1705,3.1705,3.1705,3.1705,3.1705,3.2232,3.2363,3.1837,3.2945,3.3556,3.3556,3.3628,3.4008,3.4551,3.4551,3.4922,3.5548,3.5467,3.5182,2.6418,0.0,0.0,0.0,2.5589,2.5319,2.5073,2.5182,2.5392,2.5771,2.6733,2.7647,2.8023,2.8513,2.8803,2.8803,2.8803,2.8896,2.9071,2.9531,2.9988,3.0442,3.1407,3.2267,3.2911,3.3152,3.3308,3.3356,3.2827,3.2394,3.2142,3.1874,3.1705,3.1705,3.1705,3.1705,3.1705,3.1705,3.1705,3.1705,3.1705,3.1705,3.1705,3.1705,3.1705,3.1705,3.1705,3.1705,3.1705,3.1705,3.1705,3.1705,3.1705,3.1705,3.1705,3.1705,3.1705,3.1705,3.1705,3.1705,3.1705,3.1705,3.1705,3.1705,3.1705,3.1705,3.1705,3.1705,3.1705,3.1705,3.1705,3.1705,3.1705,3.1705,3.1705,3.1705,3.1705,3.1705,3.1705,3.1705,3.1705,3.1705,3.1705,3.1705,3.1705,3.1705,3.1705,3.1705,3.1705,3.1705,3.1705,3.1705,3.1705,3.1705,3.1705,3.1705,3.1705,3.1705,3.1969,3.2351,3.2815,3.3373,3.405,3.4799,3.4468,3.4592,3.5263,3.5263,3.5426,3.571,3.571,3.5548,0.0,0.0,0.0,0.0,0.0,2.5271,0.0,0.0,2.5011,2.5011,2.5635,2.635,2.6924,2.7835,2.856,2.8757,2.8803,2.8803,2.8803,2.9209,2.9714,3.0342,3.1274,3.231,3.3382,3.3597,3.3777,3.397,3.3332,3.2779,3.2515,3.2106,3.1849,3.1717,3.1705,3.1705,3.1705,3.1705,3.1705,3.1705,3.1705,3.1705,3.1705,3.1705,3.1705,3.1705,3.1705,3.1705,3.1705,3.1705,3.1705,3.1705,3.1705,3.1705,3.1705,3.1705,3.1705,3.1705,3.1705,3.1705,3.1705,3.1705,3.1705,3.1705,3.1705,3.1705,3.1705,3.1705,3.1705,3.1705,3.1705,3.1705,3.1705,3.1705,3.1705,3.1705,3.1705,3.1705,3.1705,3.1705,3.1705,3.1705,3.1705,3.1705,3.1705,3.1705,3.1705,3.1705,3.1705,3.1837,3.1969,3.1969,3.2101,3.222,3.222,3.222,3.222,3.222,3.222,3.2655,3.367,3.3713,3.4259,3.5426,3.4964,3.5046,3.571,3.571,3.571,3.571,3.571,3.571,0.0,0.0,0.0,0.0,0.0,0.0,0.0,2.4505,2.4251,2.4251,2.4873,2.5392,2.5382,2.6638,2.793,2.8699,2.8803,2.8803,2.8803,2.9209,2.9838,3.0824,3.1844,3.2842,3.3863,3.4402,3.4498,3.403,3.3946,3.349,3.2551,3.2466,3.2214,3.1729,3.1705,3.1705,3.1705,3.1705,3.1705,3.1705,3.1705,3.1705,3.1705,3.1705,3.1705,3.1705,3.1705,3.1705,3.1705,3.1705,3.1705,3.1705,3.1705,3.1705,3.1705,3.1705,3.1705,3.1705,3.1705,3.1705,3.1705,3.1705,3.1705,3.1705,3.1705,3.1705,3.1705,3.1705,3.1705,3.1705,3.1705,3.1705,3.1705,3.1705,3.1705,3.1705,3.1705,3.1705,3.1705,3.1705,3.1705,3.1705,3.1705,3.1705,3.1705,3.1705,3.1705,3.1705,3.1705,3.2232,3.2624,3.2624,3.3215,3.3586,3.3586,3.3586,3.3586,3.3586,3.3586,3.3628,3.3713,3.3713,3.405,3.4758,3.4716,3.5046,3.571,3.571,3.571,3.571,3.571,3.571,0.0,0.0,0.0,0.0,2.6104,2.5699,2.5304,2.4849,2.4532,2.4257,2.439,2.4726,2.5197,2.658,2.7683,2.7977,2.8466,2.8803,2.8803,2.8943,2.9537,3.0858,3.1598,3.2546,3.3887,3.4474,3.4703,3.451,3.4186,3.3826,3.3466,3.2863,3.2406,3.2202,3.1898,3.1705,3.1705,3.1705,3.1705,3.1705,3.1705,3.1705,3.1705,3.1705,3.1705,3.1705,3.1705,3.1705,3.1705,3.1705,3.1705,3.1705,3.1705,3.1705,3.1705,3.1705,3.1705,3.1705,3.1705,3.1705,3.1705,3.1705,3.1705,3.1705,3.1705,3.1705,3.1705,3.1705,3.1705,3.1705,3.1705,3.1705,3.1801,3.2118,3.2454,3.2707,3.2707,3.2442,3.2202,3.2202,3.2478,3.2707,3.2707,3.3137,3.3441,3.3441,3.3831,3.4117,3.4117,3.435,3.4482,3.4482,3.4702,3.4876,3.4876,3.4876,3.4876,3.4876,3.4876,3.505,3.5469,3.5525,3.5825,3.6486,3.65,3.6235,3.571,3.571,3.571,3.5723,3.6103,3.628,2.6364,0.0,0.0,0.0,0.0,2.5911,2.5515,2.5069,2.4716,2.4293,2.4202,2.4341,2.4815,2.5964,2.702,2.7542,2.8023,2.8513,2.8746,2.8803,2.936,3.0806,3.1466,3.2367,3.385,3.4474,3.4775,3.4775,3.445,3.4186,3.4006,3.3224,3.2599,3.2238,3.191,3.1705,3.1705,3.1705,3.1705,3.1705,3.1705,3.1705,3.1705,3.1705,3.1705,3.1705,3.1705,3.1705,3.1705,3.1705,3.1705,3.1705,3.1705,3.1705,3.1705,3.1705,3.1705,3.1705,3.1705,3.1705,3.1705,3.1705,3.1705,3.1705,3.1705,3.1705,3.1705,3.1705,3.1849,3.1994,3.1994,3.2082,3.2355,3.2671,3.3032,3.3284,3.3284,3.3008,3.2767,3.2767,3.3056,3.3284,3.3284,3.3894,3.4384,3.4384,3.5035,3.5511,3.5511,3.5688,3.582,3.582,3.6053,3.6184,3.6184,3.6184,3.6184,3.6184,3.6184,3.6358,3.6804,3.6847,3.7032,3.7485,3.7485,3.7092,3.6279,3.6279,3.6279,3.6293,3.6727,3.6917,0.0,0.0,0.0,0.0,0.0,2.5929,2.5534,2.5139,2.4675,2.4312,2.4211,2.4202,2.4202,2.4775,2.5771,2.7305,2.7589,2.7882,2.871,2.8803,2.9352,3.0793,3.1445,3.2362,3.3836,3.4482,3.4775,3.4775,3.4775,3.4558,3.4042,3.3573,3.2837,3.1765,3.1717,3.1705,3.1705,3.1705,3.1705,3.1705,3.1705,3.1705,3.1705,3.1705,3.1705,3.1705,3.1705,3.1705,3.1705,3.1705,3.1705,3.1705,3.1705,3.1705,3.1705,3.1705,3.1705,3.1705,3.1705,3.1705,3.1705,3.1705,3.1705,3.1705,3.1729,3.1729,3.1741,3.1753,3.2106,3.2527,3.2527,3.2911,3.3308,3.3308,3.332,3.3332,3.3332,3.3332,3.3332,3.3355,3.3367,3.3379,3.3425,3.4035,3.4512,3.4512,3.513,3.5607,3.5607,3.6179,3.6571,3.6571,3.7171,3.754,3.754,3.754,3.754,3.754,3.754,3.754,3.754,3.754,3.754,3.754,3.754,3.754,3.754,3.7512,3.7485,3.7485,3.7512,3.7526,2.6364,0.0,0.0,0.0,0.0,0.0,2.5938,2.5543,2.5148,2.4744,2.4413,2.4202,2.4202,2.439,2.4824,2.5771,2.6867,2.7882,2.871,2.8803,2.9352,3.0793,3.1109,3.1928,3.3836,3.4139,3.4384,3.4775,3.4775,3.4715,3.457,3.3777,3.2984,3.2286,3.1922,3.1705,3.1705,3.1705,3.1705,3.1705,3.1705,3.1705,3.1705,3.1705,3.1705,3.1705,3.1705,3.1705,3.1705,3.1705,3.1705,3.1705,3.1705,3.1705,3.1705,3.1705,3.1705,3.1705,3.1705,3.1705,3.1705,3.1705,3.1705,3.1789,3.2142,3.2274,3.2346,3.2731,3.2947,3.3068,3.3068,3.3452,3.3837,3.3837,3.4126,3.4402,3.4402,3.4402,3.4426,3.4649,3.4977,3.5424,3.5961,3.6654,3.7124,3.7124,3.7756,3.826,3.826,3.8393,3.8526,3.8526,3.8671,3.8817,3.8817,3.8817,3.8817,3.8817,3.8817,3.8817,3.8817,3.8817,3.8817,3.8817,3.8817,3.8817,3.8817,3.7919,3.7485,3.7499,3.7933,3.8396,0.0,0.0,0.0,0.0,0.0,0.0,2.6104,2.5837,2.5506,2.4904,2.4583,2.4413,2.4238,2.4202,2.444,2.5197,2.6061,2.702,2.8128,2.878,2.9489,3.0548,3.1252,3.2168,3.3514,3.4089,3.4482,3.4787,3.4775,3.4679,3.4462,3.3933,3.326,3.2527,3.2178,3.1946,3.1705,3.1705,3.1705,3.1705,3.1705,3.1705,3.1705,3.1705,3.1705,3.1705,3.1705,3.1705,3.1705,3.1705,3.1705,3.1705,3.1705,3.1705,3.1705,3.1705,3.1705,3.1705,3.1705,3.1705,3.1753,3.1982,3.201,3.2118,3.2659,3.2827,3.2899,3.32,3.344,3.3657,3.3873,3.415,3.4318,3.4318,3.4558,3.4775,3.4775,3.4775,3.4836,3.4988,3.5279,3.5715,3.6508,3.6989,3.7407,3.7684,3.8096,3.8504,3.88,3.8845,3.898,3.9261,3.9305,3.9305,3.9305,3.9305,3.9305,3.9305,3.9305,3.9305,3.9305,3.9305,3.9305,3.9305,3.9305,3.9305,3.9305,3.86,3.8274,3.8274,3.8627,3.8966,0.0,0.0,0.0,2.6591,2.6591,0.0,2.6168,2.6039,2.5819,2.506,2.4876,2.478,2.4413,2.4339,2.4529,2.5193,2.539,2.5947,2.734,2.8614,2.9578,3.0074,3.1435,3.2537,3.3151,3.404,3.4677,3.4775,3.4775,3.457,3.4102,3.4018,3.355,3.2623,3.2527,3.2238,3.1717,3.1705,3.1705,3.1705,3.1705,3.1705,3.1705,3.1705,3.1705,3.1705,3.1705,3.1705,3.1705,3.1705,3.1705,3.1705,3.1705,3.1705,3.1705,3.1705,3.1705,3.1705,3.1705,3.1753,3.1886,3.2334,3.2539,3.2695,3.3212,3.3368,3.3392,3.344,3.3777,3.4186,3.4667,3.4775,3.4775,3.4775,3.4775,3.4775,3.4775,3.4775,3.4775,3.4775,3.4872,3.5211,3.5953,3.6108,3.6332,3.701,3.715,3.7441,3.8109,3.8258,3.8575,3.9203,3.9305,3.9305,3.9305,3.9305,3.9305,3.9305,3.9305,3.9305,3.9305,3.9305,3.9305,3.9305,3.9305,3.9305,3.9305,3.9305,3.9305,3.9305,3.9305,3.9305,2.6591,2.6591,2.6591,2.6591,2.6591,0.0,2.6481,2.6251,2.5966,2.5819,2.5534,2.5286,2.5203,2.5185,2.5236,2.5381,2.5875,2.6501,2.7099,2.7949,2.8862,2.9709,3.0643,3.1734,3.3051,3.3396,3.3892,3.4738,3.4775,3.4727,3.4631,3.4222,3.3765,3.3152,3.2719,3.2238,3.1717,3.1705,3.1705,3.1705,3.1705,3.1705,3.1705,3.1705,3.1705,3.1705,3.1705,3.1705,3.1705,3.1705,3.1705,3.1705,3.1705,3.1705,3.1705,3.1705,3.1705,3.1705,3.1705,3.1961,3.2358,3.2466,3.2791,3.3224,3.3741,3.3838,3.3934,3.4414,3.4546,3.4655,3.4751,3.4775,3.4775,3.4775,3.4775,3.4775,3.4775,3.4775,3.4775,3.4775,3.5295,3.6001,3.6743,3.6883,3.6917,3.7057,3.7592,3.8063,3.8167,3.8711,3.9127,3.9292,3.9305,3.9305,3.9305,3.9305,3.9305,3.9305,3.9305,3.9305,3.9305,3.9305,3.9305,3.9305,3.9305,3.9305,3.9305,3.9305,3.9305,3.9305,3.9305,3.9305,2.6591,2.6591,2.6591,2.6591,2.6591,0.0,0.0,2.6426,2.6269,2.6058,2.5855,2.5663,2.546,2.5424,2.5424,2.5424,2.5717,2.6069,2.6481,2.7985,2.9163,2.9635,3.0842,3.2051,3.3124,3.3446,3.3941,3.4738,3.4775,3.4775,3.4775,3.4534,3.415,3.3681,3.3164,3.2635,3.2082,3.1849,3.1705,3.1705,3.1705,3.1705,3.1705,3.1705,3.1705,3.1705,3.1705,3.1705,3.1705,3.1705,3.1705,3.1705,3.1705,3.1705,3.1705,3.1705,3.1705,3.1753,3.203,3.2262,3.2587,3.3104,3.344,3.3753,3.4234,3.439,3.4438,3.4703,3.4775,3.4775,3.4775,3.4775,3.4775,3.4775,3.4775,3.4775,3.4775,3.4775,3.4775,3.4775,3.5114,3.5631,3.6414,3.6225,3.6083,3.6508,3.6521,3.679,3.7533,3.7959,3.8504,3.9203,3.9305,3.9305,3.9305,3.9305,3.9305,3.9305,3.9305,3.9305,3.9305,3.9305,3.9305,3.9305,3.9305,3.9305,3.9305,3.9305,3.9305,3.9305,3.9305,3.9305,2.6591,2.6591,2.6591,2.6591,2.6591,2.6591,0.0,0.0,0.0,2.6205,2.6131,2.6039,2.5718,2.5601,2.5601,2.5601,2.5601,2.5711,2.6094,2.7953,2.9404,2.9558,3.1,3.2319,3.3097,3.3793,3.4335,3.4775,3.4775,3.4775,3.4775,3.4775,3.4534,3.4006,3.3645,3.3128,3.2515,3.2058,3.1813,3.1705,3.1705,3.1705,3.1705,3.1705,3.1705,3.1705,3.1705,3.1705,3.1705,3.1705,3.1705,3.1705,3.1705,3.1705,3.1705,3.1705,3.1777,3.1934,3.2346,3.2635,3.2935,3.373,3.4066,3.4222,3.4655,3.4775,3.4775,3.4775,3.4775,3.4775,3.4775,3.4775,3.4775,3.4775,3.4775,3.4775,3.4775,3.4775,3.4775,3.4775,3.4775,3.5017,3.5631,3.5259,3.5066,3.587,3.5584,3.5763,3.7116,3.7441,3.7991,3.9158,3.9172,3.9172,3.9305,3.9172,3.9172,3.9305,3.9305,3.9305,3.9305,3.9305,3.9305,3.9305,3.9305,3.9359,3.9468,3.9468,3.9414,3.9305,3.9305,3.9305,2.6591,2.6591,2.6591,2.6591,2.6591,2.6591,2.6591,0.0,2.6573,2.6527,0.0,2.6509,2.6454,0.0,0.0,2.6454,2.6454,2.6463,2.6509,2.74,2.828,2.9064,3.0026,3.1311,3.3047,3.4139,3.4726,3.4775,3.4775,3.4775,3.4775,3.4775,3.4534,3.4006,3.3934,3.3442,3.2515,3.2442,3.2154,3.1705,3.1705,3.1705,3.1705,3.1705,3.1705,3.1705,3.1705,3.1705,3.1705,3.1705,3.1705,3.1705,3.1705,3.1705,3.1705,3.1705,3.2018,3.2418,3.2478,3.3104,3.3838,3.3958,3.4306,3.4703,3.4763,3.4775,3.4775,3.4775,3.4775,3.4775,3.4775,3.4775,3.4775,3.4775,3.4775,3.4775,3.4775,3.4775,3.4775,3.4775,3.4775,3.4835,3.492,3.4872,3.5066,3.587,3.6461,3.7163,3.7972,3.8652,3.9114,3.9305,3.8711,3.8575,3.9247,3.8711,3.8607,3.9261,3.9305,3.9305,3.9305,3.9305,3.9305,3.9305,3.9305,3.9563,4.0092,4.0092,3.9807,3.9305,3.9305,3.9305,2.6591,2.6591,2.6591,2.6591,2.6591,2.6591,2.6591,2.6591,2.6591,2.6591,0.0,0.0,0.0,0.0,0.0,0.0,2.6591,2.6591,2.6591,2.6899,2.7422,2.8252,2.9533,3.1157,3.3047,3.4188,3.4775,3.4775,3.4775,3.4775,3.4775,3.4775,3.4679,3.445,3.415,3.379,3.3346,3.3104,3.2683,3.2154,3.2154,3.2018,3.1705,3.1705,3.1705,3.1705,3.1705,3.1705,3.1705,3.1705,3.1705,3.1705,3.1705,3.1705,3.1753,3.2034,3.2298,3.2587,3.3188,3.3634,3.4042,3.4342,3.4595,3.4775,3.4775,3.4775,3.4775,3.4775,3.4775,3.4775,3.4775,3.4775,3.4775,3.4775,3.4775,3.4775,3.4775,3.4775,3.4775,3.4775,3.4775,3.4775,3.4775,3.4775,3.492,3.5247,3.5571,3.6048,3.6803,3.7176,3.7546,3.7972,3.773,3.7867,3.8607,3.8395,3.8663,3.9749,4.016,4.035,4.035,4.035,4.035,4.035,4.035,4.0485,4.073,4.073,4.0594,4.035,4.035,4.035,2.6591,2.6591,2.6591,2.6591,2.6591,2.6591,2.6591,2.6591,2.6591,2.6591,2.6591,0.0,0.0,0.0,2.6591,2.6591,0.0,2.6591,2.6591,2.6591,2.6899,2.7726,2.9471,3.1197,3.2723,3.393,3.4628,3.4775,3.4775,3.4775,3.4775,3.4775,3.4775,3.4775,3.4402,3.4138,3.3994,3.3681,3.3236,3.2719,3.2719,3.2503,3.2163,3.2163,3.2163,3.2163,3.2163,3.2163,3.2163,3.2163,3.2163,3.2163,3.2163,3.2163,3.2187,3.2406,3.2671,3.3032,3.373,3.409,3.427,3.4655,3.4775,3.4775,3.4775,3.4775,3.4775,3.4775,3.4775,3.4775,3.4775,3.4775,3.4775,3.4775,3.4775,3.4775,3.4775,3.4775,3.4775,3.4775,3.4775,3.4823,3.4967,3.4919,3.4872,3.5114,3.5114,3.5391,3.6191,3.6613,3.7032,3.7606,3.7782,3.8186,3.8918,3.8826,3.9182,4.0372,4.0865,4.1123,4.1123,4.1123,4.1123,4.1123,4.1123,4.1205,4.1367,4.1367,4.1449,4.1598,4.1272,4.1123,2.6591,2.6591,2.6591,2.6591,2.6591,2.6591,2.6591,2.6591,2.6591,2.6591,2.6591,2.6591,2.6591,2.6591,2.6591,0.0,2.6591,0.0,0.0,2.6591,2.6899,2.7726,2.9817,3.1381,3.1971,3.3262,3.4237,3.4775,3.4775,3.4775,3.4775,3.4775,3.4775,3.4775,3.4763,3.451,3.4006,3.3982,3.3765,3.326,3.326,3.326,3.3236,3.3236,3.3236,3.3236,3.3236,3.3236,3.3236,3.3236,3.3236,3.3236,3.3236,3.3236,3.3176,3.2683,3.3128,3.3946,3.3982,3.4318,3.4763,3.4775,3.4775,3.4775,3.4775,3.4775,3.4775,3.4775,3.4775,3.4775,3.4775,3.4775,3.4775,3.4775,3.4775,3.4775,3.4775,3.4775,3.4775,3.4775,3.4775,3.4943,3.5509,3.5111,3.5066,3.5823,3.5966,3.6238,3.6977,3.8212,3.8985,3.9044,3.958,4.022,4.0962,4.0361,4.0267,4.1036,4.111,4.1123,4.1123,4.1123,4.1123,4.1123,4.1123,4.1408,4.1978,4.1978,4.2263,4.2806,4.1652,4.1123,2.6636,2.6591,2.6591,2.6591,2.6591,2.6591,2.6591,2.6591,2.6591,2.6591,2.6591,2.6591,2.6591,2.6591,2.6591,0.0,0.0,2.6591,0.0,2.6591,2.6691,2.6944,2.8986,3.0805,3.1869,3.3212,3.4237,3.4775,3.4775,3.4775,3.4775,3.4775,3.4775,3.4775,3.4775,3.4691,3.451,3.451,3.4258,3.3742,3.3742,3.3609,3.3284,3.3284,3.3284,3.3284,3.3284,3.3284,3.3284,3.3284,3.3284,3.3284,3.3284,3.3489,3.3765,3.3538,3.3694,3.4042,3.439,3.4631,3.4775,3.4775,3.4775,3.4775,3.4775,3.4775,3.4775,3.4775,3.4775,3.4775,3.4775,3.4775,3.4775,3.4775,3.4775,3.4775,3.4775,3.4775,3.4775,3.4775,3.5112,3.54,3.5581,3.5761,3.5969,3.6207,3.6257,3.6554,3.7327,3.738,3.7505,3.8043,3.7815,3.7915,3.8638,3.9825,4.064,4.0906,4.1773,4.229,4.229,4.229,4.229,4.229,4.229,4.2385,4.2588,4.2588,4.2697,4.2873,4.248,4.229,2.6954,2.6899,2.6899,2.6899,2.6899,2.6845,2.6736,2.6736,2.6736,2.6736,2.6691,2.6636,2.6854,2.6745,2.6646,0.0,0.0,0.0,0.0,2.6591,2.6591,2.6591,2.8359,3.012,3.14,3.2851,3.404,3.4726,3.4775,3.4775,3.4775,3.4775,3.4775,3.4775,3.4775,3.4775,3.4775,3.4775,3.4607,3.427,3.427,3.415,3.3837,3.3837,3.3837,3.3837,3.3837,3.3837,3.3837,3.3837,3.3837,3.3837,3.3837,3.4042,3.4246,3.4066,3.4114,3.4318,3.4667,3.4775,3.4775,3.4775,3.4775,3.4775,3.4775,3.4775,3.4739,3.4546,3.4631,3.4739,3.4546,3.4643,3.4775,3.4775,3.4775,3.4835,3.5015,3.5063,3.5111,3.5352,3.5665,3.5954,3.6146,3.6459,3.6615,3.6435,3.6411,3.6601,3.7093,3.7114,3.7337,3.7829,3.7851,3.8152,3.8954,4.0586,4.1554,4.1554,4.2415,4.2887,4.2887,4.2887,4.2887,4.2887,4.2887,4.2887,4.2887,4.2887,4.2887,4.2887,4.2887,4.2887]}]]